<?xml version='1.0' encoding='UTF-8'?>
<gpx version="1.1" creator="https://www.komoot.de" xmlns="http://www.topografix.com/GPX/1/1" xmlns:xsi="http://www.w3.org/2001/XMLSchema-instance" xsi:schemaLocation="http://www.topografix.com/GPX/1/1 http://www.topografix.com/GPX/1/1/gpx.xsd">
  <metadata>
    <name>Süd-Ost-Tour</name>
    <author>
      <link href="https://www.komoot.de">
        <text>komoot</text>
        <type>text/html</type>
      </link>
    </author>
  </metadata>
  <trk>
    <name>Süd-Ost-Tour</name>
    <trkseg>
      <trkpt lat="51.615691" lon="7.326681">
        <ele>64.059098</ele>
        <time>2025-08-12T08:03:58.374Z</time>
      </trkpt>
      <trkpt lat="51.615624" lon="7.326472">
        <ele>64.059098</ele>
        <time>2025-08-12T08:04:00.379Z</time>
      </trkpt>
      <trkpt lat="51.616017" lon="7.326285">
        <ele>64.059098</ele>
        <time>2025-08-12T08:04:06.050Z</time>
      </trkpt>
      <trkpt lat="51.616207" lon="7.326206">
        <ele>64.059098</ele>
        <time>2025-08-12T08:04:08.505Z</time>
      </trkpt>
      <trkpt lat="51.616251" lon="7.326187">
        <ele>64.059098</ele>
        <time>2025-08-12T08:04:09.093Z</time>
      </trkpt>
      <trkpt lat="51.616370" lon="7.326129">
        <ele>64.067684</ele>
        <time>2025-08-12T08:04:11.174Z</time>
      </trkpt>
      <trkpt lat="51.616463" lon="7.326117">
        <ele>64.103068</ele>
        <time>2025-08-12T08:04:12.782Z</time>
      </trkpt>
      <trkpt lat="51.616559" lon="7.326142">
        <ele>64.139950</ele>
        <time>2025-08-12T08:04:14.438Z</time>
      </trkpt>
      <trkpt lat="51.616722" lon="7.326185">
        <ele>64.202593</ele>
        <time>2025-08-12T08:04:17.290Z</time>
      </trkpt>
      <trkpt lat="51.616746" lon="7.326192">
        <ele>64.211844</ele>
        <time>2025-08-12T08:04:17.725Z</time>
      </trkpt>
      <trkpt lat="51.616882" lon="7.326188">
        <ele>64.263432</ele>
        <time>2025-08-12T08:04:20.102Z</time>
      </trkpt>
      <trkpt lat="51.617060" lon="7.325992">
        <ele>64.345210</ele>
        <time>2025-08-12T08:04:23.796Z</time>
      </trkpt>
      <trkpt lat="51.617086" lon="7.325966">
        <ele>64.356817</ele>
        <time>2025-08-12T08:04:24.317Z</time>
      </trkpt>
      <trkpt lat="51.617175" lon="7.325865">
        <ele>64.398109</ele>
        <time>2025-08-12T08:04:26.172Z</time>
      </trkpt>
      <trkpt lat="51.617504" lon="7.325750">
        <ele>64.525791</ele>
        <time>2025-08-12T08:04:31.872Z</time>
      </trkpt>
      <trkpt lat="51.618168" lon="7.325605">
        <ele>64.801020</ele>
        <time>2025-08-12T08:04:43.390Z</time>
      </trkpt>
      <trkpt lat="51.618268" lon="7.325593">
        <ele>64.859798</ele>
        <time>2025-08-12T08:04:45.240Z</time>
      </trkpt>
      <trkpt lat="51.618257" lon="7.325698">
        <ele>64.898552</ele>
        <time>2025-08-12T08:04:46.513Z</time>
      </trkpt>
      <trkpt lat="51.618235" lon="7.325895">
        <ele>64.971399</ele>
        <time>2025-08-12T08:04:48.925Z</time>
      </trkpt>
      <trkpt lat="51.618301" lon="7.325906">
        <ele>65.010292</ele>
        <time>2025-08-12T08:04:49.883Z</time>
      </trkpt>
      <trkpt lat="51.618256" lon="7.326501">
        <ele>65.228437</ele>
        <time>2025-08-12T08:04:55.579Z</time>
      </trkpt>
      <trkpt lat="51.618147" lon="7.327563">
        <ele>65.620188</ele>
        <time>2025-08-12T08:05:05.116Z</time>
      </trkpt>
      <trkpt lat="51.618090" lon="7.328091">
        <ele>65.769537</ele>
        <time>2025-08-12T08:05:09.591Z</time>
      </trkpt>
      <trkpt lat="51.618043" lon="7.328517">
        <ele>65.561740</ele>
        <time>2025-08-12T08:05:12.566Z</time>
      </trkpt>
      <trkpt lat="51.618037" lon="7.328553">
        <ele>65.543838</ele>
        <time>2025-08-12T08:05:12.810Z</time>
      </trkpt>
      <trkpt lat="51.618014" lon="7.328719">
        <ele>65.462153</ele>
        <time>2025-08-12T08:05:13.928Z</time>
      </trkpt>
      <trkpt lat="51.618005" lon="7.328771">
        <ele>65.436228</ele>
        <time>2025-08-12T08:05:14.268Z</time>
      </trkpt>
      <trkpt lat="51.617863" lon="7.329351">
        <ele>65.136801</ele>
        <time>2025-08-12T08:05:18.093Z</time>
      </trkpt>
      <trkpt lat="51.617846" lon="7.329627">
        <ele>65.003597</ele>
        <time>2025-08-12T08:05:19.762Z</time>
      </trkpt>
      <trkpt lat="51.617877" lon="7.329810">
        <ele>64.912496</ele>
        <time>2025-08-12T08:05:20.895Z</time>
      </trkpt>
      <trkpt lat="51.617934" lon="7.329976">
        <ele>64.821392</ele>
        <time>2025-08-12T08:05:22.026Z</time>
      </trkpt>
      <trkpt lat="51.618216" lon="7.330355">
        <ele>64.537297</ele>
        <time>2025-08-12T08:05:25.687Z</time>
      </trkpt>
      <trkpt lat="51.618406" lon="7.330577">
        <ele>64.331374</ele>
        <time>2025-08-12T08:05:27.875Z</time>
      </trkpt>
      <trkpt lat="51.618554" lon="7.330811">
        <ele>64.090485</ele>
        <time>2025-08-12T08:05:29.829Z</time>
      </trkpt>
      <trkpt lat="51.618654" lon="7.330978">
        <ele>63.923168</ele>
        <time>2025-08-12T08:05:31.178Z</time>
      </trkpt>
      <trkpt lat="51.618752" lon="7.331195">
        <ele>63.729657</ele>
        <time>2025-08-12T08:05:32.716Z</time>
      </trkpt>
      <trkpt lat="51.618905" lon="7.331658">
        <ele>63.351414</ele>
        <time>2025-08-12T08:05:35.565Z</time>
      </trkpt>
      <trkpt lat="51.619028" lon="7.332046">
        <ele>63.037244</ele>
        <time>2025-08-12T08:05:37.992Z</time>
      </trkpt>
      <trkpt lat="51.619132" lon="7.332415">
        <ele>62.745003</ele>
        <time>2025-08-12T08:05:40.516Z</time>
      </trkpt>
      <trkpt lat="51.619177" lon="7.332579">
        <ele>62.615699</ele>
        <time>2025-08-12T08:05:41.656Z</time>
      </trkpt>
      <trkpt lat="51.619356" lon="7.333165">
        <ele>62.450375</ele>
        <time>2025-08-12T08:05:45.922Z</time>
      </trkpt>
      <trkpt lat="51.619519" lon="7.333743">
        <ele>62.813510</ele>
        <time>2025-08-12T08:05:50.766Z</time>
      </trkpt>
      <trkpt lat="51.619560" lon="7.333971">
        <ele>62.949291</ele>
        <time>2025-08-12T08:05:52.770Z</time>
      </trkpt>
      <trkpt lat="51.619593" lon="7.334575">
        <ele>63.296126</ele>
        <time>2025-08-12T08:05:58.076Z</time>
      </trkpt>
      <trkpt lat="51.619662" lon="7.334598">
        <ele>63.361043</ele>
        <time>2025-08-12T08:05:59.341Z</time>
      </trkpt>
      <trkpt lat="51.619578" lon="7.335230">
        <ele>63.730749</ele>
        <time>2025-08-12T08:06:07.073Z</time>
      </trkpt>
      <trkpt lat="51.619495" lon="7.335490">
        <ele>63.897982</ele>
        <time>2025-08-12T08:06:10.494Z</time>
      </trkpt>
      <trkpt lat="51.619378" lon="7.335861">
        <ele>64.280796</ele>
        <time>2025-08-12T08:06:15.169Z</time>
      </trkpt>
      <trkpt lat="51.619116" lon="7.336395">
        <ele>65.014391</ele>
        <time>2025-08-12T08:06:22.471Z</time>
      </trkpt>
      <trkpt lat="51.618539" lon="7.337402">
        <ele>66.491374</ele>
        <time>2025-08-12T08:06:37.198Z</time>
      </trkpt>
      <trkpt lat="51.618163" lon="7.338062">
        <ele>67.271883</ele>
        <time>2025-08-12T08:06:46.877Z</time>
      </trkpt>
      <trkpt lat="51.617998" lon="7.338413">
        <ele>67.504029</ele>
        <time>2025-08-12T08:06:51.209Z</time>
      </trkpt>
      <trkpt lat="51.617707" lon="7.339143">
        <ele>67.961468</ele>
        <time>2025-08-12T08:06:59.037Z</time>
      </trkpt>
      <trkpt lat="51.617518" lon="7.339776">
        <ele>68.331842</ele>
        <time>2025-08-12T08:07:04.975Z</time>
      </trkpt>
      <trkpt lat="51.617308" lon="7.340800">
        <ele>68.745049</ele>
        <time>2025-08-12T08:07:13.483Z</time>
      </trkpt>
      <trkpt lat="51.617233" lon="7.341279">
        <ele>68.860014</ele>
        <time>2025-08-12T08:07:17.298Z</time>
      </trkpt>
      <trkpt lat="51.617131" lon="7.342026">
        <ele>69.038014</ele>
        <time>2025-08-12T08:07:23.498Z</time>
      </trkpt>
      <trkpt lat="51.617037" lon="7.342675">
        <ele>69.193108</ele>
        <time>2025-08-12T08:07:29.052Z</time>
      </trkpt>
      <trkpt lat="51.616677" lon="7.345114">
        <ele>69.730522</ele>
        <time>2025-08-12T08:07:49.413Z</time>
      </trkpt>
      <trkpt lat="51.616682" lon="7.345199">
        <ele>69.748487</ele>
        <time>2025-08-12T08:07:50.081Z</time>
      </trkpt>
      <trkpt lat="51.616549" lon="7.346159">
        <ele>69.972675</ele>
        <time>2025-08-12T08:07:57.759Z</time>
      </trkpt>
      <trkpt lat="51.616502" lon="7.346947">
        <ele>70.197152</ele>
        <time>2025-08-12T08:08:04.029Z</time>
      </trkpt>
      <trkpt lat="51.616478" lon="7.347924">
        <ele>70.474411</ele>
        <time>2025-08-12T08:08:12.131Z</time>
      </trkpt>
      <trkpt lat="51.616431" lon="7.350943">
        <ele>71.476803</ele>
        <time>2025-08-12T08:08:38.852Z</time>
      </trkpt>
      <trkpt lat="51.616422" lon="7.352246">
        <ele>71.701854</ele>
        <time>2025-08-12T08:08:48.891Z</time>
      </trkpt>
      <trkpt lat="51.616439" lon="7.352815">
        <ele>71.653148</ele>
        <time>2025-08-12T08:08:52.859Z</time>
      </trkpt>
      <trkpt lat="51.616373" lon="7.352809">
        <ele>71.644045</ele>
        <time>2025-08-12T08:08:53.602Z</time>
      </trkpt>
      <trkpt lat="51.616551" lon="7.354881">
        <ele>71.454274</ele>
        <time>2025-08-12T08:09:07.917Z</time>
      </trkpt>
      <trkpt lat="51.616555" lon="7.354934">
        <ele>71.448271</ele>
        <time>2025-08-12T08:09:08.310Z</time>
      </trkpt>
      <trkpt lat="51.616785" lon="7.357397">
        <ele>71.171414</ele>
        <time>2025-08-12T08:09:26.108Z</time>
      </trkpt>
      <trkpt lat="51.616874" lon="7.358094">
        <ele>71.134682</ele>
        <time>2025-08-12T08:09:30.937Z</time>
      </trkpt>
      <trkpt lat="51.617047" lon="7.359202">
        <ele>71.075707</ele>
        <time>2025-08-12T08:09:38.782Z</time>
      </trkpt>
      <trkpt lat="51.617267" lon="7.360283">
        <ele>71.061455</ele>
        <time>2025-08-12T08:09:47.655Z</time>
      </trkpt>
      <trkpt lat="51.617350" lon="7.360686">
        <ele>71.167337</ele>
        <time>2025-08-12T08:09:51.094Z</time>
      </trkpt>
      <trkpt lat="51.617516" lon="7.361461">
        <ele>71.371776</ele>
        <time>2025-08-12T08:09:57.947Z</time>
      </trkpt>
      <trkpt lat="51.617716" lon="7.362403">
        <ele>71.620036</ele>
        <time>2025-08-12T08:10:06.348Z</time>
      </trkpt>
      <trkpt lat="51.617828" lon="7.362942">
        <ele>71.764927</ele>
        <time>2025-08-12T08:10:10.938Z</time>
      </trkpt>
      <trkpt lat="51.618036" lon="7.363987">
        <ele>72.096948</ele>
        <time>2025-08-12T08:10:19.440Z</time>
      </trkpt>
      <trkpt lat="51.618370" lon="7.365584">
        <ele>72.606805</ele>
        <time>2025-08-12T08:10:33.889Z</time>
      </trkpt>
      <trkpt lat="51.618653" lon="7.366946">
        <ele>73.150419</ele>
        <time>2025-08-12T08:10:46.343Z</time>
      </trkpt>
      <trkpt lat="51.618688" lon="7.367118">
        <ele>73.219475</ele>
        <time>2025-08-12T08:10:47.920Z</time>
      </trkpt>
      <trkpt lat="51.618940" lon="7.368342">
        <ele>73.711457</ele>
        <time>2025-08-12T08:10:59.001Z</time>
      </trkpt>
      <trkpt lat="51.619184" lon="7.369500">
        <ele>74.299081</ele>
        <time>2025-08-12T08:11:09.613Z</time>
      </trkpt>
      <trkpt lat="51.619563" lon="7.371294">
        <ele>75.175656</ele>
        <time>2025-08-12T08:11:26.956Z</time>
      </trkpt>
      <trkpt lat="51.619852" lon="7.372673">
        <ele>75.539563</ele>
        <time>2025-08-12T08:11:39.164Z</time>
      </trkpt>
      <trkpt lat="51.620829" lon="7.376766">
        <ele>75.999974</ele>
        <time>2025-08-12T08:12:12.196Z</time>
      </trkpt>
      <trkpt lat="51.620889" lon="7.377027">
        <ele>76.014390</ele>
        <time>2025-08-12T08:12:14.226Z</time>
      </trkpt>
      <trkpt lat="51.621221" lon="7.378414">
        <ele>76.091388</ele>
        <time>2025-08-12T08:12:25.368Z</time>
      </trkpt>
      <trkpt lat="51.621388" lon="7.379145">
        <ele>76.131734</ele>
        <time>2025-08-12T08:12:31.306Z</time>
      </trkpt>
      <trkpt lat="51.621514" lon="7.379856">
        <ele>76.226273</ele>
        <time>2025-08-12T08:12:36.865Z</time>
      </trkpt>
      <trkpt lat="51.621587" lon="7.380622">
        <ele>76.338028</ele>
        <time>2025-08-12T08:12:42.881Z</time>
      </trkpt>
      <trkpt lat="51.621571" lon="7.381205">
        <ele>76.422183</ele>
        <time>2025-08-12T08:12:47.390Z</time>
      </trkpt>
      <trkpt lat="51.621559" lon="7.381410">
        <ele>76.451876</ele>
        <time>2025-08-12T08:12:49.022Z</time>
      </trkpt>
      <trkpt lat="51.621514" lon="7.381849">
        <ele>76.516040</ele>
        <time>2025-08-12T08:12:52.641Z</time>
      </trkpt>
      <trkpt lat="51.621366" lon="7.382695">
        <ele>76.598352</ele>
        <time>2025-08-12T08:12:59.826Z</time>
      </trkpt>
      <trkpt lat="51.621133" lon="7.383451">
        <ele>76.657543</ele>
        <time>2025-08-12T08:13:06.773Z</time>
      </trkpt>
      <trkpt lat="51.620994" lon="7.383790">
        <ele>76.686034</ele>
        <time>2025-08-12T08:13:09.953Z</time>
      </trkpt>
      <trkpt lat="51.620598" lon="7.384695">
        <ele>76.725513</ele>
        <time>2025-08-12T08:13:18.011Z</time>
      </trkpt>
      <trkpt lat="51.619953" lon="7.386160">
        <ele>75.715022</ele>
        <time>2025-08-12T08:13:29.113Z</time>
      </trkpt>
      <trkpt lat="51.619690" lon="7.386987">
        <ele>75.192221</ele>
        <time>2025-08-12T08:13:34.547Z</time>
      </trkpt>
      <trkpt lat="51.619572" lon="7.387553">
        <ele>74.819754</ele>
        <time>2025-08-12T08:13:38.029Z</time>
      </trkpt>
      <trkpt lat="51.619484" lon="7.388109">
        <ele>74.453743</ele>
        <time>2025-08-12T08:13:41.428Z</time>
      </trkpt>
      <trkpt lat="51.619423" lon="7.388811">
        <ele>74.001578</ele>
        <time>2025-08-12T08:13:45.734Z</time>
      </trkpt>
      <trkpt lat="51.619441" lon="7.389900">
        <ele>73.306666</ele>
        <time>2025-08-12T08:13:52.580Z</time>
      </trkpt>
      <trkpt lat="51.619507" lon="7.390614">
        <ele>72.881177</ele>
        <time>2025-08-12T08:13:57.057Z</time>
      </trkpt>
      <trkpt lat="51.619596" lon="7.391196">
        <ele>72.529556</ele>
        <time>2025-08-12T08:14:00.660Z</time>
      </trkpt>
      <trkpt lat="51.619889" lon="7.392885">
        <ele>71.638787</ele>
        <time>2025-08-12T08:14:11.124Z</time>
      </trkpt>
      <trkpt lat="51.619931" lon="7.393056">
        <ele>71.713922</ele>
        <time>2025-08-12T08:14:12.262Z</time>
      </trkpt>
      <trkpt lat="51.619889" lon="7.392885">
        <ele>71.789057</ele>
        <time>2025-08-12T08:14:13.474Z</time>
      </trkpt>
      <trkpt lat="51.620375" lon="7.392714">
        <ele>72.116422</ele>
        <time>2025-08-12T08:14:19.570Z</time>
      </trkpt>
      <trkpt lat="51.620595" lon="7.392636">
        <ele>72.264664</ele>
        <time>2025-08-12T08:14:22.945Z</time>
      </trkpt>
      <trkpt lat="51.620637" lon="7.392624">
        <ele>72.292734</ele>
        <time>2025-08-12T08:14:23.594Z</time>
      </trkpt>
      <trkpt lat="51.620847" lon="7.392554">
        <ele>72.433858</ele>
        <time>2025-08-12T08:14:27.081Z</time>
      </trkpt>
      <trkpt lat="51.620905" lon="7.392535">
        <ele>72.472807</ele>
        <time>2025-08-12T08:14:28.100Z</time>
      </trkpt>
      <trkpt lat="51.620967" lon="7.392515">
        <ele>72.514418</ele>
        <time>2025-08-12T08:14:29.180Z</time>
      </trkpt>
      <trkpt lat="51.621161" lon="7.392423">
        <ele>72.647502</ele>
        <time>2025-08-12T08:14:32.631Z</time>
      </trkpt>
      <trkpt lat="51.621609" lon="7.392169">
        <ele>73.140105</ele>
        <time>2025-08-12T08:14:41.344Z</time>
      </trkpt>
      <trkpt lat="51.622170" lon="7.391749">
        <ele>73.924516</ele>
        <time>2025-08-12T08:14:52.795Z</time>
      </trkpt>
      <trkpt lat="51.622247" lon="7.391680">
        <ele>74.036241</ele>
        <time>2025-08-12T08:14:54.327Z</time>
      </trkpt>
      <trkpt lat="51.622306" lon="7.391633">
        <ele>74.119700</ele>
        <time>2025-08-12T08:14:55.372Z</time>
      </trkpt>
      <trkpt lat="51.622797" lon="7.391160">
        <ele>74.845120</ele>
        <time>2025-08-12T08:15:03.782Z</time>
      </trkpt>
      <trkpt lat="51.622914" lon="7.391026">
        <ele>75.027150</ele>
        <time>2025-08-12T08:15:05.596Z</time>
      </trkpt>
      <trkpt lat="51.623008" lon="7.390915">
        <ele>74.975808</ele>
        <time>2025-08-12T08:15:06.966Z</time>
      </trkpt>
      <trkpt lat="51.623520" lon="7.390327">
        <ele>74.538132</ele>
        <time>2025-08-12T08:15:13.477Z</time>
      </trkpt>
      <trkpt lat="51.623813" lon="7.389988">
        <ele>74.287036</ele>
        <time>2025-08-12T08:15:16.892Z</time>
      </trkpt>
      <trkpt lat="51.623939" lon="7.389840">
        <ele>74.178494</ele>
        <time>2025-08-12T08:15:18.339Z</time>
      </trkpt>
      <trkpt lat="51.624118" lon="7.389635">
        <ele>74.025622</ele>
        <time>2025-08-12T08:15:20.422Z</time>
      </trkpt>
      <trkpt lat="51.624470" lon="7.389225">
        <ele>73.759190</ele>
        <time>2025-08-12T08:15:24.659Z</time>
      </trkpt>
      <trkpt lat="51.624662" lon="7.389002">
        <ele>73.677563</ele>
        <time>2025-08-12T08:15:27.067Z</time>
      </trkpt>
      <trkpt lat="51.625249" lon="7.388151">
        <ele>73.405228</ele>
        <time>2025-08-12T08:15:36.030Z</time>
      </trkpt>
      <trkpt lat="51.625670" lon="7.387533">
        <ele>73.208808</ele>
        <time>2025-08-12T08:15:42.832Z</time>
      </trkpt>
      <trkpt lat="51.626574" lon="7.385861">
        <ele>72.625197</ele>
        <time>2025-08-12T08:15:57.826Z</time>
      </trkpt>
      <trkpt lat="51.627306" lon="7.384549">
        <ele>72.031910</ele>
        <time>2025-08-12T08:16:09.031Z</time>
      </trkpt>
      <trkpt lat="51.627474" lon="7.384291">
        <ele>71.882523</ele>
        <time>2025-08-12T08:16:11.401Z</time>
      </trkpt>
      <trkpt lat="51.627692" lon="7.383946">
        <ele>71.685839</ele>
        <time>2025-08-12T08:16:14.549Z</time>
      </trkpt>
      <trkpt lat="51.628383" lon="7.383108">
        <ele>71.190046</ele>
        <time>2025-08-12T08:16:23.634Z</time>
      </trkpt>
      <trkpt lat="51.628908" lon="7.382471">
        <ele>70.993702</ele>
        <time>2025-08-12T08:16:30.865Z</time>
      </trkpt>
      <trkpt lat="51.629217" lon="7.382184">
        <ele>70.887150</ele>
        <time>2025-08-12T08:16:34.666Z</time>
      </trkpt>
      <trkpt lat="51.629788" lon="7.381677">
        <ele>70.701593</ele>
        <time>2025-08-12T08:16:41.960Z</time>
      </trkpt>
      <trkpt lat="51.629856" lon="7.381995">
        <ele>70.683158</ele>
        <time>2025-08-12T08:16:44.436Z</time>
      </trkpt>
      <trkpt lat="51.629653" lon="7.382051">
        <ele>70.664974</ele>
        <time>2025-08-12T08:16:46.981Z</time>
      </trkpt>
      <trkpt lat="51.629572" lon="7.382102">
        <ele>70.657295</ele>
        <time>2025-08-12T08:16:48.007Z</time>
      </trkpt>
      <trkpt lat="51.629653" lon="7.382051">
        <ele>70.649616</ele>
        <time>2025-08-12T08:16:49.106Z</time>
      </trkpt>
      <trkpt lat="51.629856" lon="7.381995">
        <ele>70.631431</ele>
        <time>2025-08-12T08:16:51.540Z</time>
      </trkpt>
      <trkpt lat="51.629788" lon="7.381677">
        <ele>70.612997</ele>
        <time>2025-08-12T08:16:54.027Z</time>
      </trkpt>
      <trkpt lat="51.630375" lon="7.381231">
        <ele>70.555693</ele>
        <time>2025-08-12T08:17:01.903Z</time>
      </trkpt>
      <trkpt lat="51.631546" lon="7.380425">
        <ele>69.479591</ele>
        <time>2025-08-12T08:17:15.140Z</time>
      </trkpt>
      <trkpt lat="51.632809" lon="7.379643">
        <ele>68.006688</ele>
        <time>2025-08-12T08:17:27.374Z</time>
      </trkpt>
      <trkpt lat="51.633004" lon="7.379524">
        <ele>67.747707</ele>
        <time>2025-08-12T08:17:29.274Z</time>
      </trkpt>
      <trkpt lat="51.633126" lon="7.379448">
        <ele>67.585252</ele>
        <time>2025-08-12T08:17:30.493Z</time>
      </trkpt>
      <trkpt lat="51.634691" lon="7.378504">
        <ele>66.408126</ele>
        <time>2025-08-12T08:17:47.595Z</time>
      </trkpt>
      <trkpt lat="51.635273" lon="7.378145">
        <ele>66.231525</ele>
        <time>2025-08-12T08:17:55.153Z</time>
      </trkpt>
      <trkpt lat="51.636297" lon="7.377514">
        <ele>65.950461</ele>
        <time>2025-08-12T08:18:09.737Z</time>
      </trkpt>
      <trkpt lat="51.637141" lon="7.376984">
        <ele>65.725030</ele>
        <time>2025-08-12T08:18:19.521Z</time>
      </trkpt>
      <trkpt lat="51.639514" lon="7.375495">
        <ele>60.463266</ele>
        <time>2025-08-12T08:18:41.461Z</time>
      </trkpt>
      <trkpt lat="51.640648" lon="7.374740">
        <ele>57.991425</ele>
        <time>2025-08-12T08:18:51.948Z</time>
      </trkpt>
      <trkpt lat="51.640744" lon="7.374677">
        <ele>57.921135</ele>
        <time>2025-08-12T08:18:52.870Z</time>
      </trkpt>
      <trkpt lat="51.641461" lon="7.374165">
        <ele>57.389336</ele>
        <time>2025-08-12T08:19:00.514Z</time>
      </trkpt>
      <trkpt lat="51.641548" lon="7.374101">
        <ele>57.324485</ele>
        <time>2025-08-12T08:19:01.565Z</time>
      </trkpt>
      <trkpt lat="51.642333" lon="7.373520">
        <ele>56.912215</ele>
        <time>2025-08-12T08:19:12.945Z</time>
      </trkpt>
      <trkpt lat="51.643346" lon="7.372727">
        <ele>57.175607</ele>
        <time>2025-08-12T08:19:28.747Z</time>
      </trkpt>
      <trkpt lat="51.644337" lon="7.371843">
        <ele>56.867966</ele>
        <time>2025-08-12T08:19:40.357Z</time>
      </trkpt>
      <trkpt lat="51.644954" lon="7.371301">
        <ele>56.413812</ele>
        <time>2025-08-12T08:19:47.350Z</time>
      </trkpt>
      <trkpt lat="51.645023" lon="7.371239">
        <ele>56.362755</ele>
        <time>2025-08-12T08:19:48.151Z</time>
      </trkpt>
      <trkpt lat="51.646297" lon="7.370023">
        <ele>55.725109</ele>
        <time>2025-08-12T08:20:04.440Z</time>
      </trkpt>
      <trkpt lat="51.646482" lon="7.370007">
        <ele>55.658463</ele>
        <time>2025-08-12T08:20:06.507Z</time>
      </trkpt>
      <trkpt lat="51.647096" lon="7.369445">
        <ele>55.359403</ele>
        <time>2025-08-12T08:20:14.218Z</time>
      </trkpt>
      <trkpt lat="51.647821" lon="7.368969">
        <ele>54.907424</ele>
        <time>2025-08-12T08:20:22.544Z</time>
      </trkpt>
      <trkpt lat="51.648045" lon="7.368870">
        <ele>54.773323</ele>
        <time>2025-08-12T08:20:24.911Z</time>
      </trkpt>
      <trkpt lat="51.648672" lon="7.368700">
        <ele>54.394470</ele>
        <time>2025-08-12T08:20:31.390Z</time>
      </trkpt>
      <trkpt lat="51.648964" lon="7.368633">
        <ele>54.165645</ele>
        <time>2025-08-12T08:20:34.355Z</time>
      </trkpt>
      <trkpt lat="51.649052" lon="7.368622">
        <ele>54.097168</ele>
        <time>2025-08-12T08:20:35.219Z</time>
      </trkpt>
      <trkpt lat="51.649769" lon="7.368610">
        <ele>53.540875</ele>
        <time>2025-08-12T08:20:42.228Z</time>
      </trkpt>
      <trkpt lat="51.650553" lon="7.368840">
        <ele>53.002231</ele>
        <time>2025-08-12T08:20:50.506Z</time>
      </trkpt>
      <trkpt lat="51.651350" lon="7.369096">
        <ele>52.781689</ele>
        <time>2025-08-12T08:20:59.459Z</time>
      </trkpt>
      <trkpt lat="51.651409" lon="7.369146">
        <ele>52.763599</ele>
        <time>2025-08-12T08:21:00.214Z</time>
      </trkpt>
      <trkpt lat="51.651500" lon="7.369342">
        <ele>52.722380</ele>
        <time>2025-08-12T08:21:01.957Z</time>
      </trkpt>
      <trkpt lat="51.652374" lon="7.371207">
        <ele>52.329132</ele>
        <time>2025-08-12T08:21:18.706Z</time>
      </trkpt>
      <trkpt lat="51.652549" lon="7.371507">
        <ele>52.259885</ele>
        <time>2025-08-12T08:21:21.723Z</time>
      </trkpt>
      <trkpt lat="51.653445" lon="7.372333">
        <ele>51.839178</ele>
        <time>2025-08-12T08:21:32.633Z</time>
      </trkpt>
      <trkpt lat="51.653570" lon="7.372447">
        <ele>51.738821</ele>
        <time>2025-08-12T08:21:34.110Z</time>
      </trkpt>
      <trkpt lat="51.654219" lon="7.373038">
        <ele>51.217953</ele>
        <time>2025-08-12T08:21:41.634Z</time>
      </trkpt>
      <trkpt lat="51.654677" lon="7.373347">
        <ele>50.871015</ele>
        <time>2025-08-12T08:21:46.518Z</time>
      </trkpt>
      <trkpt lat="51.656218" lon="7.373873">
        <ele>50.089747</ele>
        <time>2025-08-12T08:22:03.231Z</time>
      </trkpt>
      <trkpt lat="51.656673" lon="7.373978">
        <ele>49.915882</ele>
        <time>2025-08-12T08:22:08.296Z</time>
      </trkpt>
      <trkpt lat="51.657202" lon="7.374093">
        <ele>49.828239</ele>
        <time>2025-08-12T08:22:14.445Z</time>
      </trkpt>
      <trkpt lat="51.657436" lon="7.374188">
        <ele>49.788619</ele>
        <time>2025-08-12T08:22:17.264Z</time>
      </trkpt>
      <trkpt lat="51.657942" lon="7.374217">
        <ele>49.705486</ele>
        <time>2025-08-12T08:22:23.036Z</time>
      </trkpt>
      <trkpt lat="51.658605" lon="7.374303">
        <ele>49.711864</ele>
        <time>2025-08-12T08:22:30.532Z</time>
      </trkpt>
      <trkpt lat="51.658860" lon="7.374258">
        <ele>49.768424</ele>
        <time>2025-08-12T08:22:33.491Z</time>
      </trkpt>
      <trkpt lat="51.659659" lon="7.373934">
        <ele>49.950083</ele>
        <time>2025-08-12T08:22:43.698Z</time>
      </trkpt>
      <trkpt lat="51.659723" lon="7.373899">
        <ele>49.964984</ele>
        <time>2025-08-12T08:22:44.682Z</time>
      </trkpt>
      <trkpt lat="51.659871" lon="7.374114">
        <ele>50.008911</ele>
        <time>2025-08-12T08:22:47.414Z</time>
      </trkpt>
      <trkpt lat="51.660083" lon="7.374105">
        <ele>50.077185</ele>
        <time>2025-08-12T08:22:50.464Z</time>
      </trkpt>
      <trkpt lat="51.660388" lon="7.374176">
        <ele>50.253579</ele>
        <time>2025-08-12T08:22:55.005Z</time>
      </trkpt>
      <trkpt lat="51.660754" lon="7.373869">
        <ele>50.489742</ele>
        <time>2025-08-12T08:23:03.085Z</time>
      </trkpt>
      <trkpt lat="51.661534" lon="7.372989">
        <ele>51.034693</ele>
        <time>2025-08-12T08:23:20.641Z</time>
      </trkpt>
      <trkpt lat="51.661664" lon="7.372888">
        <ele>50.974612</ele>
        <time>2025-08-12T08:23:22.841Z</time>
      </trkpt>
      <trkpt lat="51.661792" lon="7.372834">
        <ele>50.813131</ele>
        <time>2025-08-12T08:23:24.782Z</time>
      </trkpt>
      <trkpt lat="51.662205" lon="7.372777">
        <ele>50.307231</ele>
        <time>2025-08-12T08:23:30.572Z</time>
      </trkpt>
      <trkpt lat="51.662413" lon="7.372843">
        <ele>50.048502</ele>
        <time>2025-08-12T08:23:33.433Z</time>
      </trkpt>
      <trkpt lat="51.662567" lon="7.373008">
        <ele>49.822826</ele>
        <time>2025-08-12T08:23:35.836Z</time>
      </trkpt>
      <trkpt lat="51.663493" lon="7.374682">
        <ele>48.400909</ele>
        <time>2025-08-12T08:23:53.571Z</time>
      </trkpt>
      <trkpt lat="51.663832" lon="7.375137">
        <ele>48.060285</ele>
        <time>2025-08-12T08:23:59.884Z</time>
      </trkpt>
      <trkpt lat="51.664002" lon="7.375258">
        <ele>47.916785</ele>
        <time>2025-08-12T08:24:02.708Z</time>
      </trkpt>
      <trkpt lat="51.664593" lon="7.375017">
        <ele>47.520637</ele>
        <time>2025-08-12T08:24:12.655Z</time>
      </trkpt>
      <trkpt lat="51.665007" lon="7.374848">
        <ele>47.782528</ele>
        <time>2025-08-12T08:24:20.198Z</time>
      </trkpt>
      <trkpt lat="51.666407" lon="7.374889">
        <ele>48.647194</ele>
        <time>2025-08-12T08:24:46.177Z</time>
      </trkpt>
      <trkpt lat="51.666653" lon="7.375022">
        <ele>48.825154</ele>
        <time>2025-08-12T08:24:51.192Z</time>
      </trkpt>
      <trkpt lat="51.666760" lon="7.375031">
        <ele>48.898643</ele>
        <time>2025-08-12T08:24:53.284Z</time>
      </trkpt>
      <trkpt lat="51.666881" lon="7.374958">
        <ele>48.987254</ele>
        <time>2025-08-12T08:24:55.810Z</time>
      </trkpt>
      <trkpt lat="51.667019" lon="7.374723">
        <ele>49.124923</ele>
        <time>2025-08-12T08:24:59.737Z</time>
      </trkpt>
      <trkpt lat="51.667484" lon="7.373940">
        <ele>49.586082</ele>
        <time>2025-08-12T08:25:09.466Z</time>
      </trkpt>
      <trkpt lat="51.667587" lon="7.373755">
        <ele>49.691837</ele>
        <time>2025-08-12T08:25:11.493Z</time>
      </trkpt>
      <trkpt lat="51.667760" lon="7.373675">
        <ele>49.815278</ele>
        <time>2025-08-12T08:25:13.710Z</time>
      </trkpt>
      <trkpt lat="51.667987" lon="7.373641">
        <ele>49.822374</ele>
        <time>2025-08-12T08:25:16.329Z</time>
      </trkpt>
      <trkpt lat="51.668317" lon="7.373539">
        <ele>49.819419</ele>
        <time>2025-08-12T08:25:20.172Z</time>
      </trkpt>
      <trkpt lat="51.668578" lon="7.373311">
        <ele>49.816809</ele>
        <time>2025-08-12T08:25:23.756Z</time>
      </trkpt>
      <trkpt lat="51.669034" lon="7.372814">
        <ele>49.811970</ele>
        <time>2025-08-12T08:25:30.062Z</time>
      </trkpt>
      <trkpt lat="51.669140" lon="7.372643">
        <ele>49.810651</ele>
        <time>2025-08-12T08:25:31.794Z</time>
      </trkpt>
      <trkpt lat="51.669189" lon="7.372499">
        <ele>49.809756</ele>
        <time>2025-08-12T08:25:33.001Z</time>
      </trkpt>
      <trkpt lat="51.669205" lon="7.372443">
        <ele>49.809419</ele>
        <time>2025-08-12T08:25:33.446Z</time>
      </trkpt>
      <trkpt lat="51.669229" lon="7.372357">
        <ele>49.808905</ele>
        <time>2025-08-12T08:25:34.147Z</time>
      </trkpt>
      <trkpt lat="51.669313" lon="7.372043">
        <ele>49.720601</ele>
        <time>2025-08-12T08:25:36.651Z</time>
      </trkpt>
      <trkpt lat="51.669406" lon="7.371711">
        <ele>49.596650</ele>
        <time>2025-08-12T08:25:40.278Z</time>
      </trkpt>
      <trkpt lat="51.669495" lon="7.371499">
        <ele>49.509545</ele>
        <time>2025-08-12T08:25:42.125Z</time>
      </trkpt>
      <trkpt lat="51.669549" lon="7.371460">
        <ele>49.477084</ele>
        <time>2025-08-12T08:25:42.814Z</time>
      </trkpt>
      <trkpt lat="51.669664" lon="7.371475">
        <ele>49.413787</ele>
        <time>2025-08-12T08:25:44.141Z</time>
      </trkpt>
      <trkpt lat="51.669869" lon="7.371597">
        <ele>49.293905</ele>
        <time>2025-08-12T08:25:46.566Z</time>
      </trkpt>
      <trkpt lat="51.670876" lon="7.372343">
        <ele>48.596245</ele>
        <time>2025-08-12T08:25:57.377Z</time>
      </trkpt>
      <trkpt lat="51.671053" lon="7.372078">
        <ele>48.376194</ele>
        <time>2025-08-12T08:25:59.677Z</time>
      </trkpt>
      <trkpt lat="51.671424" lon="7.371266">
        <ele>47.806342</ele>
        <time>2025-08-12T08:26:05.722Z</time>
      </trkpt>
      <trkpt lat="51.671842" lon="7.370658">
        <ele>47.293475</ele>
        <time>2025-08-12T08:26:11.390Z</time>
      </trkpt>
      <trkpt lat="51.671982" lon="7.370405">
        <ele>47.179513</ele>
        <time>2025-08-12T08:26:13.616Z</time>
      </trkpt>
      <trkpt lat="51.672444" lon="7.369003">
        <ele>47.140699</ele>
        <time>2025-08-12T08:26:25.061Z</time>
      </trkpt>
      <trkpt lat="51.672635" lon="7.368546">
        <ele>47.127226</ele>
        <time>2025-08-12T08:26:29.290Z</time>
      </trkpt>
      <trkpt lat="51.672777" lon="7.368411">
        <ele>47.120727</ele>
        <time>2025-08-12T08:26:31.371Z</time>
      </trkpt>
      <trkpt lat="51.673522" lon="7.367935">
        <ele>47.150855</ele>
        <time>2025-08-12T08:26:41.774Z</time>
      </trkpt>
      <trkpt lat="51.673758" lon="7.367846">
        <ele>47.166961</ele>
        <time>2025-08-12T08:26:44.784Z</time>
      </trkpt>
      <trkpt lat="51.673756" lon="7.367686">
        <ele>47.173556</ele>
        <time>2025-08-12T08:26:45.979Z</time>
      </trkpt>
      <trkpt lat="51.673755" lon="7.367581">
        <ele>47.177883</ele>
        <time>2025-08-12T08:26:47.040Z</time>
      </trkpt>
      <trkpt lat="51.673767" lon="7.367417">
        <ele>47.184688</ele>
        <time>2025-08-12T08:26:48.687Z</time>
      </trkpt>
      <trkpt lat="51.673911" lon="7.367234">
        <ele>47.196872</ele>
        <time>2025-08-12T08:26:50.808Z</time>
      </trkpt>
      <trkpt lat="51.674839" lon="7.365713">
        <ele>47.266319</ele>
        <time>2025-08-12T08:27:05.630Z</time>
      </trkpt>
      <trkpt lat="51.675655" lon="7.363516">
        <ele>47.440270</ele>
        <time>2025-08-12T08:27:25.897Z</time>
      </trkpt>
      <trkpt lat="51.676198" lon="7.362697">
        <ele>47.605086</ele>
        <time>2025-08-12T08:27:35.177Z</time>
      </trkpt>
      <trkpt lat="51.676491" lon="7.362101">
        <ele>47.708078</ele>
        <time>2025-08-12T08:27:40.867Z</time>
      </trkpt>
      <trkpt lat="51.676860" lon="7.360890">
        <ele>47.672601</ele>
        <time>2025-08-12T08:27:51.648Z</time>
      </trkpt>
      <trkpt lat="51.677057" lon="7.359788">
        <ele>47.642447</ele>
        <time>2025-08-12T08:27:59.402Z</time>
      </trkpt>
      <trkpt lat="51.677138" lon="7.359640">
        <ele>47.637257</ele>
        <time>2025-08-12T08:28:00.725Z</time>
      </trkpt>
      <trkpt lat="51.677273" lon="7.359486">
        <ele>47.643072</ele>
        <time>2025-08-12T08:28:02.508Z</time>
      </trkpt>
      <trkpt lat="51.677490" lon="7.359361">
        <ele>47.702201</ele>
        <time>2025-08-12T08:28:05.074Z</time>
      </trkpt>
      <trkpt lat="51.677754" lon="7.359294">
        <ele>47.770779</ele>
        <time>2025-08-12T08:28:08.114Z</time>
      </trkpt>
      <trkpt lat="51.678384" lon="7.359340">
        <ele>47.932607</ele>
        <time>2025-08-12T08:28:15.651Z</time>
      </trkpt>
      <trkpt lat="51.678020" lon="7.357712">
        <ele>48.288192</ele>
        <time>2025-08-12T08:28:31.513Z</time>
      </trkpt>
      <trkpt lat="51.678055" lon="7.357448">
        <ele>48.361279</ele>
        <time>2025-08-12T08:28:34.058Z</time>
      </trkpt>
      <trkpt lat="51.678157" lon="7.357177">
        <ele>48.447103</ele>
        <time>2025-08-12T08:28:37.011Z</time>
      </trkpt>
      <trkpt lat="51.678280" lon="7.357278">
        <ele>48.507365</ele>
        <time>2025-08-12T08:28:39.017Z</time>
      </trkpt>
      <trkpt lat="51.678312" lon="7.357209">
        <ele>48.530692</ele>
        <time>2025-08-12T08:28:39.786Z</time>
      </trkpt>
      <trkpt lat="51.678349" lon="7.357110">
        <ele>48.561985</ele>
        <time>2025-08-12T08:28:40.759Z</time>
      </trkpt>
      <trkpt lat="51.678189" lon="7.356915">
        <ele>48.649545</ele>
        <time>2025-08-12T08:28:43.375Z</time>
      </trkpt>
      <trkpt lat="51.677586" lon="7.356357">
        <ele>48.773810</ele>
        <time>2025-08-12T08:28:51.169Z</time>
      </trkpt>
      <trkpt lat="51.676806" lon="7.355609">
        <ele>48.212600</ele>
        <time>2025-08-12T08:29:00.706Z</time>
      </trkpt>
      <trkpt lat="51.676529" lon="7.355406">
        <ele>48.024439</ele>
        <time>2025-08-12T08:29:03.688Z</time>
      </trkpt>
      <trkpt lat="51.676254" lon="7.355253">
        <ele>47.844537</ele>
        <time>2025-08-12T08:29:06.510Z</time>
      </trkpt>
      <trkpt lat="51.675770" lon="7.355107">
        <ele>47.788541</ele>
        <time>2025-08-12T08:29:11.404Z</time>
      </trkpt>
      <trkpt lat="51.675133" lon="7.355086">
        <ele>47.826748</ele>
        <time>2025-08-12T08:29:18.398Z</time>
      </trkpt>
      <trkpt lat="51.675016" lon="7.354915">
        <ele>47.836217</ele>
        <time>2025-08-12T08:29:20.341Z</time>
      </trkpt>
      <trkpt lat="51.674877" lon="7.354331">
        <ele>47.859479</ele>
        <time>2025-08-12T08:29:25.660Z</time>
      </trkpt>
      <trkpt lat="51.674663" lon="7.353740">
        <ele>48.054989</ele>
        <time>2025-08-12T08:29:32.340Z</time>
      </trkpt>
      <trkpt lat="51.674427" lon="7.353340">
        <ele>48.408187</ele>
        <time>2025-08-12T08:29:38.092Z</time>
      </trkpt>
      <trkpt lat="51.674249" lon="7.353139">
        <ele>48.632354</ele>
        <time>2025-08-12T08:29:41.765Z</time>
      </trkpt>
      <trkpt lat="51.674076" lon="7.353051">
        <ele>48.819488</ele>
        <time>2025-08-12T08:29:44.801Z</time>
      </trkpt>
      <trkpt lat="51.674066" lon="7.353036">
        <ele>48.833577</ele>
        <time>2025-08-12T08:29:45.034Z</time>
      </trkpt>
      <trkpt lat="51.674321" lon="7.352708">
        <ele>49.170068</ele>
        <time>2025-08-12T08:29:51.725Z</time>
      </trkpt>
      <trkpt lat="51.675239" lon="7.351675">
        <ele>49.608983</ele>
        <time>2025-08-12T08:30:11.343Z</time>
      </trkpt>
      <trkpt lat="51.675405" lon="7.351398">
        <ele>49.558903</ele>
        <time>2025-08-12T08:30:14.885Z</time>
      </trkpt>
      <trkpt lat="51.675999" lon="7.349965">
        <ele>49.309307</ele>
        <time>2025-08-12T08:30:30.462Z</time>
      </trkpt>
      <trkpt lat="51.676615" lon="7.348836">
        <ele>48.836667</ele>
        <time>2025-08-12T08:30:44.451Z</time>
      </trkpt>
      <trkpt lat="51.676965" lon="7.348195">
        <ele>48.568236</ele>
        <time>2025-08-12T08:30:52.424Z</time>
      </trkpt>
      <trkpt lat="51.677091" lon="7.347974">
        <ele>48.473881</ele>
        <time>2025-08-12T08:30:55.140Z</time>
      </trkpt>
      <trkpt lat="51.677218" lon="7.347448">
        <ele>48.372487</ele>
        <time>2025-08-12T08:31:00.249Z</time>
      </trkpt>
      <trkpt lat="51.677543" lon="7.346388">
        <ele>48.196063</ele>
        <time>2025-08-12T08:31:11.135Z</time>
      </trkpt>
      <trkpt lat="51.677889" lon="7.344764">
        <ele>48.052616</ele>
        <time>2025-08-12T08:31:28.474Z</time>
      </trkpt>
      <trkpt lat="51.677984" lon="7.344007">
        <ele>48.126912</ele>
        <time>2025-08-12T08:31:37.049Z</time>
      </trkpt>
      <trkpt lat="51.678543" lon="7.342162">
        <ele>48.214679</ele>
        <time>2025-08-12T08:31:58.022Z</time>
      </trkpt>
      <trkpt lat="51.678607" lon="7.341742">
        <ele>48.132859</ele>
        <time>2025-08-12T08:32:02.101Z</time>
      </trkpt>
      <trkpt lat="51.678880" lon="7.341489">
        <ele>48.036795</ele>
        <time>2025-08-12T08:32:06.865Z</time>
      </trkpt>
      <trkpt lat="51.679562" lon="7.340012">
        <ele>47.657737</ele>
        <time>2025-08-12T08:32:24.019Z</time>
      </trkpt>
      <trkpt lat="51.679851" lon="7.339461">
        <ele>47.437896</ele>
        <time>2025-08-12T08:32:30.720Z</time>
      </trkpt>
      <trkpt lat="51.680197" lon="7.338960">
        <ele>47.209458</ele>
        <time>2025-08-12T08:32:37.597Z</time>
      </trkpt>
      <trkpt lat="51.680486" lon="7.338548">
        <ele>47.019962</ele>
        <time>2025-08-12T08:32:43.253Z</time>
      </trkpt>
      <trkpt lat="51.681389" lon="7.336982">
        <ele>46.626941</ele>
        <time>2025-08-12T08:33:02.953Z</time>
      </trkpt>
      <trkpt lat="51.682750" lon="7.334527">
        <ele>46.788233</ele>
        <time>2025-08-12T08:33:36.435Z</time>
      </trkpt>
      <trkpt lat="51.683794" lon="7.332046">
        <ele>47.853630</ele>
        <time>2025-08-12T08:34:10.905Z</time>
      </trkpt>
      <trkpt lat="51.684115" lon="7.331828">
        <ele>48.097553</ele>
        <time>2025-08-12T08:34:17.514Z</time>
      </trkpt>
      <trkpt lat="51.684221" lon="7.331687">
        <ele>48.193778</ele>
        <time>2025-08-12T08:34:20.102Z</time>
      </trkpt>
      <trkpt lat="51.684354" lon="7.331438">
        <ele>48.188419</ele>
        <time>2025-08-12T08:34:23.822Z</time>
      </trkpt>
      <trkpt lat="51.684219" lon="7.331209">
        <ele>48.168643</ele>
        <time>2025-08-12T08:34:27.232Z</time>
      </trkpt>
      <trkpt lat="51.683747" lon="7.330540">
        <ele>48.105214</ele>
        <time>2025-08-12T08:34:37.239Z</time>
      </trkpt>
      <trkpt lat="51.683736" lon="7.330523">
        <ele>48.103676</ele>
        <time>2025-08-12T08:34:37.472Z</time>
      </trkpt>
      <trkpt lat="51.683530" lon="7.330222">
        <ele>48.075617</ele>
        <time>2025-08-12T08:34:41.431Z</time>
      </trkpt>
      <trkpt lat="51.683064" lon="7.329541">
        <ele>48.085118</ele>
        <time>2025-08-12T08:34:50.723Z</time>
      </trkpt>
      <trkpt lat="51.682828" lon="7.329242">
        <ele>48.220189</ele>
        <time>2025-08-12T08:34:55.256Z</time>
      </trkpt>
      <trkpt lat="51.682763" lon="7.329077">
        <ele>48.274741</ele>
        <time>2025-08-12T08:34:57.143Z</time>
      </trkpt>
      <trkpt lat="51.682723" lon="7.328767">
        <ele>48.363102</ele>
        <time>2025-08-12T08:35:00.346Z</time>
      </trkpt>
      <trkpt lat="51.682002" lon="7.328857">
        <ele>48.688579</ele>
        <time>2025-08-12T08:35:10.595Z</time>
      </trkpt>
      <trkpt lat="51.681658" lon="7.328853">
        <ele>48.858323</ele>
        <time>2025-08-12T08:35:16.201Z</time>
      </trkpt>
      <trkpt lat="51.680463" lon="7.328693">
        <ele>50.359665</ele>
        <time>2025-08-12T08:35:35.930Z</time>
      </trkpt>
      <trkpt lat="51.679303" lon="7.328476">
        <ele>51.643247</ele>
        <time>2025-08-12T08:35:53.824Z</time>
      </trkpt>
      <trkpt lat="51.679123" lon="7.328444">
        <ele>51.814889</ele>
        <time>2025-08-12T08:35:56.479Z</time>
      </trkpt>
      <trkpt lat="51.678852" lon="7.327649">
        <ele>52.348073</ele>
        <time>2025-08-12T08:36:04.747Z</time>
      </trkpt>
      <trkpt lat="51.677753" lon="7.324471">
        <ele>54.091156</ele>
        <time>2025-08-12T08:36:37.595Z</time>
      </trkpt>
      <trkpt lat="51.677631" lon="7.324041">
        <ele>53.960795</ele>
        <time>2025-08-12T08:36:41.208Z</time>
      </trkpt>
      <trkpt lat="51.677546" lon="7.323609">
        <ele>53.823648</ele>
        <time>2025-08-12T08:36:44.405Z</time>
      </trkpt>
      <trkpt lat="51.677466" lon="7.323003">
        <ele>53.636161</ele>
        <time>2025-08-12T08:36:48.398Z</time>
      </trkpt>
      <trkpt lat="51.677497" lon="7.322252">
        <ele>53.408403</ele>
        <time>2025-08-12T08:36:52.981Z</time>
      </trkpt>
      <trkpt lat="51.677602" lon="7.321773">
        <ele>53.254666</ele>
        <time>2025-08-12T08:36:56.085Z</time>
      </trkpt>
      <trkpt lat="51.677731" lon="7.321315">
        <ele>53.011288</ele>
        <time>2025-08-12T08:36:59.148Z</time>
      </trkpt>
      <trkpt lat="51.677789" lon="7.320941">
        <ele>52.804953</ele>
        <time>2025-08-12T08:37:01.457Z</time>
      </trkpt>
      <trkpt lat="51.677842" lon="7.319902">
        <ele>52.246988</ele>
        <time>2025-08-12T08:37:07.784Z</time>
      </trkpt>
      <trkpt lat="51.677856" lon="7.319273">
        <ele>51.910122</ele>
        <time>2025-08-12T08:37:11.735Z</time>
      </trkpt>
      <trkpt lat="51.677923" lon="7.319159">
        <ele>51.826057</ele>
        <time>2025-08-12T08:37:12.731Z</time>
      </trkpt>
      <trkpt lat="51.677945" lon="7.319121">
        <ele>51.798232</ele>
        <time>2025-08-12T08:37:13.067Z</time>
      </trkpt>
      <trkpt lat="51.678260" lon="7.318959">
        <ele>51.625981</ele>
        <time>2025-08-12T08:37:16.468Z</time>
      </trkpt>
      <trkpt lat="51.679022" lon="7.318625">
        <ele>51.439576</ele>
        <time>2025-08-12T08:37:24.967Z</time>
      </trkpt>
      <trkpt lat="51.680843" lon="7.317694">
        <ele>51.399699</ele>
        <time>2025-08-12T08:37:47.934Z</time>
      </trkpt>
      <trkpt lat="51.680968" lon="7.317600">
        <ele>51.419553</ele>
        <time>2025-08-12T08:37:49.618Z</time>
      </trkpt>
      <trkpt lat="51.681054" lon="7.317487">
        <ele>51.435522</ele>
        <time>2025-08-12T08:37:50.999Z</time>
      </trkpt>
      <trkpt lat="51.681105" lon="7.317177">
        <ele>51.464150</ele>
        <time>2025-08-12T08:37:53.622Z</time>
      </trkpt>
      <trkpt lat="51.681061" lon="7.316214">
        <ele>51.702447</ele>
        <time>2025-08-12T08:38:01.362Z</time>
      </trkpt>
      <trkpt lat="51.681042" lon="7.315404">
        <ele>52.006813</ele>
        <time>2025-08-12T08:38:08.032Z</time>
      </trkpt>
      <trkpt lat="51.681011" lon="7.314670">
        <ele>52.283062</ele>
        <time>2025-08-12T08:38:14.459Z</time>
      </trkpt>
      <trkpt lat="51.680979" lon="7.314401">
        <ele>52.385912</ele>
        <time>2025-08-12T08:38:16.948Z</time>
      </trkpt>
      <trkpt lat="51.680839" lon="7.313620">
        <ele>52.875912</ele>
        <time>2025-08-12T08:38:24.177Z</time>
      </trkpt>
      <trkpt lat="51.680805" lon="7.313274">
        <ele>53.252839</ele>
        <time>2025-08-12T08:38:27.288Z</time>
      </trkpt>
      <trkpt lat="51.680758" lon="7.312152">
        <ele>54.462816</ele>
        <time>2025-08-12T08:38:38.890Z</time>
      </trkpt>
      <trkpt lat="51.680728" lon="7.311941">
        <ele>54.695736</ele>
        <time>2025-08-12T08:38:41.488Z</time>
      </trkpt>
      <trkpt lat="51.680587" lon="7.311577">
        <ele>55.157533</ele>
        <time>2025-08-12T08:38:46.917Z</time>
      </trkpt>
      <trkpt lat="51.680495" lon="7.311461">
        <ele>55.360179</ele>
        <time>2025-08-12T08:38:49.303Z</time>
      </trkpt>
      <trkpt lat="51.679812" lon="7.310600">
        <ele>56.830984</ele>
        <time>2025-08-12T08:39:06.649Z</time>
      </trkpt>
      <trkpt lat="51.679755" lon="7.310515">
        <ele>56.961778</ele>
        <time>2025-08-12T08:39:08.138Z</time>
      </trkpt>
      <trkpt lat="51.679146" lon="7.307541">
        <ele>59.774728</ele>
        <time>2025-08-12T08:39:37.808Z</time>
      </trkpt>
      <trkpt lat="51.678967" lon="7.306573">
        <ele>60.504956</ele>
        <time>2025-08-12T08:39:47.201Z</time>
      </trkpt>
      <trkpt lat="51.678230" lon="7.302293">
        <ele>65.025973</ele>
        <time>2025-08-12T08:40:34.367Z</time>
      </trkpt>
      <trkpt lat="51.678151" lon="7.301814">
        <ele>65.629924</ele>
        <time>2025-08-12T08:40:39.853Z</time>
      </trkpt>
      <trkpt lat="51.677789" lon="7.300730">
        <ele>67.130151</ele>
        <time>2025-08-12T08:40:54.504Z</time>
      </trkpt>
      <trkpt lat="51.677642" lon="7.300355">
        <ele>67.660597</ele>
        <time>2025-08-12T08:40:59.756Z</time>
      </trkpt>
      <trkpt lat="51.677503" lon="7.299895">
        <ele>68.269153</ele>
        <time>2025-08-12T08:41:05.817Z</time>
      </trkpt>
      <trkpt lat="51.677361" lon="7.298967">
        <ele>69.405894</ele>
        <time>2025-08-12T08:41:16.952Z</time>
      </trkpt>
      <trkpt lat="51.676810" lon="7.295069">
        <ele>73.154541</ele>
        <time>2025-08-12T08:41:58.110Z</time>
      </trkpt>
      <trkpt lat="51.676685" lon="7.294107">
        <ele>73.143488</ele>
        <time>2025-08-12T08:42:06.214Z</time>
      </trkpt>
      <trkpt lat="51.676680" lon="7.293886">
        <ele>73.141001</ele>
        <time>2025-08-12T08:42:07.861Z</time>
      </trkpt>
      <trkpt lat="51.675828" lon="7.293455">
        <ele>73.124806</ele>
        <time>2025-08-12T08:42:21.304Z</time>
      </trkpt>
      <trkpt lat="51.675572" lon="7.293326">
        <ele>73.079913</ele>
        <time>2025-08-12T08:42:25.053Z</time>
      </trkpt>
      <trkpt lat="51.675342" lon="7.293210">
        <ele>72.992391</ele>
        <time>2025-08-12T08:42:28.421Z</time>
      </trkpt>
      <trkpt lat="51.674452" lon="7.292737">
        <ele>72.652056</ele>
        <time>2025-08-12T08:42:42.285Z</time>
      </trkpt>
      <trkpt lat="51.674283" lon="7.293022">
        <ele>72.563245</ele>
        <time>2025-08-12T08:42:46.178Z</time>
      </trkpt>
      <trkpt lat="51.674053" lon="7.293326">
        <ele>72.460730</ele>
        <time>2025-08-12T08:42:51.122Z</time>
      </trkpt>
      <trkpt lat="51.673867" lon="7.293484">
        <ele>72.415276</ele>
        <time>2025-08-12T08:42:54.754Z</time>
      </trkpt>
      <trkpt lat="51.672941" lon="7.294148">
        <ele>72.196162</ele>
        <time>2025-08-12T08:43:11.821Z</time>
      </trkpt>
      <trkpt lat="51.672738" lon="7.294327">
        <ele>72.146138</ele>
        <time>2025-08-12T08:43:15.317Z</time>
      </trkpt>
      <trkpt lat="51.672477" lon="7.294684">
        <ele>72.031766</ele>
        <time>2025-08-12T08:43:20.161Z</time>
      </trkpt>
      <trkpt lat="51.671459" lon="7.296390">
        <ele>70.067648</ele>
        <time>2025-08-12T08:43:39.023Z</time>
      </trkpt>
      <trkpt lat="51.670552" lon="7.297989">
        <ele>69.946742</ele>
        <time>2025-08-12T08:43:59.017Z</time>
      </trkpt>
      <trkpt lat="51.669714" lon="7.299412">
        <ele>70.243870</ele>
        <time>2025-08-12T08:44:25.102Z</time>
      </trkpt>
      <trkpt lat="51.667170" lon="7.303786">
        <ele>69.814454</ele>
        <time>2025-08-12T08:45:21.420Z</time>
      </trkpt>
      <trkpt lat="51.667034" lon="7.304089">
        <ele>69.787734</ele>
        <time>2025-08-12T08:45:24.620Z</time>
      </trkpt>
      <trkpt lat="51.666928" lon="7.304416">
        <ele>69.761375</ele>
        <time>2025-08-12T08:45:27.948Z</time>
      </trkpt>
      <trkpt lat="51.666859" lon="7.304321">
        <ele>69.750924</ele>
        <time>2025-08-12T08:45:28.953Z</time>
      </trkpt>
      <trkpt lat="51.666738" lon="7.304039">
        <ele>69.726427</ele>
        <time>2025-08-12T08:45:31.442Z</time>
      </trkpt>
      <trkpt lat="51.666568" lon="7.303492">
        <ele>69.682719</ele>
        <time>2025-08-12T08:45:36.565Z</time>
      </trkpt>
      <trkpt lat="51.666172" lon="7.301949">
        <ele>70.648836</ele>
        <time>2025-08-12T08:45:52.900Z</time>
      </trkpt>
      <trkpt lat="51.665601" lon="7.299725">
        <ele>72.310164</ele>
        <time>2025-08-12T08:46:14.940Z</time>
      </trkpt>
      <trkpt lat="51.665211" lon="7.298203">
        <ele>73.586062</ele>
        <time>2025-08-12T08:46:31.062Z</time>
      </trkpt>
      <trkpt lat="51.664979" lon="7.297716">
        <ele>74.163108</ele>
        <time>2025-08-12T08:46:38.247Z</time>
      </trkpt>
      <trkpt lat="51.664567" lon="7.297143">
        <ele>75.048156</ele>
        <time>2025-08-12T08:46:48.617Z</time>
      </trkpt>
      <trkpt lat="51.664349" lon="7.296913">
        <ele>75.471931</ele>
        <time>2025-08-12T08:46:53.491Z</time>
      </trkpt>
      <trkpt lat="51.663995" lon="7.296714">
        <ele>76.081743</ele>
        <time>2025-08-12T08:46:59.980Z</time>
      </trkpt>
      <trkpt lat="51.663493" lon="7.296515">
        <ele>76.657326</ele>
        <time>2025-08-12T08:47:07.511Z</time>
      </trkpt>
      <trkpt lat="51.663287" lon="7.296480">
        <ele>76.663575</ele>
        <time>2025-08-12T08:47:10.086Z</time>
      </trkpt>
      <trkpt lat="51.662624" lon="7.296455">
        <ele>76.683579</ele>
        <time>2025-08-12T08:47:17.448Z</time>
      </trkpt>
      <trkpt lat="51.662011" lon="7.296480">
        <ele>76.702076</ele>
        <time>2025-08-12T08:47:24.182Z</time>
      </trkpt>
      <trkpt lat="51.661769" lon="7.296447">
        <ele>76.700209</ele>
        <time>2025-08-12T08:47:26.958Z</time>
      </trkpt>
      <trkpt lat="51.661360" lon="7.296323">
        <ele>76.672025</ele>
        <time>2025-08-12T08:47:31.816Z</time>
      </trkpt>
      <trkpt lat="51.660334" lon="7.295909">
        <ele>76.600399</ele>
        <time>2025-08-12T08:47:44.982Z</time>
      </trkpt>
      <trkpt lat="51.659854" lon="7.295746">
        <ele>76.262438</ele>
        <time>2025-08-12T08:47:50.449Z</time>
      </trkpt>
      <trkpt lat="51.659715" lon="7.295741">
        <ele>76.089829</ele>
        <time>2025-08-12T08:47:51.900Z</time>
      </trkpt>
      <trkpt lat="51.657894" lon="7.295876">
        <ele>73.709183</ele>
        <time>2025-08-12T08:48:08.500Z</time>
      </trkpt>
      <trkpt lat="51.657588" lon="7.295836">
        <ele>73.242745</ele>
        <time>2025-08-12T08:48:11.249Z</time>
      </trkpt>
      <trkpt lat="51.657307" lon="7.295717">
        <ele>72.801329</ele>
        <time>2025-08-12T08:48:13.869Z</time>
      </trkpt>
      <trkpt lat="51.657134" lon="7.296070">
        <ele>72.377319</ele>
        <time>2025-08-12T08:48:16.413Z</time>
      </trkpt>
      <trkpt lat="51.655739" lon="7.298233">
        <ele>69.816689</ele>
        <time>2025-08-12T08:48:34.902Z</time>
      </trkpt>
      <trkpt lat="51.655376" lon="7.298809">
        <ele>69.116721</ele>
        <time>2025-08-12T08:48:39.727Z</time>
      </trkpt>
      <trkpt lat="51.655018" lon="7.299275">
        <ele>68.349176</ele>
        <time>2025-08-12T08:48:43.962Z</time>
      </trkpt>
      <trkpt lat="51.654662" lon="7.299459">
        <ele>67.725584</ele>
        <time>2025-08-12T08:48:47.317Z</time>
      </trkpt>
      <trkpt lat="51.653625" lon="7.299748">
        <ele>66.038144</ele>
        <time>2025-08-12T08:48:56.624Z</time>
      </trkpt>
      <trkpt lat="51.653507" lon="7.299750">
        <ele>65.875425</ele>
        <time>2025-08-12T08:48:57.681Z</time>
      </trkpt>
      <trkpt lat="51.653072" lon="7.299757">
        <ele>65.275574</ele>
        <time>2025-08-12T08:49:01.631Z</time>
      </trkpt>
      <trkpt lat="51.651290" lon="7.299724">
        <ele>63.550383</ele>
        <time>2025-08-12T08:49:18.957Z</time>
      </trkpt>
      <trkpt lat="51.650525" lon="7.299722">
        <ele>63.221494</ele>
        <time>2025-08-12T08:49:27.312Z</time>
      </trkpt>
      <trkpt lat="51.649268" lon="7.299371">
        <ele>63.844850</ele>
        <time>2025-08-12T08:49:45.392Z</time>
      </trkpt>
      <trkpt lat="51.648763" lon="7.299218">
        <ele>64.217982</ele>
        <time>2025-08-12T08:49:53.475Z</time>
      </trkpt>
      <trkpt lat="51.648250" lon="7.299260">
        <ele>64.195707</ele>
        <time>2025-08-12T08:50:01.064Z</time>
      </trkpt>
      <trkpt lat="51.648094" lon="7.299283">
        <ele>64.054101</ele>
        <time>2025-08-12T08:50:03.257Z</time>
      </trkpt>
      <trkpt lat="51.647057" lon="7.299447">
        <ele>63.112191</ele>
        <time>2025-08-12T08:50:13.392Z</time>
      </trkpt>
      <trkpt lat="51.646523" lon="7.299542">
        <ele>62.460895</ele>
        <time>2025-08-12T08:50:17.930Z</time>
      </trkpt>
      <trkpt lat="51.646135" lon="7.299929">
        <ele>61.627827</ele>
        <time>2025-08-12T08:50:21.759Z</time>
      </trkpt>
      <trkpt lat="51.645905" lon="7.300063">
        <ele>61.181319</ele>
        <time>2025-08-12T08:50:23.806Z</time>
      </trkpt>
      <trkpt lat="51.645351" lon="7.297685">
        <ele>58.808481</ele>
        <time>2025-08-12T08:50:38.798Z</time>
      </trkpt>
      <trkpt lat="51.645176" lon="7.297060">
        <ele>58.358025</ele>
        <time>2025-08-12T08:50:43.355Z</time>
      </trkpt>
      <trkpt lat="51.644874" lon="7.296216">
        <ele>57.717982</ele>
        <time>2025-08-12T08:50:49.264Z</time>
      </trkpt>
      <trkpt lat="51.644647" lon="7.295769">
        <ele>57.308492</ele>
        <time>2025-08-12T08:50:52.619Z</time>
      </trkpt>
      <trkpt lat="51.644465" lon="7.295460">
        <ele>56.996589</ele>
        <time>2025-08-12T08:50:54.941Z</time>
      </trkpt>
      <trkpt lat="51.644392" lon="7.295570">
        <ele>56.878678</ele>
        <time>2025-08-12T08:50:55.790Z</time>
      </trkpt>
      <trkpt lat="51.644149" lon="7.295966">
        <ele>56.470946</ele>
        <time>2025-08-12T08:50:58.797Z</time>
      </trkpt>
      <trkpt lat="51.644044" lon="7.296272">
        <ele>56.214947</ele>
        <time>2025-08-12T08:51:00.737Z</time>
      </trkpt>
      <trkpt lat="51.644028" lon="7.296334">
        <ele>56.165787</ele>
        <time>2025-08-12T08:51:01.280Z</time>
      </trkpt>
      <trkpt lat="51.643867" lon="7.296209">
        <ele>55.954942</ele>
        <time>2025-08-12T08:51:02.955Z</time>
      </trkpt>
      <trkpt lat="51.643580" lon="7.296021">
        <ele>55.589433</ele>
        <time>2025-08-12T08:51:06.114Z</time>
      </trkpt>
      <trkpt lat="51.642412" lon="7.295458">
        <ele>56.591866</ele>
        <time>2025-08-12T08:51:24.554Z</time>
      </trkpt>
      <trkpt lat="51.642016" lon="7.295370">
        <ele>56.987135</ele>
        <time>2025-08-12T08:51:31.171Z</time>
      </trkpt>
      <trkpt lat="51.641801" lon="7.295355">
        <ele>57.199925</ele>
        <time>2025-08-12T08:51:34.650Z</time>
      </trkpt>
      <trkpt lat="51.641729" lon="7.295394">
        <ele>57.281893</ele>
        <time>2025-08-12T08:51:35.908Z</time>
      </trkpt>
      <trkpt lat="51.641682" lon="7.295507">
        <ele>57.397953</ele>
        <time>2025-08-12T08:51:37.272Z</time>
      </trkpt>
      <trkpt lat="51.641720" lon="7.295983">
        <ele>57.807413</ele>
        <time>2025-08-12T08:51:42.173Z</time>
      </trkpt>
      <trkpt lat="51.641713" lon="7.296110">
        <ele>57.916193</ele>
        <time>2025-08-12T08:51:43.493Z</time>
      </trkpt>
      <trkpt lat="51.641683" lon="7.296201">
        <ele>58.004107</ele>
        <time>2025-08-12T08:51:44.538Z</time>
      </trkpt>
      <trkpt lat="51.641599" lon="7.296331">
        <ele>58.164227</ele>
        <time>2025-08-12T08:51:46.501Z</time>
      </trkpt>
      <trkpt lat="51.641568" lon="7.296363">
        <ele>58.214841</ele>
        <time>2025-08-12T08:51:47.097Z</time>
      </trkpt>
      <trkpt lat="51.641447" lon="7.296490">
        <ele>58.413370</ele>
        <time>2025-08-12T08:51:49.521Z</time>
      </trkpt>
      <trkpt lat="51.640544" lon="7.297126">
        <ele>59.764152</ele>
        <time>2025-08-12T08:52:05.135Z</time>
      </trkpt>
      <trkpt lat="51.640299" lon="7.297347">
        <ele>60.108643</ele>
        <time>2025-08-12T08:52:09.917Z</time>
      </trkpt>
      <trkpt lat="51.640547" lon="7.298462">
        <ele>61.010507</ele>
        <time>2025-08-12T08:52:25.642Z</time>
      </trkpt>
      <trkpt lat="51.640611" lon="7.298873">
        <ele>61.333151</ele>
        <time>2025-08-12T08:52:31.119Z</time>
      </trkpt>
      <trkpt lat="51.640798" lon="7.300079">
        <ele>61.641946</ele>
        <time>2025-08-12T08:52:45.609Z</time>
      </trkpt>
      <trkpt lat="51.640875" lon="7.300708">
        <ele>61.221445</ele>
        <time>2025-08-12T08:52:51.892Z</time>
      </trkpt>
      <trkpt lat="51.641197" lon="7.303693">
        <ele>58.860380</ele>
        <time>2025-08-12T08:53:15.511Z</time>
      </trkpt>
      <trkpt lat="51.641378" lon="7.304827">
        <ele>57.734297</ele>
        <time>2025-08-12T08:53:25.058Z</time>
      </trkpt>
      <trkpt lat="51.641907" lon="7.309199">
        <ele>55.777643</ele>
        <time>2025-08-12T08:54:04.821Z</time>
      </trkpt>
      <trkpt lat="51.641933" lon="7.309547">
        <ele>55.744665</ele>
        <time>2025-08-12T08:54:08.147Z</time>
      </trkpt>
      <trkpt lat="51.641914" lon="7.309906">
        <ele>55.710765</ele>
        <time>2025-08-12T08:54:11.706Z</time>
      </trkpt>
      <trkpt lat="51.641811" lon="7.310319">
        <ele>55.668886</ele>
        <time>2025-08-12T08:54:16.332Z</time>
      </trkpt>
      <trkpt lat="51.641611" lon="7.310708">
        <ele>55.621357</ele>
        <time>2025-08-12T08:54:21.908Z</time>
      </trkpt>
      <trkpt lat="51.641481" lon="7.310574">
        <ele>55.628540</ele>
        <time>2025-08-12T08:54:24.735Z</time>
      </trkpt>
      <trkpt lat="51.640505" lon="7.310113">
        <ele>56.275842</ele>
        <time>2025-08-12T08:54:42.987Z</time>
      </trkpt>
      <trkpt lat="51.639928" lon="7.309873">
        <ele>56.655105</ele>
        <time>2025-08-12T08:54:53.901Z</time>
      </trkpt>
      <trkpt lat="51.639376" lon="7.309692">
        <ele>57.319551</ele>
        <time>2025-08-12T08:55:04.514Z</time>
      </trkpt>
      <trkpt lat="51.639300" lon="7.309682">
        <ele>57.424098</ele>
        <time>2025-08-12T08:55:05.986Z</time>
      </trkpt>
      <trkpt lat="51.638832" lon="7.309672">
        <ele>58.065805</ele>
        <time>2025-08-12T08:55:15.404Z</time>
      </trkpt>
      <trkpt lat="51.638365" lon="7.309691">
        <ele>58.706289</ele>
        <time>2025-08-12T08:55:25.426Z</time>
      </trkpt>
      <trkpt lat="51.637497" lon="7.309358">
        <ele>60.106426</ele>
        <time>2025-08-12T08:55:45.389Z</time>
      </trkpt>
      <trkpt lat="51.636425" lon="7.308946">
        <ele>61.991036</ele>
        <time>2025-08-12T08:56:09.221Z</time>
      </trkpt>
      <trkpt lat="51.636382" lon="7.308928">
        <ele>62.067010</ele>
        <time>2025-08-12T08:56:10.165Z</time>
      </trkpt>
      <trkpt lat="51.636003" lon="7.308766">
        <ele>62.686127</ele>
        <time>2025-08-12T08:56:18.374Z</time>
      </trkpt>
      <trkpt lat="51.635746" lon="7.308646">
        <ele>63.091085</ele>
        <time>2025-08-12T08:56:23.916Z</time>
      </trkpt>
      <trkpt lat="51.635028" lon="7.308359">
        <ele>64.210676</ele>
        <time>2025-08-12T08:56:39.072Z</time>
      </trkpt>
      <trkpt lat="51.634477" lon="7.308183">
        <ele>65.083427</ele>
        <time>2025-08-12T08:56:50.974Z</time>
      </trkpt>
      <trkpt lat="51.634221" lon="7.308188">
        <ele>65.652345</ele>
        <time>2025-08-12T08:56:56.618Z</time>
      </trkpt>
      <trkpt lat="51.633629" lon="7.308354">
        <ele>66.987649</ele>
        <time>2025-08-12T08:57:10.506Z</time>
      </trkpt>
      <trkpt lat="51.633204" lon="7.308417">
        <ele>67.936062</ele>
        <time>2025-08-12T08:57:20.881Z</time>
      </trkpt>
      <trkpt lat="51.632840" lon="7.308341">
        <ele>68.751698</ele>
        <time>2025-08-12T08:57:29.948Z</time>
      </trkpt>
      <trkpt lat="51.632045" lon="7.308053">
        <ele>70.276471</ele>
        <time>2025-08-12T08:57:49.325Z</time>
      </trkpt>
      <trkpt lat="51.631867" lon="7.308028">
        <ele>70.600407</ele>
        <time>2025-08-12T08:57:53.409Z</time>
      </trkpt>
      <trkpt lat="51.631587" lon="7.308053">
        <ele>71.108824</ele>
        <time>2025-08-12T08:57:59.564Z</time>
      </trkpt>
      <trkpt lat="51.631104" lon="7.308146">
        <ele>71.990732</ele>
        <time>2025-08-12T08:58:09.495Z</time>
      </trkpt>
      <trkpt lat="51.630780" lon="7.308264">
        <ele>72.366337</ele>
        <time>2025-08-12T08:58:15.760Z</time>
      </trkpt>
      <trkpt lat="51.630723" lon="7.308319">
        <ele>72.402179</ele>
        <time>2025-08-12T08:58:16.967Z</time>
      </trkpt>
      <trkpt lat="51.630746" lon="7.309233">
        <ele>72.708481</ele>
        <time>2025-08-12T08:58:27.098Z</time>
      </trkpt>
      <trkpt lat="51.630629" lon="7.309238">
        <ele>72.771618</ele>
        <time>2025-08-12T08:58:29.160Z</time>
      </trkpt>
      <trkpt lat="51.629743" lon="7.309509">
        <ele>73.256251</ele>
        <time>2025-08-12T08:58:44.813Z</time>
      </trkpt>
      <trkpt lat="51.629687" lon="7.309352">
        <ele>73.310462</ele>
        <time>2025-08-12T08:58:46.781Z</time>
      </trkpt>
      <trkpt lat="51.629107" lon="7.308802">
        <ele>73.635067</ele>
        <time>2025-08-12T08:58:58.307Z</time>
      </trkpt>
      <trkpt lat="51.628939" lon="7.308314">
        <ele>73.802136</ele>
        <time>2025-08-12T08:59:04.612Z</time>
      </trkpt>
      <trkpt lat="51.628749" lon="7.308296">
        <ele>73.893933</ele>
        <time>2025-08-12T08:59:08.122Z</time>
      </trkpt>
      <trkpt lat="51.628641" lon="7.308221">
        <ele>73.950656</ele>
        <time>2025-08-12T08:59:10.304Z</time>
      </trkpt>
      <trkpt lat="51.628563" lon="7.307856">
        <ele>74.066229</ele>
        <time>2025-08-12T08:59:14.642Z</time>
      </trkpt>
      <trkpt lat="51.628459" lon="7.306916">
        <ele>74.482986</ele>
        <time>2025-08-12T08:59:25.047Z</time>
      </trkpt>
      <trkpt lat="51.628372" lon="7.306777">
        <ele>74.573788</ele>
        <time>2025-08-12T08:59:27.218Z</time>
      </trkpt>
      <trkpt lat="51.628423" lon="7.306485">
        <ele>74.713327</ele>
        <time>2025-08-12T08:59:29.856Z</time>
      </trkpt>
      <trkpt lat="51.628433" lon="7.306109">
        <ele>74.886449</ele>
        <time>2025-08-12T08:59:33.257Z</time>
      </trkpt>
      <trkpt lat="51.628327" lon="7.305354">
        <ele>75.242530</ele>
        <time>2025-08-12T08:59:40.402Z</time>
      </trkpt>
      <trkpt lat="51.628156" lon="7.304314">
        <ele>75.686513</ele>
        <time>2025-08-12T08:59:50.252Z</time>
      </trkpt>
      <trkpt lat="51.628116" lon="7.303911">
        <ele>75.842001</ele>
        <time>2025-08-12T08:59:54.218Z</time>
      </trkpt>
      <trkpt lat="51.628031" lon="7.303579">
        <ele>75.978824</ele>
        <time>2025-08-12T08:59:57.660Z</time>
      </trkpt>
      <trkpt lat="51.627947" lon="7.303470">
        <ele>76.045024</ele>
        <time>2025-08-12T08:59:59.293Z</time>
      </trkpt>
      <trkpt lat="51.628139" lon="7.302913">
        <ele>76.287756</ele>
        <time>2025-08-12T09:00:04.802Z</time>
      </trkpt>
      <trkpt lat="51.628292" lon="7.302459">
        <ele>76.484569</ele>
        <time>2025-08-12T09:00:08.769Z</time>
      </trkpt>
      <trkpt lat="51.628403" lon="7.302126">
        <ele>76.440096</ele>
        <time>2025-08-12T09:00:11.368Z</time>
      </trkpt>
      <trkpt lat="51.628331" lon="7.302059">
        <ele>76.376191</ele>
        <time>2025-08-12T09:00:12.265Z</time>
      </trkpt>
      <trkpt lat="51.628292" lon="7.301907">
        <ele>76.297723</ele>
        <time>2025-08-12T09:00:13.314Z</time>
      </trkpt>
      <trkpt lat="51.628295" lon="7.301737">
        <ele>76.216585</ele>
        <time>2025-08-12T09:00:14.396Z</time>
      </trkpt>
      <trkpt lat="51.628337" lon="7.301650">
        <ele>76.164004</ele>
        <time>2025-08-12T09:00:15.083Z</time>
      </trkpt>
      <trkpt lat="51.627640" lon="7.300617">
        <ele>75.436100</ele>
        <time>2025-08-12T09:00:24.059Z</time>
      </trkpt>
      <trkpt lat="51.627420" lon="7.300215">
        <ele>75.180418</ele>
        <time>2025-08-12T09:00:27.350Z</time>
      </trkpt>
      <trkpt lat="51.627293" lon="7.299913">
        <ele>75.159101</ele>
        <time>2025-08-12T09:00:29.705Z</time>
      </trkpt>
      <trkpt lat="51.626308" lon="7.297512">
        <ele>75.145823</ele>
        <time>2025-08-12T09:00:52.069Z</time>
      </trkpt>
      <trkpt lat="51.625063" lon="7.294469">
        <ele>75.025310</ele>
        <time>2025-08-12T09:01:19.203Z</time>
      </trkpt>
      <trkpt lat="51.624300" lon="7.292600">
        <ele>74.423515</ele>
        <time>2025-08-12T09:01:33.680Z</time>
      </trkpt>
      <trkpt lat="51.623339" lon="7.290256">
        <ele>73.019351</ele>
        <time>2025-08-12T09:01:51.264Z</time>
      </trkpt>
      <trkpt lat="51.621602" lon="7.286005">
        <ele>69.897845</ele>
        <time>2025-08-12T09:02:21.918Z</time>
      </trkpt>
      <trkpt lat="51.621355" lon="7.285193">
        <ele>69.601536</ele>
        <time>2025-08-12T09:02:27.840Z</time>
      </trkpt>
      <trkpt lat="51.621173" lon="7.284502">
        <ele>69.510281</ele>
        <time>2025-08-12T09:02:33.064Z</time>
      </trkpt>
      <trkpt lat="51.620660" lon="7.282560">
        <ele>69.380915</ele>
        <time>2025-08-12T09:02:48.577Z</time>
      </trkpt>
      <trkpt lat="51.620626" lon="7.282423">
        <ele>69.402957</ele>
        <time>2025-08-12T09:02:49.645Z</time>
      </trkpt>
      <trkpt lat="51.620072" lon="7.280396">
        <ele>69.733832</ele>
        <time>2025-08-12T09:03:06.491Z</time>
      </trkpt>
      <trkpt lat="51.619750" lon="7.279708">
        <ele>70.477174</ele>
        <time>2025-08-12T09:03:14.472Z</time>
      </trkpt>
      <trkpt lat="51.619790" lon="7.279678">
        <ele>70.542643</ele>
        <time>2025-08-12T09:03:15.151Z</time>
      </trkpt>
      <trkpt lat="51.618997" lon="7.278183">
        <ele>72.354074</ele>
        <time>2025-08-12T09:03:36.845Z</time>
      </trkpt>
      <trkpt lat="51.617241" lon="7.274081">
        <ele>77.615350</ele>
        <time>2025-08-12T09:04:33.071Z</time>
      </trkpt>
      <trkpt lat="51.617091" lon="7.273672">
        <ele>78.012621</ele>
        <time>2025-08-12T09:04:37.063Z</time>
      </trkpt>
      <trkpt lat="51.616933" lon="7.273114">
        <ele>78.272682</ele>
        <time>2025-08-12T09:04:41.629Z</time>
      </trkpt>
      <trkpt lat="51.616412" lon="7.271009">
        <ele>77.488709</ele>
        <time>2025-08-12T09:04:55.947Z</time>
      </trkpt>
      <trkpt lat="51.616198" lon="7.270159">
        <ele>77.161879</ele>
        <time>2025-08-12T09:05:01.747Z</time>
      </trkpt>
      <trkpt lat="51.615687" lon="7.268507">
        <ele>76.488289</ele>
        <time>2025-08-12T09:05:13.710Z</time>
      </trkpt>
      <trkpt lat="51.614886" lon="7.265863">
        <ele>75.633704</ele>
        <time>2025-08-12T09:05:32.760Z</time>
      </trkpt>
      <trkpt lat="51.614844" lon="7.265895">
        <ele>75.613251</ele>
        <time>2025-08-12T09:05:33.284Z</time>
      </trkpt>
      <trkpt lat="51.614619" lon="7.265100">
        <ele>75.673120</ele>
        <time>2025-08-12T09:05:39.795Z</time>
      </trkpt>
      <trkpt lat="51.614443" lon="7.264540">
        <ele>75.924620</ele>
        <time>2025-08-12T09:05:44.905Z</time>
      </trkpt>
      <trkpt lat="51.614169" lon="7.263802">
        <ele>76.269171</ele>
        <time>2025-08-12T09:05:52.579Z</time>
      </trkpt>
      <trkpt lat="51.614101" lon="7.263641">
        <ele>76.347195</ele>
        <time>2025-08-12T09:05:54.432Z</time>
      </trkpt>
      <trkpt lat="51.613735" lon="7.262783">
        <ele>76.870572</ele>
        <time>2025-08-12T09:06:04.682Z</time>
      </trkpt>
      <trkpt lat="51.613287" lon="7.261945">
        <ele>77.749357</ele>
        <time>2025-08-12T09:06:14.830Z</time>
      </trkpt>
      <trkpt lat="51.612843" lon="7.261084">
        <ele>78.638800</ele>
        <time>2025-08-12T09:06:25.813Z</time>
      </trkpt>
      <trkpt lat="51.612721" lon="7.260787">
        <ele>78.921805</ele>
        <time>2025-08-12T09:06:29.623Z</time>
      </trkpt>
      <trkpt lat="51.612670" lon="7.260661">
        <ele>79.110682</ele>
        <time>2025-08-12T09:06:31.284Z</time>
      </trkpt>
      <trkpt lat="51.612710" lon="7.260553">
        <ele>79.293967</ele>
        <time>2025-08-12T09:06:32.699Z</time>
      </trkpt>
      <trkpt lat="51.612685" lon="7.260435">
        <ele>79.475688</ele>
        <time>2025-08-12T09:06:34.106Z</time>
      </trkpt>
      <trkpt lat="51.612752" lon="7.260342">
        <ele>79.683304</ele>
        <time>2025-08-12T09:06:36.133Z</time>
      </trkpt>
      <trkpt lat="51.612963" lon="7.260015">
        <ele>80.370636</ele>
        <time>2025-08-12T09:06:42.898Z</time>
      </trkpt>
      <trkpt lat="51.613668" lon="7.259413">
        <ele>82.243608</ele>
        <time>2025-08-12T09:07:02.139Z</time>
      </trkpt>
      <trkpt lat="51.613780" lon="7.259321">
        <ele>82.538712</ele>
        <time>2025-08-12T09:07:05.311Z</time>
      </trkpt>
      <trkpt lat="51.614451" lon="7.258742">
        <ele>84.687024</ele>
        <time>2025-08-12T09:07:24.505Z</time>
      </trkpt>
      <trkpt lat="51.614931" lon="7.258223">
        <ele>86.472282</ele>
        <time>2025-08-12T09:07:39.631Z</time>
      </trkpt>
      <trkpt lat="51.616000" lon="7.256958">
        <ele>89.441356</ele>
        <time>2025-08-12T09:08:15.290Z</time>
      </trkpt>
      <trkpt lat="51.616656" lon="7.256184">
        <ele>90.409709</ele>
        <time>2025-08-12T09:08:32.105Z</time>
      </trkpt>
      <trkpt lat="51.616781" lon="7.256068">
        <ele>90.581499</ele>
        <time>2025-08-12T09:08:34.326Z</time>
      </trkpt>
      <trkpt lat="51.616975" lon="7.255969">
        <ele>90.823830</ele>
        <time>2025-08-12T09:08:37.207Z</time>
      </trkpt>
      <trkpt lat="51.619202" lon="7.255405">
        <ele>84.626781</ele>
        <time>2025-08-12T09:09:03.356Z</time>
      </trkpt>
      <trkpt lat="51.619546" lon="7.255267">
        <ele>83.731887</ele>
        <time>2025-08-12T09:09:07.534Z</time>
      </trkpt>
      <trkpt lat="51.619857" lon="7.255029">
        <ele>82.862714</ele>
        <time>2025-08-12T09:09:11.720Z</time>
      </trkpt>
      <trkpt lat="51.620199" lon="7.254621">
        <ele>81.788372</ele>
        <time>2025-08-12T09:09:17.044Z</time>
      </trkpt>
      <trkpt lat="51.620306" lon="7.254465">
        <ele>81.424047</ele>
        <time>2025-08-12T09:09:18.896Z</time>
      </trkpt>
      <trkpt lat="51.620671" lon="7.254013">
        <ele>80.716953</ele>
        <time>2025-08-12T09:09:24.987Z</time>
      </trkpt>
      <trkpt lat="51.621531" lon="7.252828">
        <ele>79.362948</ele>
        <time>2025-08-12T09:09:40.262Z</time>
      </trkpt>
      <trkpt lat="51.621595" lon="7.252719">
        <ele>79.251515</ele>
        <time>2025-08-12T09:09:41.546Z</time>
      </trkpt>
      <trkpt lat="51.622063" lon="7.251954">
        <ele>79.122480</ele>
        <time>2025-08-12T09:09:51.283Z</time>
      </trkpt>
      <trkpt lat="51.622311" lon="7.251655">
        <ele>79.227216</ele>
        <time>2025-08-12T09:09:56.337Z</time>
      </trkpt>
      <trkpt lat="51.622754" lon="7.251328">
        <ele>79.391972</ele>
        <time>2025-08-12T09:10:05.005Z</time>
      </trkpt>
      <trkpt lat="51.623439" lon="7.251015">
        <ele>79.881571</ele>
        <time>2025-08-12T09:10:18.841Z</time>
      </trkpt>
      <trkpt lat="51.623966" lon="7.250834">
        <ele>80.980699</ele>
        <time>2025-08-12T09:10:30.507Z</time>
      </trkpt>
      <trkpt lat="51.624401" lon="7.250681">
        <ele>81.888910</ele>
        <time>2025-08-12T09:10:40.900Z</time>
      </trkpt>
      <trkpt lat="51.624547" lon="7.250583">
        <ele>82.211540</ele>
        <time>2025-08-12T09:10:44.763Z</time>
      </trkpt>
      <trkpt lat="51.624727" lon="7.250377">
        <ele>82.661934</ele>
        <time>2025-08-12T09:10:50.237Z</time>
      </trkpt>
      <trkpt lat="51.625455" lon="7.249380">
        <ele>84.590302</ele>
        <time>2025-08-12T09:11:13.736Z</time>
      </trkpt>
      <trkpt lat="51.625735" lon="7.248999">
        <ele>85.326529</ele>
        <time>2025-08-12T09:11:22.228Z</time>
      </trkpt>
      <trkpt lat="51.625776" lon="7.248944">
        <ele>85.433701</ele>
        <time>2025-08-12T09:11:23.417Z</time>
      </trkpt>
      <trkpt lat="51.626117" lon="7.248555">
        <ele>86.273012</ele>
        <time>2025-08-12T09:11:32.380Z</time>
      </trkpt>
      <trkpt lat="51.627476" lon="7.247116">
        <ele>88.349477</ele>
        <time>2025-08-12T09:12:04.427Z</time>
      </trkpt>
      <trkpt lat="51.627957" lon="7.246717">
        <ele>88.919741</ele>
        <time>2025-08-12T09:12:15.009Z</time>
      </trkpt>
      <trkpt lat="51.628372" lon="7.246451">
        <ele>89.219148</ele>
        <time>2025-08-12T09:12:23.554Z</time>
      </trkpt>
      <trkpt lat="51.628732" lon="7.246090">
        <ele>89.503409</ele>
        <time>2025-08-12T09:12:29.601Z</time>
      </trkpt>
      <trkpt lat="51.629283" lon="7.245518">
        <ele>89.942820</ele>
        <time>2025-08-12T09:12:38.166Z</time>
      </trkpt>
      <trkpt lat="51.630110" lon="7.244724">
        <ele>90.156274</ele>
        <time>2025-08-12T09:12:51.040Z</time>
      </trkpt>
      <trkpt lat="51.630723" lon="7.244114">
        <ele>90.232091</ele>
        <time>2025-08-12T09:13:00.211Z</time>
      </trkpt>
      <trkpt lat="51.630942" lon="7.243958">
        <ele>90.257288</ele>
        <time>2025-08-12T09:13:02.982Z</time>
      </trkpt>
      <trkpt lat="51.633668" lon="7.242795">
        <ele>87.449215</ele>
        <time>2025-08-12T09:13:29.938Z</time>
      </trkpt>
      <trkpt lat="51.634915" lon="7.242263">
        <ele>86.290564</ele>
        <time>2025-08-12T09:13:42.929Z</time>
      </trkpt>
      <trkpt lat="51.635523" lon="7.242004">
        <ele>85.865585</ele>
        <time>2025-08-12T09:13:49.418Z</time>
      </trkpt>
      <trkpt lat="51.636128" lon="7.241750">
        <ele>85.443099</ele>
        <time>2025-08-12T09:13:55.852Z</time>
      </trkpt>
      <trkpt lat="51.636298" lon="7.241602">
        <ele>85.342885</ele>
        <time>2025-08-12T09:13:57.867Z</time>
      </trkpt>
      <trkpt lat="51.636727" lon="7.240976">
        <ele>85.153909</ele>
        <time>2025-08-12T09:14:04.040Z</time>
      </trkpt>
      <trkpt lat="51.637948" lon="7.239224">
        <ele>84.422711</ele>
        <time>2025-08-12T09:14:22.603Z</time>
      </trkpt>
      <trkpt lat="51.638035" lon="7.239148">
        <ele>84.351495</ele>
        <time>2025-08-12T09:14:23.690Z</time>
      </trkpt>
      <trkpt lat="51.638206" lon="7.239078">
        <ele>84.224531</ele>
        <time>2025-08-12T09:14:25.592Z</time>
      </trkpt>
      <trkpt lat="51.640938" lon="7.238456">
        <ele>81.362016</ele>
        <time>2025-08-12T09:14:52.178Z</time>
      </trkpt>
      <trkpt lat="51.641289" lon="7.238377">
        <ele>80.774178</ele>
        <time>2025-08-12T09:14:55.297Z</time>
      </trkpt>
      <trkpt lat="51.641363" lon="7.238360">
        <ele>80.643487</ele>
        <time>2025-08-12T09:14:55.959Z</time>
      </trkpt>
      <trkpt lat="51.641858" lon="7.238260">
        <ele>79.771249</ele>
        <time>2025-08-12T09:15:00.353Z</time>
      </trkpt>
      <trkpt lat="51.642663" lon="7.238088">
        <ele>78.351460</ele>
        <time>2025-08-12T09:15:07.502Z</time>
      </trkpt>
      <trkpt lat="51.642250" lon="7.235781">
        <ele>77.145752</ele>
        <time>2025-08-12T09:15:21.973Z</time>
      </trkpt>
      <trkpt lat="51.642196" lon="7.235480">
        <ele>77.004302</ele>
        <time>2025-08-12T09:15:24.192Z</time>
      </trkpt>
      <trkpt lat="51.642062" lon="7.235250">
        <ele>76.861880</ele>
        <time>2025-08-12T09:15:26.594Z</time>
      </trkpt>
      <trkpt lat="51.641388" lon="7.234872">
        <ele>77.502104</ele>
        <time>2025-08-12T09:15:36.732Z</time>
      </trkpt>
      <trkpt lat="51.640898" lon="7.234660">
        <ele>78.003165</ele>
        <time>2025-08-12T09:15:45.284Z</time>
      </trkpt>
      <trkpt lat="51.640526" lon="7.234233">
        <ele>78.454233</ele>
        <time>2025-08-12T09:15:53.148Z</time>
      </trkpt>
      <trkpt lat="51.640106" lon="7.233885">
        <ele>78.631620</ele>
        <time>2025-08-12T09:16:00.347Z</time>
      </trkpt>
      <trkpt lat="51.639903" lon="7.233070">
        <ele>78.667754</ele>
        <time>2025-08-12T09:16:07.167Z</time>
      </trkpt>
      <trkpt lat="51.640974" lon="7.232444">
        <ele>78.642228</ele>
        <time>2025-08-12T09:16:23.963Z</time>
      </trkpt>
      <trkpt lat="51.641529" lon="7.232201">
        <ele>78.388820</ele>
        <time>2025-08-12T09:16:32.699Z</time>
      </trkpt>
      <trkpt lat="51.642059" lon="7.232001">
        <ele>78.148976</ele>
        <time>2025-08-12T09:16:41.085Z</time>
      </trkpt>
      <trkpt lat="51.642269" lon="7.232519">
        <ele>77.979793</ele>
        <time>2025-08-12T09:16:45.240Z</time>
      </trkpt>
      <trkpt lat="51.642412" lon="7.232767">
        <ele>77.818677</ele>
        <time>2025-08-12T09:16:47.464Z</time>
      </trkpt>
      <trkpt lat="51.642515" lon="7.232882">
        <ele>77.688272</ele>
        <time>2025-08-12T09:16:48.738Z</time>
      </trkpt>
      <trkpt lat="51.642721" lon="7.233051">
        <ele>77.447708</ele>
        <time>2025-08-12T09:16:50.961Z</time>
      </trkpt>
      <trkpt lat="51.642995" lon="7.233163">
        <ele>77.153531</ele>
        <time>2025-08-12T09:16:53.545Z</time>
      </trkpt>
      <trkpt lat="51.643184" lon="7.233170">
        <ele>76.956790</ele>
        <time>2025-08-12T09:16:55.263Z</time>
      </trkpt>
      <trkpt lat="51.643366" lon="7.233135">
        <ele>76.766042</ele>
        <time>2025-08-12T09:16:56.942Z</time>
      </trkpt>
      <trkpt lat="51.644028" lon="7.232870">
        <ele>76.068074</ele>
        <time>2025-08-12T09:17:03.496Z</time>
      </trkpt>
      <trkpt lat="51.644416" lon="7.232786">
        <ele>76.167090</ele>
        <time>2025-08-12T09:17:07.576Z</time>
      </trkpt>
      <trkpt lat="51.644399" lon="7.232701">
        <ele>76.181106</ele>
        <time>2025-08-12T09:17:08.160Z</time>
      </trkpt>
      <trkpt lat="51.643721" lon="7.229347">
        <ele>77.388661</ele>
        <time>2025-08-12T09:17:39.014Z</time>
      </trkpt>
      <trkpt lat="51.643534" lon="7.228466">
        <ele>77.981194</ele>
        <time>2025-08-12T09:17:48.616Z</time>
      </trkpt>
      <trkpt lat="51.643450" lon="7.228200">
        <ele>78.171127</ele>
        <time>2025-08-12T09:17:51.597Z</time>
      </trkpt>
      <trkpt lat="51.643765" lon="7.227849">
        <ele>78.372319</ele>
        <time>2025-08-12T09:17:57.598Z</time>
      </trkpt>
      <trkpt lat="51.644001" lon="7.227242">
        <ele>78.388729</ele>
        <time>2025-08-12T09:18:04.278Z</time>
      </trkpt>
      <trkpt lat="51.644173" lon="7.226471">
        <ele>78.407499</ele>
        <time>2025-08-12T09:18:09.963Z</time>
      </trkpt>
      <trkpt lat="51.644239" lon="7.225842">
        <ele>78.422113</ele>
        <time>2025-08-12T09:18:14.016Z</time>
      </trkpt>
      <trkpt lat="51.644416" lon="7.225550">
        <ele>78.431465</ele>
        <time>2025-08-12T09:18:16.595Z</time>
      </trkpt>
      <trkpt lat="51.644631" lon="7.225317">
        <ele>78.153024</ele>
        <time>2025-08-12T09:18:19.162Z</time>
      </trkpt>
      <trkpt lat="51.645079" lon="7.224271">
        <ele>77.295860</ele>
        <time>2025-08-12T09:18:26.667Z</time>
      </trkpt>
      <trkpt lat="51.645271" lon="7.223823">
        <ele>76.928665</ele>
        <time>2025-08-12T09:18:29.729Z</time>
      </trkpt>
      <trkpt lat="51.645782" lon="7.222557">
        <ele>76.301043</ele>
        <time>2025-08-12T09:18:39.033Z</time>
      </trkpt>
      <trkpt lat="51.646065" lon="7.221465">
        <ele>76.053578</ele>
        <time>2025-08-12T09:18:47.977Z</time>
      </trkpt>
      <trkpt lat="51.646274" lon="7.220411">
        <ele>75.767534</ele>
        <time>2025-08-12T09:18:56.059Z</time>
      </trkpt>
      <trkpt lat="51.646439" lon="7.218790">
        <ele>75.036110</ele>
        <time>2025-08-12T09:19:10.622Z</time>
      </trkpt>
      <trkpt lat="51.646446" lon="7.218304">
        <ele>74.819653</ele>
        <time>2025-08-12T09:19:14.701Z</time>
      </trkpt>
      <trkpt lat="51.646418" lon="7.217833">
        <ele>74.608973</ele>
        <time>2025-08-12T09:19:18.741Z</time>
      </trkpt>
      <trkpt lat="51.646316" lon="7.216971">
        <ele>74.475460</ele>
        <time>2025-08-12T09:19:26.473Z</time>
      </trkpt>
      <trkpt lat="51.645826" lon="7.214024">
        <ele>74.879965</ele>
        <time>2025-08-12T09:19:57.472Z</time>
      </trkpt>
      <trkpt lat="51.645786" lon="7.213794">
        <ele>75.046569</ele>
        <time>2025-08-12T09:20:00.605Z</time>
      </trkpt>
      <trkpt lat="51.645766" lon="7.213752">
        <ele>75.083495</ele>
        <time>2025-08-12T09:20:01.337Z</time>
      </trkpt>
      <trkpt lat="51.645608" lon="7.213395">
        <ele>75.389345</ele>
        <time>2025-08-12T09:20:07.283Z</time>
      </trkpt>
      <trkpt lat="51.645586" lon="7.213224">
        <ele>75.511152</ele>
        <time>2025-08-12T09:20:09.720Z</time>
      </trkpt>
      <trkpt lat="51.645581" lon="7.212077">
        <ele>76.215329</ele>
        <time>2025-08-12T09:20:25.775Z</time>
      </trkpt>
      <trkpt lat="51.645572" lon="7.210806">
        <ele>76.069409</ele>
        <time>2025-08-12T09:20:40.515Z</time>
      </trkpt>
      <trkpt lat="51.645519" lon="7.210178">
        <ele>75.996650</ele>
        <time>2025-08-12T09:20:46.035Z</time>
      </trkpt>
      <trkpt lat="51.645276" lon="7.208711">
        <ele>75.278936</ele>
        <time>2025-08-12T09:20:58.143Z</time>
      </trkpt>
      <trkpt lat="51.645257" lon="7.208433">
        <ele>75.010346</ele>
        <time>2025-08-12T09:21:00.419Z</time>
      </trkpt>
      <trkpt lat="51.645450" lon="7.206025">
        <ele>72.846014</ele>
        <time>2025-08-12T09:21:20.279Z</time>
      </trkpt>
      <trkpt lat="51.645484" lon="7.204900">
        <ele>72.181664</ele>
        <time>2025-08-12T09:21:29.496Z</time>
      </trkpt>
      <trkpt lat="51.645479" lon="7.204792">
        <ele>72.117785</ele>
        <time>2025-08-12T09:21:30.398Z</time>
      </trkpt>
      <trkpt lat="51.645445" lon="7.204716">
        <ele>72.062522</ele>
        <time>2025-08-12T09:21:31.174Z</time>
      </trkpt>
      <trkpt lat="51.645397" lon="7.204663">
        <ele>72.007214</ele>
        <time>2025-08-12T09:21:31.979Z</time>
      </trkpt>
      <trkpt lat="51.645264" lon="7.204663">
        <ele>71.880792</ele>
        <time>2025-08-12T09:21:33.802Z</time>
      </trkpt>
      <trkpt lat="51.644401" lon="7.204828">
        <ele>71.785141</ele>
        <time>2025-08-12T09:21:47.711Z</time>
      </trkpt>
      <trkpt lat="51.643386" lon="7.205177">
        <ele>72.868714</ele>
        <time>2025-08-12T09:22:08.969Z</time>
      </trkpt>
      <trkpt lat="51.642197" lon="7.204915">
        <ele>74.560993</ele>
        <time>2025-08-12T09:22:34.784Z</time>
      </trkpt>
      <trkpt lat="51.642060" lon="7.205041">
        <ele>74.811728</ele>
        <time>2025-08-12T09:22:37.403Z</time>
      </trkpt>
      <trkpt lat="51.641797" lon="7.205032">
        <ele>75.229862</ele>
        <time>2025-08-12T09:22:41.785Z</time>
      </trkpt>
      <trkpt lat="51.641475" lon="7.205118">
        <ele>75.748666</ele>
        <time>2025-08-12T09:22:47.283Z</time>
      </trkpt>
      <trkpt lat="51.641051" lon="7.205148">
        <ele>76.414039</ele>
        <time>2025-08-12T09:22:54.379Z</time>
      </trkpt>
      <trkpt lat="51.640983" lon="7.205132">
        <ele>76.519718</ele>
        <time>2025-08-12T09:22:55.519Z</time>
      </trkpt>
      <trkpt lat="51.640926" lon="7.205066">
        <ele>76.627655</ele>
        <time>2025-08-12T09:22:56.680Z</time>
      </trkpt>
      <trkpt lat="51.640901" lon="7.204392">
        <ele>77.272025</ele>
        <time>2025-08-12T09:23:03.449Z</time>
      </trkpt>
      <trkpt lat="51.640870" lon="7.204220">
        <ele>77.442953</ele>
        <time>2025-08-12T09:23:05.360Z</time>
      </trkpt>
      <trkpt lat="51.640817" lon="7.204095">
        <ele>77.587428</ele>
        <time>2025-08-12T09:23:07.026Z</time>
      </trkpt>
      <trkpt lat="51.640751" lon="7.204022">
        <ele>77.710532</ele>
        <time>2025-08-12T09:23:08.466Z</time>
      </trkpt>
      <trkpt lat="51.640594" lon="7.204033">
        <ele>77.952193</ele>
        <time>2025-08-12T09:23:11.302Z</time>
      </trkpt>
      <trkpt lat="51.640532" lon="7.204103">
        <ele>78.068611</ele>
        <time>2025-08-12T09:23:12.667Z</time>
      </trkpt>
      <trkpt lat="51.640423" lon="7.204375">
        <ele>78.377607</ele>
        <time>2025-08-12T09:23:16.235Z</time>
      </trkpt>
      <trkpt lat="51.640358" lon="7.204437">
        <ele>78.493764</ele>
        <time>2025-08-12T09:23:17.554Z</time>
      </trkpt>
      <trkpt lat="51.640260" lon="7.204435">
        <ele>78.644479</ele>
        <time>2025-08-12T09:23:19.197Z</time>
      </trkpt>
      <trkpt lat="51.640180" lon="7.204353">
        <ele>78.790284</ele>
        <time>2025-08-12T09:23:20.793Z</time>
      </trkpt>
      <trkpt lat="51.640081" lon="7.203879">
        <ele>79.095926</ele>
        <time>2025-08-12T09:23:27.028Z</time>
      </trkpt>
      <trkpt lat="51.640158" lon="7.203792">
        <ele>79.171968</ele>
        <time>2025-08-12T09:23:28.458Z</time>
      </trkpt>
      <trkpt lat="51.640410" lon="7.203689">
        <ele>79.382183</ele>
        <time>2025-08-12T09:23:32.201Z</time>
      </trkpt>
      <trkpt lat="51.640514" lon="7.203599">
        <ele>79.477636</ele>
        <time>2025-08-12T09:23:33.843Z</time>
      </trkpt>
      <trkpt lat="51.640639" lon="7.203429">
        <ele>79.609896</ele>
        <time>2025-08-12T09:23:36.230Z</time>
      </trkpt>
      <trkpt lat="51.640723" lon="7.203266">
        <ele>79.716213</ele>
        <time>2025-08-12T09:23:38.263Z</time>
      </trkpt>
      <trkpt lat="51.640846" lon="7.202927">
        <ele>79.913263</ele>
        <time>2025-08-12T09:23:41.970Z</time>
      </trkpt>
      <trkpt lat="51.640894" lon="7.202691">
        <ele>80.037885</ele>
        <time>2025-08-12T09:23:44.077Z</time>
      </trkpt>
      <trkpt lat="51.640912" lon="7.202343">
        <ele>80.213115</ele>
        <time>2025-08-12T09:23:46.809Z</time>
      </trkpt>
      <trkpt lat="51.640898" lon="7.202148">
        <ele>80.311618</ele>
        <time>2025-08-12T09:23:48.302Z</time>
      </trkpt>
      <trkpt lat="51.640846" lon="7.201455">
        <ele>80.319790</ele>
        <time>2025-08-12T09:23:53.639Z</time>
      </trkpt>
      <trkpt lat="51.640850" lon="7.201119">
        <ele>80.297367</ele>
        <time>2025-08-12T09:23:56.213Z</time>
      </trkpt>
      <trkpt lat="51.640894" lon="7.197592">
        <ele>79.786497</ele>
        <time>2025-08-12T09:24:20.497Z</time>
      </trkpt>
      <trkpt lat="51.640948" lon="7.193318">
        <ele>78.505352</ele>
        <time>2025-08-12T09:24:48.385Z</time>
      </trkpt>
      <trkpt lat="51.640957" lon="7.192640">
        <ele>78.252971</ele>
        <time>2025-08-12T09:24:52.873Z</time>
      </trkpt>
      <trkpt lat="51.640970" lon="7.191448">
        <ele>77.809290</ele>
        <time>2025-08-12T09:25:00.825Z</time>
      </trkpt>
      <trkpt lat="51.641057" lon="7.190310">
        <ele>77.324263</ele>
        <time>2025-08-12T09:25:08.102Z</time>
      </trkpt>
      <trkpt lat="51.641575" lon="7.190289">
        <ele>76.717014</ele>
        <time>2025-08-12T09:25:13.302Z</time>
      </trkpt>
      <trkpt lat="51.641507" lon="7.188829">
        <ele>75.652209</ele>
        <time>2025-08-12T09:25:21.800Z</time>
      </trkpt>
      <trkpt lat="51.641506" lon="7.188777">
        <ele>75.614373</ele>
        <time>2025-08-12T09:25:22.092Z</time>
      </trkpt>
      <trkpt lat="51.641507" lon="7.188616">
        <ele>75.497276</ele>
        <time>2025-08-12T09:25:22.993Z</time>
      </trkpt>
      <trkpt lat="51.641502" lon="7.188493">
        <ele>75.407629</ele>
        <time>2025-08-12T09:25:23.691Z</time>
      </trkpt>
      <trkpt lat="51.641450" lon="7.187163">
        <ele>74.681321</ele>
        <time>2025-08-12T09:25:31.335Z</time>
      </trkpt>
      <trkpt lat="51.641471" lon="7.186575">
        <ele>74.368913</ele>
        <time>2025-08-12T09:25:34.962Z</time>
      </trkpt>
      <trkpt lat="51.641516" lon="7.186162">
        <ele>74.146495</ele>
        <time>2025-08-12T09:25:37.730Z</time>
      </trkpt>
      <trkpt lat="51.641654" lon="7.185374">
        <ele>73.784688</ele>
        <time>2025-08-12T09:25:43.623Z</time>
      </trkpt>
      <trkpt lat="51.641751" lon="7.184808">
        <ele>73.734996</ele>
        <time>2025-08-12T09:25:48.370Z</time>
      </trkpt>
      <trkpt lat="51.642547" lon="7.180649">
        <ele>73.222571</ele>
        <time>2025-08-12T09:26:18.795Z</time>
      </trkpt>
      <trkpt lat="51.642678" lon="7.179274">
        <ele>73.231224</ele>
        <time>2025-08-12T09:26:28.032Z</time>
      </trkpt>
      <trkpt lat="51.642685" lon="7.178888">
        <ele>73.293798</ele>
        <time>2025-08-12T09:26:30.901Z</time>
      </trkpt>
      <trkpt lat="51.642620" lon="7.178575">
        <ele>73.347281</ele>
        <time>2025-08-12T09:26:33.490Z</time>
      </trkpt>
      <trkpt lat="51.642552" lon="7.178438">
        <ele>73.375707</ele>
        <time>2025-08-12T09:26:34.951Z</time>
      </trkpt>
      <trkpt lat="51.642325" lon="7.178126">
        <ele>73.453613</ele>
        <time>2025-08-12T09:26:39.068Z</time>
      </trkpt>
      <trkpt lat="51.642255" lon="7.178045">
        <ele>73.476116</ele>
        <time>2025-08-12T09:26:40.279Z</time>
      </trkpt>
      <trkpt lat="51.641733" lon="7.177664">
        <ele>73.651371</ele>
        <time>2025-08-12T09:26:48.612Z</time>
      </trkpt>
      <trkpt lat="51.641582" lon="7.177554">
        <ele>73.724029</ele>
        <time>2025-08-12T09:26:51.040Z</time>
      </trkpt>
      <trkpt lat="51.640590" lon="7.176413">
        <ele>74.258411</ele>
        <time>2025-08-12T09:27:06.736Z</time>
      </trkpt>
      <trkpt lat="51.640409" lon="7.174765">
        <ele>75.187350</ele>
        <time>2025-08-12T09:27:20.029Z</time>
      </trkpt>
      <trkpt lat="51.640362" lon="7.174622">
        <ele>75.293223</ele>
        <time>2025-08-12T09:27:21.491Z</time>
      </trkpt>
      <trkpt lat="51.640294" lon="7.174519">
        <ele>75.391614</ele>
        <time>2025-08-12T09:27:22.858Z</time>
      </trkpt>
      <trkpt lat="51.638492" lon="7.173471">
        <ele>78.107797</ele>
        <time>2025-08-12T09:27:56.931Z</time>
      </trkpt>
      <trkpt lat="51.637677" lon="7.173192">
        <ele>79.422411</ele>
        <time>2025-08-12T09:28:11.276Z</time>
      </trkpt>
      <trkpt lat="51.636507" lon="7.172556">
        <ele>80.429047</ele>
        <time>2025-08-12T09:28:28.717Z</time>
      </trkpt>
      <trkpt lat="51.636839" lon="7.169909">
        <ele>81.487758</ele>
        <time>2025-08-12T09:28:51.944Z</time>
      </trkpt>
      <trkpt lat="51.636942" lon="7.169112">
        <ele>81.772933</ele>
        <time>2025-08-12T09:28:58.831Z</time>
      </trkpt>
      <trkpt lat="51.637077" lon="7.168103">
        <ele>81.529975</ele>
        <time>2025-08-12T09:29:06.768Z</time>
      </trkpt>
      <trkpt lat="51.637042" lon="7.167580">
        <ele>81.370317</ele>
        <time>2025-08-12T09:29:10.377Z</time>
      </trkpt>
      <trkpt lat="51.636844" lon="7.166852">
        <ele>81.129073</ele>
        <time>2025-08-12T09:29:15.390Z</time>
      </trkpt>
      <trkpt lat="51.637083" lon="7.166468">
        <ele>80.964013</ele>
        <time>2025-08-12T09:29:18.629Z</time>
      </trkpt>
      <trkpt lat="51.637273" lon="7.166254">
        <ele>80.707196</ele>
        <time>2025-08-12T09:29:20.795Z</time>
      </trkpt>
      <trkpt lat="51.638779" lon="7.165541">
        <ele>78.569430</ele>
        <time>2025-08-12T09:29:35.186Z</time>
      </trkpt>
      <trkpt lat="51.639279" lon="7.167304">
        <ele>77.477189</ele>
        <time>2025-08-12T09:29:47.255Z</time>
      </trkpt>
      <trkpt lat="51.639751" lon="7.169122">
        <ele>76.229878</ele>
        <time>2025-08-12T09:29:59.737Z</time>
      </trkpt>
      <trkpt lat="51.642052" lon="7.167547">
        <ele>72.879732</ele>
        <time>2025-08-12T09:30:22.963Z</time>
      </trkpt>
      <trkpt lat="51.642234" lon="7.167459">
        <ele>72.595629</ele>
        <time>2025-08-12T09:30:24.676Z</time>
      </trkpt>
      <trkpt lat="51.642624" lon="7.167334">
        <ele>72.017568</ele>
        <time>2025-08-12T09:30:28.263Z</time>
      </trkpt>
      <trkpt lat="51.642879" lon="7.167183">
        <ele>71.695693</ele>
        <time>2025-08-12T09:30:30.714Z</time>
      </trkpt>
      <trkpt lat="51.642955" lon="7.167065">
        <ele>71.570654</ele>
        <time>2025-08-12T09:30:31.683Z</time>
      </trkpt>
      <trkpt lat="51.643125" lon="7.166961">
        <ele>71.355213</ele>
        <time>2025-08-12T09:30:33.377Z</time>
      </trkpt>
      <trkpt lat="51.643374" lon="7.166902">
        <ele>71.057027</ele>
        <time>2025-08-12T09:30:35.749Z</time>
      </trkpt>
      <trkpt lat="51.643439" lon="7.166849">
        <ele>70.970718</ele>
        <time>2025-08-12T09:30:36.428Z</time>
      </trkpt>
      <trkpt lat="51.643589" lon="7.166610">
        <ele>70.720795</ele>
        <time>2025-08-12T09:30:38.447Z</time>
      </trkpt>
      <trkpt lat="51.643721" lon="7.166240">
        <ele>70.407011</ele>
        <time>2025-08-12T09:30:41.012Z</time>
      </trkpt>
      <trkpt lat="51.643986" lon="7.165794">
        <ele>69.953027</ele>
        <time>2025-08-12T09:30:44.900Z</time>
      </trkpt>
      <trkpt lat="51.644303" lon="7.165910">
        <ele>69.933125</ele>
        <time>2025-08-12T09:30:49.770Z</time>
      </trkpt>
      <trkpt lat="51.644629" lon="7.165957">
        <ele>69.916561</ele>
        <time>2025-08-12T09:30:54.900Z</time>
      </trkpt>
      <trkpt lat="51.644835" lon="7.165963">
        <ele>69.906135</ele>
        <time>2025-08-12T09:30:58.248Z</time>
      </trkpt>
      <trkpt lat="51.645205" lon="7.165886">
        <ele>69.887255</ele>
        <time>2025-08-12T09:31:04.285Z</time>
      </trkpt>
      <trkpt lat="51.645715" lon="7.165440">
        <ele>69.863731</ele>
        <time>2025-08-12T09:31:11.519Z</time>
      </trkpt>
      <trkpt lat="51.646177" lon="7.164943">
        <ele>70.158602</ele>
        <time>2025-08-12T09:31:18.885Z</time>
      </trkpt>
      <trkpt lat="51.646230" lon="7.164797">
        <ele>70.214319</ele>
        <time>2025-08-12T09:31:20.303Z</time>
      </trkpt>
      <trkpt lat="51.645384" lon="7.162052">
        <ele>71.437878</ele>
        <time>2025-08-12T09:31:46.903Z</time>
      </trkpt>
      <trkpt lat="51.644743" lon="7.159336">
        <ele>72.726911</ele>
        <time>2025-08-12T09:32:13.724Z</time>
      </trkpt>
      <trkpt lat="51.644547" lon="7.158502">
        <ele>73.055088</ele>
        <time>2025-08-12T09:32:21.365Z</time>
      </trkpt>
      <trkpt lat="51.644508" lon="7.158163">
        <ele>73.181964</ele>
        <time>2025-08-12T09:32:24.175Z</time>
      </trkpt>
      <trkpt lat="51.644410" lon="7.156212">
        <ele>73.549523</ele>
        <time>2025-08-12T09:32:38.114Z</time>
      </trkpt>
      <trkpt lat="51.643155" lon="7.155977">
        <ele>74.383698</ele>
        <time>2025-08-12T09:32:54.611Z</time>
      </trkpt>
      <trkpt lat="51.641992" lon="7.155647">
        <ele>76.169871</ele>
        <time>2025-08-12T09:33:16.727Z</time>
      </trkpt>
      <trkpt lat="51.640995" lon="7.155378">
        <ele>76.708668</ele>
        <time>2025-08-12T09:33:33.364Z</time>
      </trkpt>
      <trkpt lat="51.639175" lon="7.155763">
        <ele>76.539178</ele>
        <time>2025-08-12T09:33:52.039Z</time>
      </trkpt>
      <trkpt lat="51.638640" lon="7.155814">
        <ele>76.246730</ele>
        <time>2025-08-12T09:33:57.460Z</time>
      </trkpt>
      <trkpt lat="51.638224" lon="7.155734">
        <ele>76.035161</ele>
        <time>2025-08-12T09:34:01.988Z</time>
      </trkpt>
      <trkpt lat="51.637526" lon="7.155479">
        <ele>76.607045</ele>
        <time>2025-08-12T09:34:11.349Z</time>
      </trkpt>
      <trkpt lat="51.637235" lon="7.155409">
        <ele>76.842142</ele>
        <time>2025-08-12T09:34:15.944Z</time>
      </trkpt>
      <trkpt lat="51.636823" lon="7.155429">
        <ele>77.171494</ele>
        <time>2025-08-12T09:34:22.557Z</time>
      </trkpt>
      <trkpt lat="51.636315" lon="7.155566">
        <ele>77.696572</ele>
        <time>2025-08-12T09:34:30.734Z</time>
      </trkpt>
      <trkpt lat="51.635879" lon="7.155746">
        <ele>78.394068</ele>
        <time>2025-08-12T09:34:38.235Z</time>
      </trkpt>
      <trkpt lat="51.635366" lon="7.155950">
        <ele>79.212918</ele>
        <time>2025-08-12T09:34:47.120Z</time>
      </trkpt>
      <trkpt lat="51.634909" lon="7.156094">
        <ele>79.934547</ele>
        <time>2025-08-12T09:34:54.974Z</time>
      </trkpt>
      <trkpt lat="51.633739" lon="7.156460">
        <ele>81.999109</ele>
        <time>2025-08-12T09:35:16.505Z</time>
      </trkpt>
      <trkpt lat="51.632606" lon="7.156916">
        <ele>83.800051</ele>
        <time>2025-08-12T09:35:36.562Z</time>
      </trkpt>
      <trkpt lat="51.631404" lon="7.157401">
        <ele>85.072272</ele>
        <time>2025-08-12T09:35:55.405Z</time>
      </trkpt>
      <trkpt lat="51.629836" lon="7.157706">
        <ele>85.562073</ele>
        <time>2025-08-12T09:36:14.645Z</time>
      </trkpt>
      <trkpt lat="51.629258" lon="7.157915">
        <ele>85.815075</ele>
        <time>2025-08-12T09:36:21.941Z</time>
      </trkpt>
      <trkpt lat="51.628361" lon="7.158280">
        <ele>86.714699</ele>
        <time>2025-08-12T09:36:34.662Z</time>
      </trkpt>
      <trkpt lat="51.628097" lon="7.158366">
        <ele>86.976605</ele>
        <time>2025-08-12T09:36:38.828Z</time>
      </trkpt>
      <trkpt lat="51.627812" lon="7.158397">
        <ele>87.254366</ele>
        <time>2025-08-12T09:36:43.464Z</time>
      </trkpt>
      <trkpt lat="51.627537" lon="7.158378">
        <ele>87.754423</ele>
        <time>2025-08-12T09:36:48.486Z</time>
      </trkpt>
      <trkpt lat="51.627457" lon="7.158373">
        <ele>87.977489</ele>
        <time>2025-08-12T09:36:50.036Z</time>
      </trkpt>
      <trkpt lat="51.626904" lon="7.158290">
        <ele>89.524946</ele>
        <time>2025-08-12T09:37:01.587Z</time>
      </trkpt>
      <trkpt lat="51.626720" lon="7.158254">
        <ele>90.041379</ele>
        <time>2025-08-12T09:37:05.644Z</time>
      </trkpt>
      <trkpt lat="51.626566" lon="7.158223">
        <ele>90.473795</ele>
        <time>2025-08-12T09:37:09.099Z</time>
      </trkpt>
      <trkpt lat="51.626443" lon="7.158199">
        <ele>90.819006</ele>
        <time>2025-08-12T09:37:11.859Z</time>
      </trkpt>
      <trkpt lat="51.626201" lon="7.158193">
        <ele>91.493353</ele>
        <time>2025-08-12T09:37:17.244Z</time>
      </trkpt>
      <trkpt lat="51.625510" lon="7.158371">
        <ele>93.298797</ele>
        <time>2025-08-12T09:37:32.694Z</time>
      </trkpt>
      <trkpt lat="51.624977" lon="7.158594">
        <ele>94.619057</ele>
        <time>2025-08-12T09:37:43.645Z</time>
      </trkpt>
      <trkpt lat="51.623008" lon="7.159716">
        <ele>98.911208</ele>
        <time>2025-08-12T09:38:21.483Z</time>
      </trkpt>
      <trkpt lat="51.622460" lon="7.159967">
        <ele>99.940880</ele>
        <time>2025-08-12T09:38:31.238Z</time>
      </trkpt>
      <trkpt lat="51.619485" lon="7.161290">
        <ele>102.747829</ele>
        <time>2025-08-12T09:39:18.860Z</time>
      </trkpt>
      <trkpt lat="51.619039" lon="7.161470">
        <ele>102.982158</ele>
        <time>2025-08-12T09:39:23.514Z</time>
      </trkpt>
      <trkpt lat="51.618181" lon="7.161844">
        <ele>103.092857</ele>
        <time>2025-08-12T09:39:32.548Z</time>
      </trkpt>
      <trkpt lat="51.618163" lon="7.161740">
        <ele>103.099057</ele>
        <time>2025-08-12T09:39:33.338Z</time>
      </trkpt>
      <trkpt lat="51.618085" lon="7.161547">
        <ele>103.112282</ele>
        <time>2025-08-12T09:39:34.969Z</time>
      </trkpt>
      <trkpt lat="51.618001" lon="7.160984">
        <ele>103.145535</ele>
        <time>2025-08-12T09:39:39.621Z</time>
      </trkpt>
      <trkpt lat="51.617912" lon="7.160674">
        <ele>103.165149</ele>
        <time>2025-08-12T09:39:42.775Z</time>
      </trkpt>
      <trkpt lat="51.617594" lon="7.159151">
        <ele>103.551508</ele>
        <time>2025-08-12T09:39:59.084Z</time>
      </trkpt>
      <trkpt lat="51.617569" lon="7.158784">
        <ele>103.656852</ele>
        <time>2025-08-12T09:40:02.377Z</time>
      </trkpt>
      <trkpt lat="51.617330" lon="7.157691">
        <ele>103.987493</ele>
        <time>2025-08-12T09:40:10.759Z</time>
      </trkpt>
      <trkpt lat="51.617157" lon="7.157115">
        <ele>103.529353</ele>
        <time>2025-08-12T09:40:14.614Z</time>
      </trkpt>
      <trkpt lat="51.616588" lon="7.155192">
        <ele>101.706213</ele>
        <time>2025-08-12T09:40:26.558Z</time>
      </trkpt>
      <trkpt lat="51.616482" lon="7.155275">
        <ele>101.543751</ele>
        <time>2025-08-12T09:40:27.618Z</time>
      </trkpt>
      <trkpt lat="51.616425" lon="7.155031">
        <ele>101.416758</ele>
        <time>2025-08-12T09:40:29.085Z</time>
      </trkpt>
      <trkpt lat="51.616304" lon="7.154386">
        <ele>101.104029</ele>
        <time>2025-08-12T09:40:33.116Z</time>
      </trkpt>
      <trkpt lat="51.616249" lon="7.153807">
        <ele>100.832171</ele>
        <time>2025-08-12T09:40:37.072Z</time>
      </trkpt>
      <trkpt lat="51.616233" lon="7.153375">
        <ele>100.631310</ele>
        <time>2025-08-12T09:40:40.164Z</time>
      </trkpt>
      <trkpt lat="51.616207" lon="7.152432">
        <ele>100.193203</ele>
        <time>2025-08-12T09:40:46.426Z</time>
      </trkpt>
      <trkpt lat="51.616166" lon="7.152062">
        <ele>99.930310</ele>
        <time>2025-08-12T09:40:48.795Z</time>
      </trkpt>
      <trkpt lat="51.616101" lon="7.152105">
        <ele>99.850037</ele>
        <time>2025-08-12T09:40:49.511Z</time>
      </trkpt>
      <trkpt lat="51.615527" lon="7.152753">
        <ele>99.049272</ele>
        <time>2025-08-12T09:40:56.491Z</time>
      </trkpt>
      <trkpt lat="51.614413" lon="7.154098">
        <ele>96.824843</ele>
        <time>2025-08-12T09:41:09.191Z</time>
      </trkpt>
      <trkpt lat="51.614287" lon="7.154232">
        <ele>96.489814</ele>
        <time>2025-08-12T09:41:10.570Z</time>
      </trkpt>
      <trkpt lat="51.613916" lon="7.154677">
        <ele>95.463399</ele>
        <time>2025-08-12T09:41:14.657Z</time>
      </trkpt>
      <trkpt lat="51.613381" lon="7.155322">
        <ele>93.772062</ele>
        <time>2025-08-12T09:41:20.212Z</time>
      </trkpt>
      <trkpt lat="51.613237" lon="7.155481">
        <ele>92.880282</ele>
        <time>2025-08-12T09:41:21.595Z</time>
      </trkpt>
      <trkpt lat="51.613084" lon="7.155647">
        <ele>91.938002</ele>
        <time>2025-08-12T09:41:23.024Z</time>
      </trkpt>
      <trkpt lat="51.613011" lon="7.155758">
        <ele>91.425200</ele>
        <time>2025-08-12T09:41:23.798Z</time>
      </trkpt>
      <trkpt lat="51.612822" lon="7.155982">
        <ele>90.226602</ele>
        <time>2025-08-12T09:41:25.580Z</time>
      </trkpt>
      <trkpt lat="51.612472" lon="7.156329">
        <ele>88.127304</ele>
        <time>2025-08-12T09:41:28.627Z</time>
      </trkpt>
      <trkpt lat="51.611898" lon="7.156824">
        <ele>84.803379</ele>
        <time>2025-08-12T09:41:33.348Z</time>
      </trkpt>
      <trkpt lat="51.611535" lon="7.157054">
        <ele>82.834163</ele>
        <time>2025-08-12T09:41:36.192Z</time>
      </trkpt>
      <trkpt lat="51.611405" lon="7.157129">
        <ele>82.137060</ele>
        <time>2025-08-12T09:41:37.205Z</time>
      </trkpt>
      <trkpt lat="51.611365" lon="7.157153">
        <ele>81.921574</ele>
        <time>2025-08-12T09:41:37.516Z</time>
      </trkpt>
      <trkpt lat="51.611381" lon="7.156932">
        <ele>81.224080</ele>
        <time>2025-08-12T09:41:38.543Z</time>
      </trkpt>
      <trkpt lat="51.611365" lon="7.157153">
        <ele>80.526585</ele>
        <time>2025-08-12T09:41:39.575Z</time>
      </trkpt>
      <trkpt lat="51.611309" lon="7.157476">
        <ele>79.475305</ele>
        <time>2025-08-12T09:41:41.136Z</time>
      </trkpt>
      <trkpt lat="51.611200" lon="7.157912">
        <ele>78.001904</ele>
        <time>2025-08-12T09:41:43.343Z</time>
      </trkpt>
      <trkpt lat="51.610786" lon="7.159222">
        <ele>74.813234</ele>
        <time>2025-08-12T09:41:50.729Z</time>
      </trkpt>
      <trkpt lat="51.610714" lon="7.159411">
        <ele>74.515909</ele>
        <time>2025-08-12T09:41:51.914Z</time>
      </trkpt>
      <trkpt lat="51.610589" lon="7.159706">
        <ele>74.037018</ele>
        <time>2025-08-12T09:41:53.855Z</time>
      </trkpt>
      <trkpt lat="51.610403" lon="7.160043">
        <ele>73.432432</ele>
        <time>2025-08-12T09:41:56.343Z</time>
      </trkpt>
      <trkpt lat="51.610080" lon="7.160464">
        <ele>72.535125</ele>
        <time>2025-08-12T09:42:00.126Z</time>
      </trkpt>
      <trkpt lat="51.609845" lon="7.160690">
        <ele>71.951516</ele>
        <time>2025-08-12T09:42:02.747Z</time>
      </trkpt>
      <trkpt lat="51.609540" lon="7.160900">
        <ele>71.350745</ele>
        <time>2025-08-12T09:42:06.044Z</time>
      </trkpt>
      <trkpt lat="51.609261" lon="7.161016">
        <ele>70.828869</ele>
        <time>2025-08-12T09:42:08.772Z</time>
      </trkpt>
      <trkpt lat="51.608891" lon="7.161086">
        <ele>70.154143</ele>
        <time>2025-08-12T09:42:12.146Z</time>
      </trkpt>
      <trkpt lat="51.608631" lon="7.161077">
        <ele>69.683142</ele>
        <time>2025-08-12T09:42:14.420Z</time>
      </trkpt>
      <trkpt lat="51.607711" lon="7.160855">
        <ele>67.851248</ele>
        <time>2025-08-12T09:42:22.278Z</time>
      </trkpt>
      <trkpt lat="51.606632" lon="7.160594">
        <ele>65.479398</ele>
        <time>2025-08-12T09:42:31.554Z</time>
      </trkpt>
      <trkpt lat="51.606316" lon="7.160599">
        <ele>64.810477</ele>
        <time>2025-08-12T09:42:34.462Z</time>
      </trkpt>
      <trkpt lat="51.606113" lon="7.160653">
        <ele>64.629242</ele>
        <time>2025-08-12T09:42:36.425Z</time>
      </trkpt>
      <trkpt lat="51.605843" lon="7.160786">
        <ele>64.380534</ele>
        <time>2025-08-12T09:42:39.177Z</time>
      </trkpt>
      <trkpt lat="51.604643" lon="7.161693">
        <ele>63.239633</ele>
        <time>2025-08-12T09:42:52.738Z</time>
      </trkpt>
      <trkpt lat="51.604468" lon="7.161856">
        <ele>63.247938</ele>
        <time>2025-08-12T09:42:54.859Z</time>
      </trkpt>
      <trkpt lat="51.604293" lon="7.162087">
        <ele>63.257235</ele>
        <time>2025-08-12T09:42:57.372Z</time>
      </trkpt>
      <trkpt lat="51.604069" lon="7.162519">
        <ele>63.271593</ele>
        <time>2025-08-12T09:43:01.587Z</time>
      </trkpt>
      <trkpt lat="51.603854" lon="7.163255">
        <ele>63.292346</ele>
        <time>2025-08-12T09:43:07.817Z</time>
      </trkpt>
      <trkpt lat="51.603812" lon="7.163304">
        <ele>63.294476</ele>
        <time>2025-08-12T09:43:08.494Z</time>
      </trkpt>
      <trkpt lat="51.603811" lon="7.163418">
        <ele>63.297385</ele>
        <time>2025-08-12T09:43:09.418Z</time>
      </trkpt>
      <trkpt lat="51.603783" lon="7.163457">
        <ele>63.298906</ele>
        <time>2025-08-12T09:43:09.887Z</time>
      </trkpt>
      <trkpt lat="51.603749" lon="7.163517">
        <ele>63.300979</ele>
        <time>2025-08-12T09:43:10.559Z</time>
      </trkpt>
      <trkpt lat="51.603767" lon="7.163593">
        <ele>63.303054</ele>
        <time>2025-08-12T09:43:11.229Z</time>
      </trkpt>
      <trkpt lat="51.603734" lon="7.163709">
        <ele>63.306309</ele>
        <time>2025-08-12T09:43:12.280Z</time>
      </trkpt>
      <trkpt lat="51.603752" lon="7.163781">
        <ele>63.308290</ele>
        <time>2025-08-12T09:43:12.956Z</time>
      </trkpt>
      <trkpt lat="51.603725" lon="7.163848">
        <ele>63.310327</ele>
        <time>2025-08-12T09:43:13.610Z</time>
      </trkpt>
      <trkpt lat="51.603691" lon="7.163904">
        <ele>63.312326</ele>
        <time>2025-08-12T09:43:14.256Z</time>
      </trkpt>
      <trkpt lat="51.603687" lon="7.164003">
        <ele>63.352993</ele>
        <time>2025-08-12T09:43:15.142Z</time>
      </trkpt>
      <trkpt lat="51.603647" lon="7.164047">
        <ele>63.385003</ele>
        <time>2025-08-12T09:43:15.804Z</time>
      </trkpt>
      <trkpt lat="51.603074" lon="7.166218">
        <ele>64.353111</ele>
        <time>2025-08-12T09:43:35.840Z</time>
      </trkpt>
      <trkpt lat="51.602374" lon="7.168976">
        <ele>65.968442</ele>
        <time>2025-08-12T09:44:04.391Z</time>
      </trkpt>
      <trkpt lat="51.601531" lon="7.173122">
        <ele>66.512979</ele>
        <time>2025-08-12T09:44:38.804Z</time>
      </trkpt>
      <trkpt lat="51.601267" lon="7.174030">
        <ele>66.351345</ele>
        <time>2025-08-12T09:44:45.443Z</time>
      </trkpt>
      <trkpt lat="51.600947" lon="7.174351">
        <ele>66.253481</ele>
        <time>2025-08-12T09:44:49.278Z</time>
      </trkpt>
      <trkpt lat="51.600670" lon="7.174614">
        <ele>65.915436</ele>
        <time>2025-08-12T09:44:52.405Z</time>
      </trkpt>
      <trkpt lat="51.600440" lon="7.174762">
        <ele>65.610488</ele>
        <time>2025-08-12T09:44:54.785Z</time>
      </trkpt>
      <trkpt lat="51.600139" lon="7.174862">
        <ele>65.232100</ele>
        <time>2025-08-12T09:44:57.700Z</time>
      </trkpt>
      <trkpt lat="51.599786" lon="7.174874">
        <ele>64.797403</ele>
        <time>2025-08-12T09:45:00.994Z</time>
      </trkpt>
      <trkpt lat="51.599509" lon="7.174794">
        <ele>64.450926</ele>
        <time>2025-08-12T09:45:03.602Z</time>
      </trkpt>
      <trkpt lat="51.599329" lon="7.174704">
        <ele>64.218875</ele>
        <time>2025-08-12T09:45:05.343Z</time>
      </trkpt>
      <trkpt lat="51.598924" lon="7.174348">
        <ele>63.717839</ele>
        <time>2025-08-12T09:45:09.635Z</time>
      </trkpt>
      <trkpt lat="51.598709" lon="7.174043">
        <ele>63.428500</ele>
        <time>2025-08-12T09:45:12.348Z</time>
      </trkpt>
      <trkpt lat="51.598524" lon="7.173690">
        <ele>63.138833</ele>
        <time>2025-08-12T09:45:15.124Z</time>
      </trkpt>
      <trkpt lat="51.597637" lon="7.171526">
        <ele>61.296323</ele>
        <time>2025-08-12T09:45:31.555Z</time>
      </trkpt>
      <trkpt lat="51.597543" lon="7.171294">
        <ele>61.068484</ele>
        <time>2025-08-12T09:45:33.213Z</time>
      </trkpt>
      <trkpt lat="51.597407" lon="7.170968">
        <ele>60.745469</ele>
        <time>2025-08-12T09:45:35.499Z</time>
      </trkpt>
      <trkpt lat="51.597217" lon="7.170521">
        <ele>60.299945</ele>
        <time>2025-08-12T09:45:38.548Z</time>
      </trkpt>
      <trkpt lat="51.596967" lon="7.170048">
        <ele>59.765622</ele>
        <time>2025-08-12T09:45:41.923Z</time>
      </trkpt>
      <trkpt lat="51.596210" lon="7.168953">
        <ele>57.556280</ele>
        <time>2025-08-12T09:45:50.572Z</time>
      </trkpt>
      <trkpt lat="51.595819" lon="7.168492">
        <ele>56.504142</ele>
        <time>2025-08-12T09:45:54.765Z</time>
      </trkpt>
      <trkpt lat="51.595480" lon="7.168204">
        <ele>55.774759</ele>
        <time>2025-08-12T09:45:58.170Z</time>
      </trkpt>
      <trkpt lat="51.595092" lon="7.167984">
        <ele>55.250055</ele>
        <time>2025-08-12T09:46:01.924Z</time>
      </trkpt>
      <trkpt lat="51.594914" lon="7.167921">
        <ele>55.017590</ele>
        <time>2025-08-12T09:46:03.607Z</time>
      </trkpt>
      <trkpt lat="51.593804" lon="7.167775">
        <ele>53.622353</ele>
        <time>2025-08-12T09:46:14.368Z</time>
      </trkpt>
      <trkpt lat="51.593613" lon="7.167754">
        <ele>53.584937</ele>
        <time>2025-08-12T09:46:16.323Z</time>
      </trkpt>
      <trkpt lat="51.593424" lon="7.167735">
        <ele>53.547927</ele>
        <time>2025-08-12T09:46:18.297Z</time>
      </trkpt>
      <trkpt lat="51.587076" lon="7.167048">
        <ele>52.167675</ele>
        <time>2025-08-12T09:47:31.181Z</time>
      </trkpt>
      <trkpt lat="51.586705" lon="7.166980">
        <ele>52.057433</ele>
        <time>2025-08-12T09:47:34.948Z</time>
      </trkpt>
      <trkpt lat="51.585718" lon="7.166676">
        <ele>51.625607</ele>
        <time>2025-08-12T09:47:45.267Z</time>
      </trkpt>
      <trkpt lat="51.584052" lon="7.165842">
        <ele>50.505762</ele>
        <time>2025-08-12T09:48:05.179Z</time>
      </trkpt>
      <trkpt lat="51.583718" lon="7.165664">
        <ele>50.211879</ele>
        <time>2025-08-12T09:48:08.683Z</time>
      </trkpt>
      <trkpt lat="51.583559" lon="7.165579">
        <ele>50.071934</ele>
        <time>2025-08-12T09:48:10.287Z</time>
      </trkpt>
      <trkpt lat="51.583369" lon="7.165483">
        <ele>49.905592</ele>
        <time>2025-08-12T09:48:12.136Z</time>
      </trkpt>
      <trkpt lat="51.579618" lon="7.163523">
        <ele>41.704198</ele>
        <time>2025-08-12T09:48:46.136Z</time>
      </trkpt>
      <trkpt lat="51.579378" lon="7.163400">
        <ele>41.430168</ele>
        <time>2025-08-12T09:48:48.282Z</time>
      </trkpt>
      <trkpt lat="51.578946" lon="7.163170">
        <ele>40.935118</ele>
        <time>2025-08-12T09:48:52.322Z</time>
      </trkpt>
      <trkpt lat="51.578629" lon="7.163001">
        <ele>40.571804</ele>
        <time>2025-08-12T09:48:55.487Z</time>
      </trkpt>
      <trkpt lat="51.578510" lon="7.162936">
        <ele>40.435083</ele>
        <time>2025-08-12T09:48:56.737Z</time>
      </trkpt>
      <trkpt lat="51.577758" lon="7.162540">
        <ele>40.670236</ele>
        <time>2025-08-12T09:49:06.967Z</time>
      </trkpt>
      <trkpt lat="51.577470" lon="7.162434">
        <ele>41.354710</ele>
        <time>2025-08-12T09:49:12.331Z</time>
      </trkpt>
      <trkpt lat="51.577214" lon="7.162375">
        <ele>41.953867</ele>
        <time>2025-08-12T09:49:17.591Z</time>
      </trkpt>
      <trkpt lat="51.576803" lon="7.162373">
        <ele>42.906082</ele>
        <time>2025-08-12T09:49:26.364Z</time>
      </trkpt>
      <trkpt lat="51.576234" lon="7.162420">
        <ele>44.315459</ele>
        <time>2025-08-12T09:49:39.216Z</time>
      </trkpt>
      <trkpt lat="51.575608" lon="7.162513">
        <ele>46.739754</ele>
        <time>2025-08-12T09:49:54.232Z</time>
      </trkpt>
      <trkpt lat="51.575139" lon="7.162647">
        <ele>48.576637</ele>
        <time>2025-08-12T09:50:05.796Z</time>
      </trkpt>
      <trkpt lat="51.574961" lon="7.162701">
        <ele>49.275148</ele>
        <time>2025-08-12T09:50:10.141Z</time>
      </trkpt>
      <trkpt lat="51.573010" lon="7.163389">
        <ele>56.584812</ele>
        <time>2025-08-12T09:51:00.939Z</time>
      </trkpt>
      <trkpt lat="51.571902" lon="7.163779">
        <ele>57.829783</ele>
        <time>2025-08-12T09:51:19.149Z</time>
      </trkpt>
      <trkpt lat="51.571815" lon="7.164002">
        <ele>57.890078</ele>
        <time>2025-08-12T09:51:21.466Z</time>
      </trkpt>
      <trkpt lat="51.571849" lon="7.164048">
        <ele>57.906446</ele>
        <time>2025-08-12T09:51:22.067Z</time>
      </trkpt>
      <trkpt lat="51.572059" lon="7.164035">
        <ele>57.983878</ele>
        <time>2025-08-12T09:51:24.039Z</time>
      </trkpt>
      <trkpt lat="51.572094" lon="7.164048">
        <ele>57.997113</ele>
        <time>2025-08-12T09:51:24.374Z</time>
      </trkpt>
      <trkpt lat="51.572113" lon="7.164112">
        <ele>58.013356</ele>
        <time>2025-08-12T09:51:24.762Z</time>
      </trkpt>
      <trkpt lat="51.572797" lon="7.169533">
        <ele>56.162921</ele>
        <time>2025-08-12T09:52:00.021Z</time>
      </trkpt>
      <trkpt lat="51.572803" lon="7.169579">
        <ele>56.144888</ele>
        <time>2025-08-12T09:52:00.474Z</time>
      </trkpt>
      <trkpt lat="51.572912" lon="7.170416">
        <ele>55.816785</ele>
        <time>2025-08-12T09:52:08.436Z</time>
      </trkpt>
      <trkpt lat="51.572930" lon="7.170575">
        <ele>55.737207</ele>
        <time>2025-08-12T09:52:09.974Z</time>
      </trkpt>
      <trkpt lat="51.573019" lon="7.171269">
        <ele>55.368471</ele>
        <time>2025-08-12T09:52:14.681Z</time>
      </trkpt>
      <trkpt lat="51.573077" lon="7.171367">
        <ele>55.298054</ele>
        <time>2025-08-12T09:52:15.547Z</time>
      </trkpt>
      <trkpt lat="51.573047" lon="7.171562">
        <ele>55.193522</ele>
        <time>2025-08-12T09:52:16.831Z</time>
      </trkpt>
      <trkpt lat="51.572991" lon="7.171639">
        <ele>55.131848</ele>
        <time>2025-08-12T09:52:17.571Z</time>
      </trkpt>
      <trkpt lat="51.572933" lon="7.171735">
        <ele>55.062181</ele>
        <time>2025-08-12T09:52:18.396Z</time>
      </trkpt>
      <trkpt lat="51.572961" lon="7.172121">
        <ele>54.859959</ele>
        <time>2025-08-12T09:52:20.746Z</time>
      </trkpt>
      <trkpt lat="51.572941" lon="7.172391">
        <ele>54.718468</ele>
        <time>2025-08-12T09:52:22.368Z</time>
      </trkpt>
      <trkpt lat="51.572883" lon="7.172637">
        <ele>54.581559</ele>
        <time>2025-08-12T09:52:23.946Z</time>
      </trkpt>
      <trkpt lat="51.572387" lon="7.174225">
        <ele>53.385134</ele>
        <time>2025-08-12T09:52:34.548Z</time>
      </trkpt>
      <trkpt lat="51.572287" lon="7.174691">
        <ele>53.019971</ele>
        <time>2025-08-12T09:52:37.458Z</time>
      </trkpt>
      <trkpt lat="51.572231" lon="7.175140">
        <ele>52.680764</ele>
        <time>2025-08-12T09:52:40.176Z</time>
      </trkpt>
      <trkpt lat="51.572133" lon="7.176402">
        <ele>51.807158</ele>
        <time>2025-08-12T09:52:47.625Z</time>
      </trkpt>
      <trkpt lat="51.572122" lon="7.176465">
        <ele>51.766662</ele>
        <time>2025-08-12T09:52:48.021Z</time>
      </trkpt>
      <trkpt lat="51.572072" lon="7.176741">
        <ele>51.588753</ele>
        <time>2025-08-12T09:52:49.762Z</time>
      </trkpt>
      <trkpt lat="51.571986" lon="7.177058">
        <ele>51.374706</ele>
        <time>2025-08-12T09:52:51.887Z</time>
      </trkpt>
      <trkpt lat="51.571908" lon="7.177238">
        <ele>51.238913</ele>
        <time>2025-08-12T09:52:53.232Z</time>
      </trkpt>
      <trkpt lat="51.571793" lon="7.177357">
        <ele>51.102772</ele>
        <time>2025-08-12T09:52:54.588Z</time>
      </trkpt>
      <trkpt lat="51.571449" lon="7.177476">
        <ele>50.752431</ele>
        <time>2025-08-12T09:52:58.064Z</time>
      </trkpt>
      <trkpt lat="51.571300" lon="7.177563">
        <ele>50.594607</ele>
        <time>2025-08-12T09:52:59.623Z</time>
      </trkpt>
      <trkpt lat="51.571116" lon="7.177748">
        <ele>50.378571</ele>
        <time>2025-08-12T09:53:01.749Z</time>
      </trkpt>
      <trkpt lat="51.570758" lon="7.178202">
        <ele>49.966972</ele>
        <time>2025-08-12T09:53:06.431Z</time>
      </trkpt>
      <trkpt lat="51.570571" lon="7.178355">
        <ele>49.778196</ele>
        <time>2025-08-12T09:53:08.641Z</time>
      </trkpt>
      <trkpt lat="51.570460" lon="7.178408">
        <ele>49.674009</ele>
        <time>2025-08-12T09:53:09.830Z</time>
      </trkpt>
      <trkpt lat="51.570206" lon="7.178388">
        <ele>49.445180</ele>
        <time>2025-08-12T09:53:12.363Z</time>
      </trkpt>
      <trkpt lat="51.569792" lon="7.178217">
        <ele>49.060571</ele>
        <time>2025-08-12T09:53:16.477Z</time>
      </trkpt>
      <trkpt lat="51.569712" lon="7.178193">
        <ele>48.987344</ele>
        <time>2025-08-12T09:53:17.243Z</time>
      </trkpt>
      <trkpt lat="51.569562" lon="7.178038">
        <ele>48.826928</ele>
        <time>2025-08-12T09:53:18.911Z</time>
      </trkpt>
      <trkpt lat="51.569428" lon="7.178028">
        <ele>48.728157</ele>
        <time>2025-08-12T09:53:20.189Z</time>
      </trkpt>
      <trkpt lat="51.568602" lon="7.178534">
        <ele>48.378908</ele>
        <time>2025-08-12T09:53:29.047Z</time>
      </trkpt>
      <trkpt lat="51.568249" lon="7.178765">
        <ele>48.228325</ele>
        <time>2025-08-12T09:53:33.308Z</time>
      </trkpt>
      <trkpt lat="51.567687" lon="7.179120">
        <ele>48.075234</ele>
        <time>2025-08-12T09:53:41.156Z</time>
      </trkpt>
      <trkpt lat="51.567221" lon="7.179398">
        <ele>48.253084</ele>
        <time>2025-08-12T09:53:47.910Z</time>
      </trkpt>
      <trkpt lat="51.567060" lon="7.179461">
        <ele>48.312376</ele>
        <time>2025-08-12T09:53:50.197Z</time>
      </trkpt>
      <trkpt lat="51.566993" lon="7.179435">
        <ele>48.337039</ele>
        <time>2025-08-12T09:53:51.149Z</time>
      </trkpt>
      <trkpt lat="51.566446" lon="7.179792">
        <ele>48.548272</ele>
        <time>2025-08-12T09:53:58.806Z</time>
      </trkpt>
      <trkpt lat="51.566122" lon="7.179981">
        <ele>48.671599</ele>
        <time>2025-08-12T09:54:03.121Z</time>
      </trkpt>
      <trkpt lat="51.566040" lon="7.180034">
        <ele>48.708244</ele>
        <time>2025-08-12T09:54:04.177Z</time>
      </trkpt>
      <trkpt lat="51.565512" lon="7.180369">
        <ele>48.952176</ele>
        <time>2025-08-12T09:54:11.431Z</time>
      </trkpt>
      <trkpt lat="51.564776" lon="7.180861">
        <ele>49.294712</ele>
        <time>2025-08-12T09:54:22.545Z</time>
      </trkpt>
      <trkpt lat="51.564591" lon="7.181001">
        <ele>49.382578</ele>
        <time>2025-08-12T09:54:25.219Z</time>
      </trkpt>
      <trkpt lat="51.564248" lon="7.181343">
        <ele>49.479926</ele>
        <time>2025-08-12T09:54:30.384Z</time>
      </trkpt>
      <trkpt lat="51.564126" lon="7.181474">
        <ele>49.497183</ele>
        <time>2025-08-12T09:54:32.234Z</time>
      </trkpt>
      <trkpt lat="51.563380" lon="7.182310">
        <ele>49.604149</ele>
        <time>2025-08-12T09:54:43.840Z</time>
      </trkpt>
      <trkpt lat="51.563332" lon="7.182363">
        <ele>49.610998</ele>
        <time>2025-08-12T09:54:44.566Z</time>
      </trkpt>
      <trkpt lat="51.562321" lon="7.183513">
        <ele>49.064709</ele>
        <time>2025-08-12T09:54:57.965Z</time>
      </trkpt>
      <trkpt lat="51.562087" lon="7.183775">
        <ele>48.850852</ele>
        <time>2025-08-12T09:55:00.736Z</time>
      </trkpt>
      <trkpt lat="51.561933" lon="7.183962">
        <ele>48.706118</ele>
        <time>2025-08-12T09:55:02.565Z</time>
      </trkpt>
      <trkpt lat="51.561799" lon="7.184129">
        <ele>48.578967</ele>
        <time>2025-08-12T09:55:04.182Z</time>
      </trkpt>
      <trkpt lat="51.561715" lon="7.184234">
        <ele>48.499171</ele>
        <time>2025-08-12T09:55:05.672Z</time>
      </trkpt>
      <trkpt lat="51.561774" lon="7.184284">
        <ele>48.449148</ele>
        <time>2025-08-12T09:55:06.301Z</time>
      </trkpt>
      <trkpt lat="51.561707" lon="7.184349">
        <ele>48.390459</ele>
        <time>2025-08-12T09:55:07.413Z</time>
      </trkpt>
      <trkpt lat="51.561668" lon="7.184446">
        <ele>48.336591</ele>
        <time>2025-08-12T09:55:08.385Z</time>
      </trkpt>
      <trkpt lat="51.561664" lon="7.184572">
        <ele>48.286150</ele>
        <time>2025-08-12T09:55:09.508Z</time>
      </trkpt>
      <trkpt lat="51.561652" lon="7.184762">
        <ele>48.217890</ele>
        <time>2025-08-12T09:55:11.148Z</time>
      </trkpt>
      <trkpt lat="51.561637" lon="7.184986">
        <ele>48.137363</ele>
        <time>2025-08-12T09:55:13.079Z</time>
      </trkpt>
      <trkpt lat="51.561602" lon="7.185273">
        <ele>48.032827</ele>
        <time>2025-08-12T09:55:14.836Z</time>
      </trkpt>
      <trkpt lat="51.561292" lon="7.186344">
        <ele>47.610565</ele>
        <time>2025-08-12T09:55:22.660Z</time>
      </trkpt>
      <trkpt lat="51.561178" lon="7.186676">
        <ele>47.475001</ele>
        <time>2025-08-12T09:55:25.296Z</time>
      </trkpt>
      <trkpt lat="51.560740" lon="7.187449">
        <ele>47.265961</ele>
        <time>2025-08-12T09:55:32.658Z</time>
      </trkpt>
      <trkpt lat="51.560381" lon="7.188127">
        <ele>47.241662</ele>
        <time>2025-08-12T09:55:38.701Z</time>
      </trkpt>
      <trkpt lat="51.559482" lon="7.189724">
        <ele>47.177209</ele>
        <time>2025-08-12T09:55:55.374Z</time>
      </trkpt>
      <trkpt lat="51.559466" lon="7.189810">
        <ele>47.173977</ele>
        <time>2025-08-12T09:55:56.058Z</time>
      </trkpt>
      <trkpt lat="51.559470" lon="7.189900">
        <ele>47.170730</ele>
        <time>2025-08-12T09:55:56.768Z</time>
      </trkpt>
      <trkpt lat="51.559500" lon="7.189974">
        <ele>47.167550</ele>
        <time>2025-08-12T09:55:57.462Z</time>
      </trkpt>
      <trkpt lat="51.559866" lon="7.190416">
        <ele>47.141051</ele>
        <time>2025-08-12T09:56:03.087Z</time>
      </trkpt>
      <trkpt lat="51.559967" lon="7.190523">
        <ele>47.134048</ele>
        <time>2025-08-12T09:56:04.501Z</time>
      </trkpt>
      <trkpt lat="51.560103" lon="7.190650">
        <ele>47.124943</ele>
        <time>2025-08-12T09:56:06.262Z</time>
      </trkpt>
      <trkpt lat="51.560180" lon="7.190720">
        <ele>47.119822</ele>
        <time>2025-08-12T09:56:07.213Z</time>
      </trkpt>
      <trkpt lat="51.560440" lon="7.190962">
        <ele>47.102430</ele>
        <time>2025-08-12T09:56:10.387Z</time>
      </trkpt>
      <trkpt lat="51.560731" lon="7.191232">
        <ele>47.171332</ele>
        <time>2025-08-12T09:56:13.870Z</time>
      </trkpt>
      <trkpt lat="51.561440" lon="7.191895">
        <ele>47.434077</ele>
        <time>2025-08-12T09:56:23.456Z</time>
      </trkpt>
      <trkpt lat="51.561518" lon="7.192000">
        <ele>47.466663</ele>
        <time>2025-08-12T09:56:24.864Z</time>
      </trkpt>
      <trkpt lat="51.561613" lon="7.192235">
        <ele>47.522495</ele>
        <time>2025-08-12T09:56:27.426Z</time>
      </trkpt>
      <trkpt lat="51.561637" lon="7.192380">
        <ele>47.552381</ele>
        <time>2025-08-12T09:56:28.800Z</time>
      </trkpt>
      <trkpt lat="51.561703" lon="7.193263">
        <ele>47.845364</ele>
        <time>2025-08-12T09:56:37.456Z</time>
      </trkpt>
      <trkpt lat="51.561723" lon="7.193438">
        <ele>47.953132</ele>
        <time>2025-08-12T09:56:39.209Z</time>
      </trkpt>
      <trkpt lat="51.561733" lon="7.193519">
        <ele>48.003149</ele>
        <time>2025-08-12T09:56:40.029Z</time>
      </trkpt>
      <trkpt lat="51.561774" lon="7.194012">
        <ele>48.304404</ele>
        <time>2025-08-12T09:56:44.954Z</time>
      </trkpt>
      <trkpt lat="51.561807" lon="7.194388">
        <ele>48.534393</ele>
        <time>2025-08-12T09:56:48.695Z</time>
      </trkpt>
      <trkpt lat="51.561816" lon="7.194490">
        <ele>48.596790</ele>
        <time>2025-08-12T09:56:49.720Z</time>
      </trkpt>
      <trkpt lat="51.561859" lon="7.194960">
        <ele>48.884520</ele>
        <time>2025-08-12T09:56:54.248Z</time>
      </trkpt>
      <trkpt lat="51.561871" lon="7.195080">
        <ele>48.958135</ele>
        <time>2025-08-12T09:56:55.371Z</time>
      </trkpt>
      <trkpt lat="51.561952" lon="7.195868">
        <ele>49.432395</ele>
        <time>2025-08-12T09:57:02.281Z</time>
      </trkpt>
      <trkpt lat="51.561986" lon="7.196182">
        <ele>49.516317</ele>
        <time>2025-08-12T09:57:04.848Z</time>
      </trkpt>
      <trkpt lat="51.562083" lon="7.197061">
        <ele>49.751379</ele>
        <time>2025-08-12T09:57:12.196Z</time>
      </trkpt>
      <trkpt lat="51.562216" lon="7.198301">
        <ele>50.082699</ele>
        <time>2025-08-12T09:57:22.921Z</time>
      </trkpt>
      <trkpt lat="51.562235" lon="7.198476">
        <ele>50.129474</ele>
        <time>2025-08-12T09:57:24.291Z</time>
      </trkpt>
      <trkpt lat="51.562308" lon="7.199109">
        <ele>50.175540</ele>
        <time>2025-08-12T09:57:28.870Z</time>
      </trkpt>
      <trkpt lat="51.562339" lon="7.199400">
        <ele>50.167658</ele>
        <time>2025-08-12T09:57:30.923Z</time>
      </trkpt>
      <trkpt lat="51.562368" lon="7.199662">
        <ele>50.160553</ele>
        <time>2025-08-12T09:57:32.769Z</time>
      </trkpt>
      <trkpt lat="51.562430" lon="7.200168">
        <ele>50.146783</ele>
        <time>2025-08-12T09:57:36.344Z</time>
      </trkpt>
      <trkpt lat="51.562438" lon="7.200225">
        <ele>50.145223</ele>
        <time>2025-08-12T09:57:36.747Z</time>
      </trkpt>
      <trkpt lat="51.562491" lon="7.200679">
        <ele>50.132890</ele>
        <time>2025-08-12T09:57:40.114Z</time>
      </trkpt>
      <trkpt lat="51.562608" lon="7.201727">
        <ele>50.147115</ele>
        <time>2025-08-12T09:57:47.957Z</time>
      </trkpt>
      <trkpt lat="51.562656" lon="7.202298">
        <ele>50.258004</ele>
        <time>2025-08-12T09:57:52.366Z</time>
      </trkpt>
      <trkpt lat="51.562666" lon="7.202437">
        <ele>50.284933</ele>
        <time>2025-08-12T09:57:53.463Z</time>
      </trkpt>
      <trkpt lat="51.562715" lon="7.202951">
        <ele>50.385008</ele>
        <time>2025-08-12T09:57:57.633Z</time>
      </trkpt>
      <trkpt lat="51.562785" lon="7.203452">
        <ele>50.483830</ele>
        <time>2025-08-12T09:58:01.878Z</time>
      </trkpt>
      <trkpt lat="51.562832" lon="7.203663">
        <ele>50.526964</ele>
        <time>2025-08-12T09:58:03.837Z</time>
      </trkpt>
      <trkpt lat="51.562922" lon="7.203896">
        <ele>50.579756</ele>
        <time>2025-08-12T09:58:06.192Z</time>
      </trkpt>
      <trkpt lat="51.563102" lon="7.204364">
        <ele>50.708848</ele>
        <time>2025-08-12T09:58:10.730Z</time>
      </trkpt>
      <trkpt lat="51.563184" lon="7.204679">
        <ele>50.853947</ele>
        <time>2025-08-12T09:58:13.494Z</time>
      </trkpt>
      <trkpt lat="51.563192" lon="7.204725">
        <ele>50.874242</ele>
        <time>2025-08-12T09:58:13.879Z</time>
      </trkpt>
      <trkpt lat="51.563249" lon="7.205234">
        <ele>51.093987</ele>
        <time>2025-08-12T09:58:18.050Z</time>
      </trkpt>
      <trkpt lat="51.563316" lon="7.205999">
        <ele>51.422231</ele>
        <time>2025-08-12T09:58:24.703Z</time>
      </trkpt>
      <trkpt lat="51.563392" lon="7.206903">
        <ele>51.809820</ele>
        <time>2025-08-12T09:58:32.909Z</time>
      </trkpt>
      <trkpt lat="51.563426" lon="7.207309">
        <ele>52.037532</ele>
        <time>2025-08-12T09:58:36.741Z</time>
      </trkpt>
      <trkpt lat="51.563456" lon="7.207768">
        <ele>52.353070</ele>
        <time>2025-08-12T09:58:41.390Z</time>
      </trkpt>
      <trkpt lat="51.563450" lon="7.208005">
        <ele>52.515237</ele>
        <time>2025-08-12T09:58:43.818Z</time>
      </trkpt>
      <trkpt lat="51.563902" lon="7.208145">
        <ele>53.021471</ele>
        <time>2025-08-12T09:58:53.588Z</time>
      </trkpt>
      <trkpt lat="51.564186" lon="7.208302">
        <ele>53.351738</ele>
        <time>2025-08-12T09:58:59.667Z</time>
      </trkpt>
      <trkpt lat="51.564357" lon="7.208417">
        <ele>53.555575</ele>
        <time>2025-08-12T09:59:03.129Z</time>
      </trkpt>
      <trkpt lat="51.564634" lon="7.208680">
        <ele>53.874015</ele>
        <time>2025-08-12T09:59:09.125Z</time>
      </trkpt>
      <trkpt lat="51.564969" lon="7.208995">
        <ele>53.875189</ele>
        <time>2025-08-12T09:59:15.888Z</time>
      </trkpt>
      <trkpt lat="51.565237" lon="7.209247">
        <ele>53.876128</ele>
        <time>2025-08-12T09:59:20.748Z</time>
      </trkpt>
      <trkpt lat="51.565461" lon="7.209467">
        <ele>53.876922</ele>
        <time>2025-08-12T09:59:24.760Z</time>
      </trkpt>
      <trkpt lat="51.565841" lon="7.209835">
        <ele>53.878264</ele>
        <time>2025-08-12T09:59:31.490Z</time>
      </trkpt>
      <trkpt lat="51.566285" lon="7.210263">
        <ele>53.851974</ele>
        <time>2025-08-12T09:59:39.807Z</time>
      </trkpt>
      <trkpt lat="51.566392" lon="7.210365">
        <ele>53.830084</ele>
        <time>2025-08-12T09:59:41.764Z</time>
      </trkpt>
      <trkpt lat="51.567047" lon="7.211002">
        <ele>53.695379</ele>
        <time>2025-08-12T09:59:53.248Z</time>
      </trkpt>
      <trkpt lat="51.567216" lon="7.211134">
        <ele>53.662315</ele>
        <time>2025-08-12T09:59:56.316Z</time>
      </trkpt>
      <trkpt lat="51.567334" lon="7.211216">
        <ele>53.639693</ele>
        <time>2025-08-12T09:59:58.491Z</time>
      </trkpt>
      <trkpt lat="51.567532" lon="7.211354">
        <ele>53.601716</ele>
        <time>2025-08-12T10:00:02.032Z</time>
      </trkpt>
      <trkpt lat="51.567801" lon="7.211506">
        <ele>53.542990</ele>
        <time>2025-08-12T10:00:06.649Z</time>
      </trkpt>
      <trkpt lat="51.567920" lon="7.211550">
        <ele>53.505196</ele>
        <time>2025-08-12T10:00:08.600Z</time>
      </trkpt>
      <trkpt lat="51.567972" lon="7.211562">
        <ele>53.488936</ele>
        <time>2025-08-12T10:00:09.427Z</time>
      </trkpt>
      <trkpt lat="51.568320" lon="7.211644">
        <ele>53.380071</ele>
        <time>2025-08-12T10:00:14.939Z</time>
      </trkpt>
      <trkpt lat="51.568444" lon="7.211670">
        <ele>53.341365</ele>
        <time>2025-08-12T10:00:16.909Z</time>
      </trkpt>
      <trkpt lat="51.568877" lon="7.211754">
        <ele>53.206369</ele>
        <time>2025-08-12T10:00:24.068Z</time>
      </trkpt>
      <trkpt lat="51.569531" lon="7.211879">
        <ele>52.998006</ele>
        <time>2025-08-12T10:00:33.539Z</time>
      </trkpt>
      <trkpt lat="51.569530" lon="7.212085">
        <ele>52.908157</ele>
        <time>2025-08-12T10:00:34.764Z</time>
      </trkpt>
      <trkpt lat="51.569597" lon="7.212848">
        <ele>52.572075</ele>
        <time>2025-08-12T10:00:39.522Z</time>
      </trkpt>
      <trkpt lat="51.569619" lon="7.213085">
        <ele>52.467562</ele>
        <time>2025-08-12T10:00:41.049Z</time>
      </trkpt>
      <trkpt lat="51.569648" lon="7.213430">
        <ele>52.315723</ele>
        <time>2025-08-12T10:00:43.260Z</time>
      </trkpt>
      <trkpt lat="51.569676" lon="7.213757">
        <ele>52.171757</ele>
        <time>2025-08-12T10:00:45.337Z</time>
      </trkpt>
      <trkpt lat="51.569729" lon="7.214401">
        <ele>51.888429</ele>
        <time>2025-08-12T10:00:49.478Z</time>
      </trkpt>
      <trkpt lat="51.569769" lon="7.214904">
        <ele>51.663452</ele>
        <time>2025-08-12T10:00:52.825Z</time>
      </trkpt>
      <trkpt lat="51.569753" lon="7.215011">
        <ele>51.613069</ele>
        <time>2025-08-12T10:00:53.591Z</time>
      </trkpt>
      <trkpt lat="51.569688" lon="7.215343">
        <ele>51.453719</ele>
        <time>2025-08-12T10:00:55.989Z</time>
      </trkpt>
      <trkpt lat="51.569681" lon="7.215492">
        <ele>51.385312</ele>
        <time>2025-08-12T10:00:57.003Z</time>
      </trkpt>
      <trkpt lat="51.569716" lon="7.215952">
        <ele>51.173152</ele>
        <time>2025-08-12T10:01:00.012Z</time>
      </trkpt>
      <trkpt lat="51.569806" lon="7.217028">
        <ele>50.676121</ele>
        <time>2025-08-12T10:01:06.647Z</time>
      </trkpt>
      <trkpt lat="51.569839" lon="7.217408">
        <ele>50.500468</ele>
        <time>2025-08-12T10:01:09.014Z</time>
      </trkpt>
      <trkpt lat="51.569851" lon="7.217553">
        <ele>50.433501</ele>
        <time>2025-08-12T10:01:09.915Z</time>
      </trkpt>
      <trkpt lat="51.569918" lon="7.218346">
        <ele>49.981741</ele>
        <time>2025-08-12T10:01:14.911Z</time>
      </trkpt>
      <trkpt lat="51.570038" lon="7.219720">
        <ele>49.192508</ele>
        <time>2025-08-12T10:01:23.516Z</time>
      </trkpt>
      <trkpt lat="51.570082" lon="7.220166">
        <ele>48.935640</ele>
        <time>2025-08-12T10:01:26.204Z</time>
      </trkpt>
      <trkpt lat="51.570110" lon="7.220447">
        <ele>48.773762</ele>
        <time>2025-08-12T10:01:27.911Z</time>
      </trkpt>
      <trkpt lat="51.570135" lon="7.220719">
        <ele>48.664982</ele>
        <time>2025-08-12T10:01:29.569Z</time>
      </trkpt>
      <trkpt lat="51.570195" lon="7.221346">
        <ele>48.414394</ele>
        <time>2025-08-12T10:01:33.475Z</time>
      </trkpt>
      <trkpt lat="51.570198" lon="7.221361">
        <ele>48.408169</ele>
        <time>2025-08-12T10:01:33.570Z</time>
      </trkpt>
      <trkpt lat="51.570221" lon="7.221503">
        <ele>48.350205</ele>
        <time>2025-08-12T10:01:34.482Z</time>
      </trkpt>
      <trkpt lat="51.570297" lon="7.221699">
        <ele>48.258953</ele>
        <time>2025-08-12T10:01:35.919Z</time>
      </trkpt>
      <trkpt lat="51.570528" lon="7.222090">
        <ele>48.045868</ele>
        <time>2025-08-12T10:01:39.282Z</time>
      </trkpt>
      <trkpt lat="51.570793" lon="7.222501">
        <ele>47.811947</ele>
        <time>2025-08-12T10:01:43.140Z</time>
      </trkpt>
      <trkpt lat="51.570884" lon="7.222632">
        <ele>47.734345</ele>
        <time>2025-08-12T10:01:44.503Z</time>
      </trkpt>
      <trkpt lat="51.571111" lon="7.223058">
        <ele>47.697406</ele>
        <time>2025-08-12T10:01:48.815Z</time>
      </trkpt>
      <trkpt lat="51.571286" lon="7.223653">
        <ele>47.846326</ele>
        <time>2025-08-12T10:01:54.138Z</time>
      </trkpt>
      <trkpt lat="51.571654" lon="7.225086">
        <ele>48.197099</ele>
        <time>2025-08-12T10:02:06.909Z</time>
      </trkpt>
      <trkpt lat="51.571784" lon="7.225566">
        <ele>48.338157</ele>
        <time>2025-08-12T10:02:11.442Z</time>
      </trkpt>
      <trkpt lat="51.572456" lon="7.228177">
        <ele>49.442613</ele>
        <time>2025-08-12T10:02:36.110Z</time>
      </trkpt>
      <trkpt lat="51.572769" lon="7.230320">
        <ele>50.136791</ele>
        <time>2025-08-12T10:02:54.135Z</time>
      </trkpt>
      <trkpt lat="51.572781" lon="7.230396">
        <ele>50.161518</ele>
        <time>2025-08-12T10:02:54.801Z</time>
      </trkpt>
      <trkpt lat="51.572839" lon="7.230782">
        <ele>50.286745</ele>
        <time>2025-08-12T10:02:58.186Z</time>
      </trkpt>
      <trkpt lat="51.572906" lon="7.231225">
        <ele>50.444064</ele>
        <time>2025-08-12T10:03:02.090Z</time>
      </trkpt>
      <trkpt lat="51.572956" lon="7.231585">
        <ele>50.576674</ele>
        <time>2025-08-12T10:03:05.330Z</time>
      </trkpt>
      <trkpt lat="51.572992" lon="7.231841">
        <ele>50.671031</ele>
        <time>2025-08-12T10:03:07.668Z</time>
      </trkpt>
      <trkpt lat="51.573021" lon="7.232031">
        <ele>50.741364</ele>
        <time>2025-08-12T10:03:09.428Z</time>
      </trkpt>
      <trkpt lat="51.573088" lon="7.232527">
        <ele>50.923835</ele>
        <time>2025-08-12T10:03:13.932Z</time>
      </trkpt>
      <trkpt lat="51.573179" lon="7.233481">
        <ele>51.270806</ele>
        <time>2025-08-12T10:03:22.272Z</time>
      </trkpt>
      <trkpt lat="51.573299" lon="7.234661">
        <ele>51.249266</ele>
        <time>2025-08-12T10:03:31.585Z</time>
      </trkpt>
      <trkpt lat="51.573324" lon="7.234910">
        <ele>51.214596</ele>
        <time>2025-08-12T10:03:33.380Z</time>
      </trkpt>
      <trkpt lat="51.573338" lon="7.235051">
        <ele>51.194968</ele>
        <time>2025-08-12T10:03:34.374Z</time>
      </trkpt>
      <trkpt lat="51.573431" lon="7.235881">
        <ele>51.079039</ele>
        <time>2025-08-12T10:03:42.292Z</time>
      </trkpt>
      <trkpt lat="51.573469" lon="7.236157">
        <ele>51.040182</ele>
        <time>2025-08-12T10:03:44.895Z</time>
      </trkpt>
      <trkpt lat="51.573515" lon="7.236478">
        <ele>50.994900</ele>
        <time>2025-08-12T10:03:47.873Z</time>
      </trkpt>
      <trkpt lat="51.573650" lon="7.237340">
        <ele>50.506625</ele>
        <time>2025-08-12T10:03:55.721Z</time>
      </trkpt>
      <trkpt lat="51.573910" lon="7.238941">
        <ele>49.475521</ele>
        <time>2025-08-12T10:04:10.002Z</time>
      </trkpt>
      <trkpt lat="51.573953" lon="7.239181">
        <ele>49.319883</ele>
        <time>2025-08-12T10:04:12.031Z</time>
      </trkpt>
      <trkpt lat="51.573963" lon="7.239240">
        <ele>49.281777</ele>
        <time>2025-08-12T10:04:12.528Z</time>
      </trkpt>
      <trkpt lat="51.573661" lon="7.239333">
        <ele>49.090273</ele>
        <time>2025-08-12T10:04:15.327Z</time>
      </trkpt>
      <trkpt lat="51.573357" lon="7.239441">
        <ele>48.960828</ele>
        <time>2025-08-12T10:04:18.327Z</time>
      </trkpt>
      <trkpt lat="51.573185" lon="7.239494">
        <ele>48.888012</ele>
        <time>2025-08-12T10:04:20.104Z</time>
      </trkpt>
      <trkpt lat="51.572778" lon="7.239618">
        <ele>48.715778</ele>
        <time>2025-08-12T10:04:24.592Z</time>
      </trkpt>
      <trkpt lat="51.572686" lon="7.239648">
        <ele>48.676747</ele>
        <time>2025-08-12T10:04:25.615Z</time>
      </trkpt>
      <trkpt lat="51.572581" lon="7.239687">
        <ele>48.631941</ele>
        <time>2025-08-12T10:04:26.797Z</time>
      </trkpt>
      <trkpt lat="51.572473" lon="7.239726">
        <ele>48.585918</ele>
        <time>2025-08-12T10:04:28.028Z</time>
      </trkpt>
      <trkpt lat="51.572393" lon="7.239758">
        <ele>48.551642</ele>
        <time>2025-08-12T10:04:28.978Z</time>
      </trkpt>
      <trkpt lat="51.572351" lon="7.239775">
        <ele>48.533635</ele>
        <time>2025-08-12T10:04:29.503Z</time>
      </trkpt>
      <trkpt lat="51.571963" lon="7.239934">
        <ele>48.574406</ele>
        <time>2025-08-12T10:04:34.985Z</time>
      </trkpt>
      <trkpt lat="51.571723" lon="7.240022">
        <ele>48.837785</ele>
        <time>2025-08-12T10:04:38.766Z</time>
      </trkpt>
      <trkpt lat="51.571480" lon="7.240195">
        <ele>49.122107</ele>
        <time>2025-08-12T10:04:43.043Z</time>
      </trkpt>
      <trkpt lat="51.571111" lon="7.240545">
        <ele>49.580432</ele>
        <time>2025-08-12T10:04:50.001Z</time>
      </trkpt>
      <trkpt lat="51.570636" lon="7.241008">
        <ele>50.174670</ele>
        <time>2025-08-12T10:04:58.695Z</time>
      </trkpt>
      <trkpt lat="51.570464" lon="7.241175">
        <ele>50.363731</ele>
        <time>2025-08-12T10:05:01.876Z</time>
      </trkpt>
      <trkpt lat="51.570248" lon="7.241389">
        <ele>50.459284</ele>
        <time>2025-08-12T10:05:05.940Z</time>
      </trkpt>
      <trkpt lat="51.570171" lon="7.241486">
        <ele>50.496123</ele>
        <time>2025-08-12T10:05:07.469Z</time>
      </trkpt>
      <trkpt lat="51.570267" lon="7.241628">
        <ele>50.545245</ele>
        <time>2025-08-12T10:05:09.394Z</time>
      </trkpt>
      <trkpt lat="51.570883" lon="7.242560">
        <ele>50.863767</ele>
        <time>2025-08-12T10:05:20.501Z</time>
      </trkpt>
      <trkpt lat="51.570997" lon="7.242733">
        <ele>50.922797</ele>
        <time>2025-08-12T10:05:22.253Z</time>
      </trkpt>
      <trkpt lat="51.571156" lon="7.242865">
        <ele>50.990194</ele>
        <time>2025-08-12T10:05:24.166Z</time>
      </trkpt>
      <trkpt lat="51.571456" lon="7.243027">
        <ele>50.924431</ele>
        <time>2025-08-12T10:05:27.488Z</time>
      </trkpt>
      <trkpt lat="51.572086" lon="7.243340">
        <ele>50.613988</ele>
        <time>2025-08-12T10:05:34.123Z</time>
      </trkpt>
      <trkpt lat="51.572161" lon="7.243422">
        <ele>50.571294</ele>
        <time>2025-08-12T10:05:35.062Z</time>
      </trkpt>
      <trkpt lat="51.572502" lon="7.244059">
        <ele>50.325276</ele>
        <time>2025-08-12T10:05:40.767Z</time>
      </trkpt>
      <trkpt lat="51.572555" lon="7.244158">
        <ele>50.287040</ele>
        <time>2025-08-12T10:05:41.670Z</time>
      </trkpt>
      <trkpt lat="51.572783" lon="7.244653">
        <ele>50.124557</ele>
        <time>2025-08-12T10:05:45.890Z</time>
      </trkpt>
      <trkpt lat="51.573959" lon="7.248442">
        <ele>49.164179</ele>
        <time>2025-08-12T10:06:14.568Z</time>
      </trkpt>
      <trkpt lat="51.574449" lon="7.250022">
        <ele>48.940691</ele>
        <time>2025-08-12T10:06:26.286Z</time>
      </trkpt>
      <trkpt lat="51.574542" lon="7.250372">
        <ele>49.008155</ele>
        <time>2025-08-12T10:06:28.980Z</time>
      </trkpt>
      <trkpt lat="51.574701" lon="7.251195">
        <ele>49.160904</ele>
        <time>2025-08-12T10:06:35.598Z</time>
      </trkpt>
      <trkpt lat="51.574906" lon="7.252240">
        <ele>49.355121</ele>
        <time>2025-08-12T10:06:45.289Z</time>
      </trkpt>
      <trkpt lat="51.575211" lon="7.253334">
        <ele>50.312911</ele>
        <time>2025-08-12T10:06:57.061Z</time>
      </trkpt>
      <trkpt lat="51.575385" lon="7.253852">
        <ele>50.813423</ele>
        <time>2025-08-12T10:07:03.085Z</time>
      </trkpt>
      <trkpt lat="51.575928" lon="7.254719">
        <ele>51.850874</ele>
        <time>2025-08-12T10:07:16.205Z</time>
      </trkpt>
      <trkpt lat="51.576726" lon="7.255684">
        <ele>52.791102</ele>
        <time>2025-08-12T10:07:32.327Z</time>
      </trkpt>
      <trkpt lat="51.576799" lon="7.255773">
        <ele>52.877367</ele>
        <time>2025-08-12T10:07:33.629Z</time>
      </trkpt>
      <trkpt lat="51.577004" lon="7.255998">
        <ele>53.111096</ele>
        <time>2025-08-12T10:07:37.112Z</time>
      </trkpt>
      <trkpt lat="51.578183" lon="7.257381">
        <ele>54.258283</ele>
        <time>2025-08-12T10:07:54.924Z</time>
      </trkpt>
      <trkpt lat="51.578314" lon="7.257655">
        <ele>54.412770</ele>
        <time>2025-08-12T10:07:57.968Z</time>
      </trkpt>
      <trkpt lat="51.578386" lon="7.258001">
        <ele>54.575827</ele>
        <time>2025-08-12T10:08:01.433Z</time>
      </trkpt>
      <trkpt lat="51.578417" lon="7.258146">
        <ele>54.644351</ele>
        <time>2025-08-12T10:08:02.962Z</time>
      </trkpt>
      <trkpt lat="51.578624" lon="7.260406">
        <ele>56.864295</ele>
        <time>2025-08-12T10:08:29.055Z</time>
      </trkpt>
      <trkpt lat="51.578709" lon="7.260800">
        <ele>57.314735</ele>
        <time>2025-08-12T10:08:33.715Z</time>
      </trkpt>
      <trkpt lat="51.578851" lon="7.261343">
        <ele>57.946056</ele>
        <time>2025-08-12T10:08:39.875Z</time>
      </trkpt>
      <trkpt lat="51.578904" lon="7.261549">
        <ele>57.995309</ele>
        <time>2025-08-12T10:08:42.027Z</time>
      </trkpt>
      <trkpt lat="51.578946" lon="7.261867">
        <ele>58.067127</ele>
        <time>2025-08-12T10:08:44.988Z</time>
      </trkpt>
      <trkpt lat="51.578947" lon="7.262288">
        <ele>58.160131</ele>
        <time>2025-08-12T10:08:48.579Z</time>
      </trkpt>
      <trkpt lat="51.578924" lon="7.262518">
        <ele>58.211594</ele>
        <time>2025-08-12T10:08:50.494Z</time>
      </trkpt>
      <trkpt lat="51.578847" lon="7.263409">
        <ele>58.410318</ele>
        <time>2025-08-12T10:08:57.568Z</time>
      </trkpt>
      <trkpt lat="51.578808" lon="7.263517">
        <ele>58.437912</ele>
        <time>2025-08-12T10:08:58.477Z</time>
      </trkpt>
      <trkpt lat="51.578764" lon="7.263846">
        <ele>58.512255</ele>
        <time>2025-08-12T10:09:00.841Z</time>
      </trkpt>
      <trkpt lat="51.578781" lon="7.264263">
        <ele>58.557697</ele>
        <time>2025-08-12T10:09:03.571Z</time>
      </trkpt>
      <trkpt lat="51.578771" lon="7.264381">
        <ele>58.523556</ele>
        <time>2025-08-12T10:09:04.340Z</time>
      </trkpt>
      <trkpt lat="51.578693" lon="7.265045">
        <ele>58.329830</ele>
        <time>2025-08-12T10:09:08.641Z</time>
      </trkpt>
      <trkpt lat="51.578698" lon="7.265403">
        <ele>58.227173</ele>
        <time>2025-08-12T10:09:10.950Z</time>
      </trkpt>
      <trkpt lat="51.578736" lon="7.265683">
        <ele>58.145012</ele>
        <time>2025-08-12T10:09:12.814Z</time>
      </trkpt>
      <trkpt lat="51.578925" lon="7.266452">
        <ele>57.907941</ele>
        <time>2025-08-12T10:09:18.237Z</time>
      </trkpt>
      <trkpt lat="51.578956" lon="7.266697">
        <ele>57.836264</ele>
        <time>2025-08-12T10:09:19.885Z</time>
      </trkpt>
      <trkpt lat="51.578871" lon="7.267544">
        <ele>57.707598</ele>
        <time>2025-08-12T10:09:25.842Z</time>
      </trkpt>
      <trkpt lat="51.578896" lon="7.267910">
        <ele>57.677477</ele>
        <time>2025-08-12T10:09:28.632Z</time>
      </trkpt>
      <trkpt lat="51.579014" lon="7.268195">
        <ele>57.649463</ele>
        <time>2025-08-12T10:09:31.271Z</time>
      </trkpt>
      <trkpt lat="51.579150" lon="7.268346">
        <ele>57.627712</ele>
        <time>2025-08-12T10:09:33.279Z</time>
      </trkpt>
      <trkpt lat="51.579586" lon="7.268676">
        <ele>57.564287</ele>
        <time>2025-08-12T10:09:38.858Z</time>
      </trkpt>
      <trkpt lat="51.579762" lon="7.268904">
        <ele>57.534544</ele>
        <time>2025-08-12T10:09:41.411Z</time>
      </trkpt>
      <trkpt lat="51.579845" lon="7.269141">
        <ele>57.505301</ele>
        <time>2025-08-12T10:09:43.303Z</time>
      </trkpt>
      <trkpt lat="51.579884" lon="7.269406">
        <ele>57.454053</ele>
        <time>2025-08-12T10:09:45.166Z</time>
      </trkpt>
      <trkpt lat="51.579903" lon="7.269883">
        <ele>57.364106</ele>
        <time>2025-08-12T10:09:48.377Z</time>
      </trkpt>
      <trkpt lat="51.579845" lon="7.269871">
        <ele>57.346397</ele>
        <time>2025-08-12T10:09:53.488Z</time>
      </trkpt>
      <trkpt lat="51.579854" lon="7.270763">
        <ele>57.178516</ele>
        <time>2025-08-12T10:09:59.405Z</time>
      </trkpt>
      <trkpt lat="51.579879" lon="7.271087">
        <ele>57.117077</ele>
        <time>2025-08-12T10:10:01.575Z</time>
      </trkpt>
      <trkpt lat="51.580045" lon="7.272463">
        <ele>56.956951</ele>
        <time>2025-08-12T10:10:11.520Z</time>
      </trkpt>
      <trkpt lat="51.580038" lon="7.272570">
        <ele>56.954238</ele>
        <time>2025-08-12T10:10:12.314Z</time>
      </trkpt>
      <trkpt lat="51.580008" lon="7.272624">
        <ele>56.952411</ele>
        <time>2025-08-12T10:10:12.851Z</time>
      </trkpt>
      <trkpt lat="51.580014" lon="7.272704">
        <ele>56.950379</ele>
        <time>2025-08-12T10:10:13.441Z</time>
      </trkpt>
      <trkpt lat="51.577734" lon="7.273690">
        <ele>56.791790</ele>
        <time>2025-08-12T10:10:41.616Z</time>
      </trkpt>
      <trkpt lat="51.577366" lon="7.273806">
        <ele>56.755542</ele>
        <time>2025-08-12T10:10:45.934Z</time>
      </trkpt>
      <trkpt lat="51.577132" lon="7.273753">
        <ele>56.732699</ele>
        <time>2025-08-12T10:10:48.611Z</time>
      </trkpt>
      <trkpt lat="51.576717" lon="7.273546">
        <ele>56.297173</ele>
        <time>2025-08-12T10:10:53.320Z</time>
      </trkpt>
      <trkpt lat="51.576288" lon="7.273379">
        <ele>55.780677</ele>
        <time>2025-08-12T10:10:57.770Z</time>
      </trkpt>
      <trkpt lat="51.576002" lon="7.273338">
        <ele>55.444675</ele>
        <time>2025-08-12T10:11:00.529Z</time>
      </trkpt>
      <trkpt lat="51.575806" lon="7.273356">
        <ele>55.214943</ele>
        <time>2025-08-12T10:11:02.377Z</time>
      </trkpt>
      <trkpt lat="51.574154" lon="7.274452">
        <ele>52.803796</ele>
        <time>2025-08-12T10:11:17.929Z</time>
      </trkpt>
      <trkpt lat="51.573407" lon="7.274975">
        <ele>52.355226</ele>
        <time>2025-08-12T10:11:26.963Z</time>
      </trkpt>
      <trkpt lat="51.573363" lon="7.275016">
        <ele>52.404844</ele>
        <time>2025-08-12T10:11:27.733Z</time>
      </trkpt>
      <trkpt lat="51.573290" lon="7.275085">
        <ele>52.487463</ele>
        <time>2025-08-12T10:11:29.033Z</time>
      </trkpt>
      <trkpt lat="51.572780" lon="7.275591">
        <ele>53.072157</ele>
        <time>2025-08-12T10:11:38.922Z</time>
      </trkpt>
      <trkpt lat="51.572714" lon="7.275654">
        <ele>53.147044</ele>
        <time>2025-08-12T10:11:40.286Z</time>
      </trkpt>
      <trkpt lat="51.572285" lon="7.275977">
        <ele>53.609250</ele>
        <time>2025-08-12T10:11:48.933Z</time>
      </trkpt>
      <trkpt lat="51.571545" lon="7.276509">
        <ele>53.831826</ele>
        <time>2025-08-12T10:12:00.730Z</time>
      </trkpt>
      <trkpt lat="51.570516" lon="7.277275">
        <ele>53.850866</ele>
        <time>2025-08-12T10:12:12.444Z</time>
      </trkpt>
      <trkpt lat="51.569858" lon="7.277765">
        <ele>53.863923</ele>
        <time>2025-08-12T10:12:20.422Z</time>
      </trkpt>
      <trkpt lat="51.569229" lon="7.278289">
        <ele>53.876775</ele>
        <time>2025-08-12T10:12:29.225Z</time>
      </trkpt>
      <trkpt lat="51.569118" lon="7.278436">
        <ele>53.879383</ele>
        <time>2025-08-12T10:12:31.151Z</time>
      </trkpt>
      <trkpt lat="51.568957" lon="7.278775">
        <ele>53.884195</ele>
        <time>2025-08-12T10:12:34.746Z</time>
      </trkpt>
      <trkpt lat="51.568790" lon="7.279413">
        <ele>54.132762</ele>
        <time>2025-08-12T10:12:40.353Z</time>
      </trkpt>
      <trkpt lat="51.568672" lon="7.279754">
        <ele>54.282532</ele>
        <time>2025-08-12T10:12:43.179Z</time>
      </trkpt>
      <trkpt lat="51.568432" lon="7.280119">
        <ele>54.486430</ele>
        <time>2025-08-12T10:12:47.266Z</time>
      </trkpt>
      <trkpt lat="51.568211" lon="7.280325">
        <ele>54.644118</ele>
        <time>2025-08-12T10:12:50.659Z</time>
      </trkpt>
      <trkpt lat="51.568023" lon="7.280504">
        <ele>54.778990</ele>
        <time>2025-08-12T10:12:54.743Z</time>
      </trkpt>
      <trkpt lat="51.567933" lon="7.280587">
        <ele>54.843036</ele>
        <time>2025-08-12T10:12:56.705Z</time>
      </trkpt>
      <trkpt lat="51.567802" lon="7.280708">
        <ele>54.936295</ele>
        <time>2025-08-12T10:12:59.662Z</time>
      </trkpt>
      <trkpt lat="51.566977" lon="7.281578">
        <ele>57.029907</ele>
        <time>2025-08-12T10:13:21.558Z</time>
      </trkpt>
      <trkpt lat="51.566896" lon="7.281668">
        <ele>57.254690</ele>
        <time>2025-08-12T10:13:24.036Z</time>
      </trkpt>
      <trkpt lat="51.566487" lon="7.282282">
        <ele>58.532074</ele>
        <time>2025-08-12T10:13:36.252Z</time>
      </trkpt>
      <trkpt lat="51.564254" lon="7.286004">
        <ele>66.971168</ele>
        <time>2025-08-12T10:14:41.379Z</time>
      </trkpt>
      <trkpt lat="51.563106" lon="7.287920">
        <ele>70.121642</ele>
        <time>2025-08-12T10:15:15.761Z</time>
      </trkpt>
      <trkpt lat="51.563065" lon="7.287987">
        <ele>70.205204</ele>
        <time>2025-08-12T10:15:16.689Z</time>
      </trkpt>
      <trkpt lat="51.562983" lon="7.288093">
        <ele>70.355609</ele>
        <time>2025-08-12T10:15:18.275Z</time>
      </trkpt>
      <trkpt lat="51.562846" lon="7.288211">
        <ele>70.577797</ele>
        <time>2025-08-12T10:15:20.437Z</time>
      </trkpt>
      <trkpt lat="51.562612" lon="7.288342">
        <ele>70.932042</ele>
        <time>2025-08-12T10:15:23.433Z</time>
      </trkpt>
      <trkpt lat="51.562118" lon="7.288631">
        <ele>70.379196</ele>
        <time>2025-08-12T10:15:28.449Z</time>
      </trkpt>
      <trkpt lat="51.561681" lon="7.288992">
        <ele>69.057524</ele>
        <time>2025-08-12T10:15:32.614Z</time>
      </trkpt>
      <trkpt lat="51.560337" lon="7.290587">
        <ele>64.492497</ele>
        <time>2025-08-12T10:15:45.850Z</time>
      </trkpt>
      <trkpt lat="51.560001" lon="7.290988">
        <ele>63.322821</ele>
        <time>2025-08-12T10:15:49.337Z</time>
      </trkpt>
      <trkpt lat="51.559950" lon="7.291043">
        <ele>63.151160</ele>
        <time>2025-08-12T10:15:49.857Z</time>
      </trkpt>
      <trkpt lat="51.559469" lon="7.291587">
        <ele>61.507294</ele>
        <time>2025-08-12T10:15:54.953Z</time>
      </trkpt>
      <trkpt lat="51.559411" lon="7.291654">
        <ele>61.345579</ele>
        <time>2025-08-12T10:15:55.577Z</time>
      </trkpt>
      <trkpt lat="51.559263" lon="7.291807">
        <ele>61.187980</ele>
        <time>2025-08-12T10:15:57.141Z</time>
      </trkpt>
      <trkpt lat="51.559085" lon="7.291999">
        <ele>60.995994</ele>
        <time>2025-08-12T10:15:59.120Z</time>
      </trkpt>
      <trkpt lat="51.558886" lon="7.292198">
        <ele>60.786088</ele>
        <time>2025-08-12T10:16:01.455Z</time>
      </trkpt>
      <trkpt lat="51.558274" lon="7.292664">
        <ele>60.179534</ele>
        <time>2025-08-12T10:16:08.249Z</time>
      </trkpt>
      <trkpt lat="51.558117" lon="7.292771">
        <ele>60.026790</ele>
        <time>2025-08-12T10:16:10.033Z</time>
      </trkpt>
      <trkpt lat="51.557890" lon="7.292892">
        <ele>59.812569</ele>
        <time>2025-08-12T10:16:12.634Z</time>
      </trkpt>
      <trkpt lat="51.557813" lon="7.292933">
        <ele>59.753859</ele>
        <time>2025-08-12T10:16:13.554Z</time>
      </trkpt>
      <trkpt lat="51.557322" lon="7.293177">
        <ele>59.814265</ele>
        <time>2025-08-12T10:16:20.029Z</time>
      </trkpt>
      <trkpt lat="51.557048" lon="7.293282">
        <ele>59.847373</ele>
        <time>2025-08-12T10:16:23.687Z</time>
      </trkpt>
      <trkpt lat="51.556973" lon="7.293306">
        <ele>59.856362</ele>
        <time>2025-08-12T10:16:24.752Z</time>
      </trkpt>
      <trkpt lat="51.556416" lon="7.293461">
        <ele>59.922806</ele>
        <time>2025-08-12T10:16:32.171Z</time>
      </trkpt>
      <trkpt lat="51.556232" lon="7.293509">
        <ele>59.944717</ele>
        <time>2025-08-12T10:16:34.475Z</time>
      </trkpt>
      <trkpt lat="51.556168" lon="7.293520">
        <ele>59.952283</ele>
        <time>2025-08-12T10:16:35.223Z</time>
      </trkpt>
      <trkpt lat="51.555983" lon="7.293558">
        <ele>59.940139</ele>
        <time>2025-08-12T10:16:37.388Z</time>
      </trkpt>
      <trkpt lat="51.555678" lon="7.293627">
        <ele>59.859384</ele>
        <time>2025-08-12T10:16:40.770Z</time>
      </trkpt>
      <trkpt lat="51.555272" lon="7.293715">
        <ele>59.751973</ele>
        <time>2025-08-12T10:16:45.132Z</time>
      </trkpt>
      <trkpt lat="51.554629" lon="7.293832">
        <ele>59.582310</ele>
        <time>2025-08-12T10:16:54.939Z</time>
      </trkpt>
      <trkpt lat="51.554594" lon="7.293713">
        <ele>59.560849</ele>
        <time>2025-08-12T10:16:55.847Z</time>
      </trkpt>
      <trkpt lat="51.554480" lon="7.293650">
        <ele>59.529244</ele>
        <time>2025-08-12T10:16:57.186Z</time>
      </trkpt>
      <trkpt lat="51.554393" lon="7.293744">
        <ele>59.501764</ele>
        <time>2025-08-12T10:16:58.381Z</time>
      </trkpt>
      <trkpt lat="51.554372" lon="7.293869">
        <ele>59.503622</ele>
        <time>2025-08-12T10:16:59.303Z</time>
      </trkpt>
      <trkpt lat="51.553833" lon="7.293955">
        <ele>59.647243</ele>
        <time>2025-08-12T10:17:05.689Z</time>
      </trkpt>
      <trkpt lat="51.553706" lon="7.293972">
        <ele>59.681035</ele>
        <time>2025-08-12T10:17:07.227Z</time>
      </trkpt>
      <trkpt lat="51.553260" lon="7.294005">
        <ele>59.799420</ele>
        <time>2025-08-12T10:17:12.785Z</time>
      </trkpt>
      <trkpt lat="51.552442" lon="7.294016">
        <ele>60.145575</ele>
        <time>2025-08-12T10:17:24.017Z</time>
      </trkpt>
      <trkpt lat="51.552190" lon="7.294021">
        <ele>60.394890</ele>
        <time>2025-08-12T10:17:27.894Z</time>
      </trkpt>
      <trkpt lat="51.551897" lon="7.294022">
        <ele>60.684746</ele>
        <time>2025-08-12T10:17:32.326Z</time>
      </trkpt>
      <trkpt lat="51.551847" lon="7.294025">
        <ele>60.734244</ele>
        <time>2025-08-12T10:17:33.065Z</time>
      </trkpt>
      <trkpt lat="51.551704" lon="7.294033">
        <ele>60.875795</ele>
        <time>2025-08-12T10:17:35.236Z</time>
      </trkpt>
      <trkpt lat="51.551324" lon="7.294050">
        <ele>61.251862</ele>
        <time>2025-08-12T10:17:41.078Z</time>
      </trkpt>
      <trkpt lat="51.551289" lon="7.294052">
        <ele>61.286509</ele>
        <time>2025-08-12T10:17:41.637Z</time>
      </trkpt>
      <trkpt lat="51.550746" lon="7.294124">
        <ele>61.842416</ele>
        <time>2025-08-12T10:17:49.933Z</time>
      </trkpt>
      <trkpt lat="51.550611" lon="7.294143">
        <ele>62.005858</ele>
        <time>2025-08-12T10:17:52.018Z</time>
      </trkpt>
      <trkpt lat="51.550361" lon="7.294187">
        <ele>62.309177</ele>
        <time>2025-08-12T10:17:55.966Z</time>
      </trkpt>
      <trkpt lat="51.550269" lon="7.294205">
        <ele>62.420954</ele>
        <time>2025-08-12T10:17:57.396Z</time>
      </trkpt>
      <trkpt lat="51.550232" lon="7.294059">
        <ele>62.539194</ele>
        <time>2025-08-12T10:17:58.918Z</time>
      </trkpt>
      <trkpt lat="51.550167" lon="7.294008">
        <ele>62.626422</ele>
        <time>2025-08-12T10:18:00.030Z</time>
      </trkpt>
      <trkpt lat="51.550070" lon="7.294055">
        <ele>62.748606</ele>
        <time>2025-08-12T10:18:01.612Z</time>
      </trkpt>
      <trkpt lat="51.550032" lon="7.294217">
        <ele>62.878458</ele>
        <time>2025-08-12T10:18:03.302Z</time>
      </trkpt>
      <trkpt lat="51.549643" lon="7.294282">
        <ele>63.350147</ele>
        <time>2025-08-12T10:18:09.550Z</time>
      </trkpt>
      <trkpt lat="51.549443" lon="7.294374">
        <ele>63.601036</ele>
        <time>2025-08-12T10:18:12.921Z</time>
      </trkpt>
      <trkpt lat="51.549160" lon="7.294627">
        <ele>63.996062</ele>
        <time>2025-08-12T10:18:18.191Z</time>
      </trkpt>
      <trkpt lat="51.547488" lon="7.295703">
        <ele>66.292648</ele>
        <time>2025-08-12T10:18:46.827Z</time>
      </trkpt>
      <trkpt lat="51.546728" lon="7.295996">
        <ele>67.194350</ele>
        <time>2025-08-12T10:18:59.352Z</time>
      </trkpt>
      <trkpt lat="51.546430" lon="7.296108">
        <ele>67.547435</ele>
        <time>2025-08-12T10:19:04.207Z</time>
      </trkpt>
      <trkpt lat="51.546325" lon="7.296149">
        <ele>67.672100</ele>
        <time>2025-08-12T10:19:05.861Z</time>
      </trkpt>
      <trkpt lat="51.546277" lon="7.296167">
        <ele>67.728966</ele>
        <time>2025-08-12T10:19:06.629Z</time>
      </trkpt>
      <trkpt lat="51.546212" lon="7.296221">
        <ele>67.813377</ele>
        <time>2025-08-12T10:19:07.745Z</time>
      </trkpt>
      <trkpt lat="51.546160" lon="7.296365">
        <ele>67.932853</ele>
        <time>2025-08-12T10:19:09.330Z</time>
      </trkpt>
      <trkpt lat="51.546173" lon="7.296587">
        <ele>68.092843</ele>
        <time>2025-08-12T10:19:11.432Z</time>
      </trkpt>
      <trkpt lat="51.546276" lon="7.297277">
        <ele>68.451726</ele>
        <time>2025-08-12T10:19:18.020Z</time>
      </trkpt>
      <trkpt lat="51.546305" lon="7.297475">
        <ele>68.526354</ele>
        <time>2025-08-12T10:19:19.886Z</time>
      </trkpt>
      <trkpt lat="51.546581" lon="7.299315">
        <ele>69.220758</ele>
        <time>2025-08-12T10:19:35.321Z</time>
      </trkpt>
      <trkpt lat="51.546555" lon="7.299382">
        <ele>69.249731</ele>
        <time>2025-08-12T10:19:35.977Z</time>
      </trkpt>
      <trkpt lat="51.546534" lon="7.299472">
        <ele>69.284997</ele>
        <time>2025-08-12T10:19:36.774Z</time>
      </trkpt>
      <trkpt lat="51.546534" lon="7.299662">
        <ele>69.354703</ele>
        <time>2025-08-12T10:19:38.374Z</time>
      </trkpt>
      <trkpt lat="51.546623" lon="7.299890">
        <ele>69.416649</ele>
        <time>2025-08-12T10:19:40.682Z</time>
      </trkpt>
      <trkpt lat="51.546682" lon="7.299947">
        <ele>69.441980</ele>
        <time>2025-08-12T10:19:41.641Z</time>
      </trkpt>
      <trkpt lat="51.546747" lon="7.300387">
        <ele>69.545481</ele>
        <time>2025-08-12T10:19:45.660Z</time>
      </trkpt>
      <trkpt lat="51.546761" lon="7.300483">
        <ele>69.568048</ele>
        <time>2025-08-12T10:19:46.565Z</time>
      </trkpt>
      <trkpt lat="51.547017" lon="7.302206">
        <ele>69.973475</ele>
        <time>2025-08-12T10:20:00.531Z</time>
      </trkpt>
      <trkpt lat="51.547046" lon="7.302403">
        <ele>70.019940</ele>
        <time>2025-08-12T10:20:02.144Z</time>
      </trkpt>
      <trkpt lat="51.547155" lon="7.303137">
        <ele>70.202801</ele>
        <time>2025-08-12T10:20:08.090Z</time>
      </trkpt>
      <trkpt lat="51.547275" lon="7.303944">
        <ele>70.403863</ele>
        <time>2025-08-12T10:20:13.946Z</time>
      </trkpt>
      <trkpt lat="51.547352" lon="7.304460">
        <ele>70.532447</ele>
        <time>2025-08-12T10:20:18.159Z</time>
      </trkpt>
      <trkpt lat="51.547495" lon="7.305428">
        <ele>70.861877</ele>
        <time>2025-08-12T10:20:27.498Z</time>
      </trkpt>
      <trkpt lat="51.547517" lon="7.305555">
        <ele>70.944999</ele>
        <time>2025-08-12T10:20:28.758Z</time>
      </trkpt>
      <trkpt lat="51.547441" lon="7.305769">
        <ele>71.100376</ele>
        <time>2025-08-12T10:20:31.131Z</time>
      </trkpt>
      <trkpt lat="51.547384" lon="7.305847">
        <ele>71.176260</ele>
        <time>2025-08-12T10:20:32.299Z</time>
      </trkpt>
      <trkpt lat="51.547168" lon="7.305938">
        <ele>71.402648</ele>
        <time>2025-08-12T10:20:35.704Z</time>
      </trkpt>
      <trkpt lat="51.547039" lon="7.305983">
        <ele>71.536479</ele>
        <time>2025-08-12T10:20:37.731Z</time>
      </trkpt>
      <trkpt lat="51.546999" lon="7.305997">
        <ele>71.577984</ele>
        <time>2025-08-12T10:20:38.391Z</time>
      </trkpt>
      <trkpt lat="51.546839" lon="7.306056">
        <ele>71.744414</ele>
        <time>2025-08-12T10:20:40.956Z</time>
      </trkpt>
      <trkpt lat="51.546757" lon="7.306084">
        <ele>71.829405</ele>
        <time>2025-08-12T10:20:42.200Z</time>
      </trkpt>
      <trkpt lat="51.546777" lon="7.306215">
        <ele>71.914454</ele>
        <time>2025-08-12T10:20:43.498Z</time>
      </trkpt>
      <trkpt lat="51.546864" lon="7.306789">
        <ele>72.286956</ele>
        <time>2025-08-12T10:20:49.119Z</time>
      </trkpt>
      <trkpt lat="51.546840" lon="7.306902">
        <ele>72.362244</ele>
        <time>2025-08-12T10:20:50.262Z</time>
      </trkpt>
      <trkpt lat="51.546842" lon="7.307122">
        <ele>72.500969</ele>
        <time>2025-08-12T10:20:52.306Z</time>
      </trkpt>
      <trkpt lat="51.546840" lon="7.307271">
        <ele>72.587536</ele>
        <time>2025-08-12T10:20:53.677Z</time>
      </trkpt>
      <trkpt lat="51.546838" lon="7.307444">
        <ele>72.681386</ele>
        <time>2025-08-12T10:20:55.324Z</time>
      </trkpt>
      <trkpt lat="51.546839" lon="7.307631">
        <ele>72.782818</ele>
        <time>2025-08-12T10:20:57.012Z</time>
      </trkpt>
      <trkpt lat="51.546906" lon="7.307868">
        <ele>72.924024</ele>
        <time>2025-08-12T10:20:59.256Z</time>
      </trkpt>
      <trkpt lat="51.546976" lon="7.307954">
        <ele>73.000857</ele>
        <time>2025-08-12T10:21:00.402Z</time>
      </trkpt>
      <trkpt lat="51.547178" lon="7.308249">
        <ele>73.238853</ele>
        <time>2025-08-12T10:21:04.076Z</time>
      </trkpt>
      <trkpt lat="51.547277" lon="7.308391">
        <ele>73.354558</ele>
        <time>2025-08-12T10:21:05.944Z</time>
      </trkpt>
      <trkpt lat="51.547508" lon="7.308714">
        <ele>73.621550</ele>
        <time>2025-08-12T10:21:10.263Z</time>
      </trkpt>
      <trkpt lat="51.547559" lon="7.308790">
        <ele>73.682195</ele>
        <time>2025-08-12T10:21:11.231Z</time>
      </trkpt>
      <trkpt lat="51.547761" lon="7.309147">
        <ele>73.943983</ele>
        <time>2025-08-12T10:21:15.927Z</time>
      </trkpt>
      <trkpt lat="51.547798" lon="7.309346">
        <ele>74.056638</ele>
        <time>2025-08-12T10:21:18.129Z</time>
      </trkpt>
      <trkpt lat="51.547771" lon="7.309511">
        <ele>74.140014</ele>
        <time>2025-08-12T10:21:19.940Z</time>
      </trkpt>
      <trkpt lat="51.547658" lon="7.309678">
        <ele>74.241954</ele>
        <time>2025-08-12T10:21:22.448Z</time>
      </trkpt>
      <trkpt lat="51.547419" lon="7.310352">
        <ele>74.562435</ele>
        <time>2025-08-12T10:21:29.796Z</time>
      </trkpt>
      <trkpt lat="51.547391" lon="7.310434">
        <ele>74.601076</ele>
        <time>2025-08-12T10:21:30.677Z</time>
      </trkpt>
      <trkpt lat="51.547323" lon="7.310632">
        <ele>74.694505</ele>
        <time>2025-08-12T10:21:32.777Z</time>
      </trkpt>
      <trkpt lat="51.547278" lon="7.310783">
        <ele>74.763669</ele>
        <time>2025-08-12T10:21:34.349Z</time>
      </trkpt>
      <trkpt lat="51.547261" lon="7.310941">
        <ele>74.829902</ele>
        <time>2025-08-12T10:21:35.868Z</time>
      </trkpt>
      <trkpt lat="51.547244" lon="7.311309">
        <ele>74.982327</ele>
        <time>2025-08-12T10:21:39.131Z</time>
      </trkpt>
      <trkpt lat="51.547231" lon="7.311538">
        <ele>75.077311</ele>
        <time>2025-08-12T10:21:40.984Z</time>
      </trkpt>
      <trkpt lat="51.547224" lon="7.311641">
        <ele>75.120110</ele>
        <time>2025-08-12T10:21:41.808Z</time>
      </trkpt>
      <trkpt lat="51.547184" lon="7.311772">
        <ele>75.180391</ele>
        <time>2025-08-12T10:21:42.888Z</time>
      </trkpt>
      <trkpt lat="51.547100" lon="7.311825">
        <ele>75.240327</ele>
        <time>2025-08-12T10:21:43.954Z</time>
      </trkpt>
      <trkpt lat="51.546933" lon="7.311850">
        <ele>75.296382</ele>
        <time>2025-08-12T10:21:45.792Z</time>
      </trkpt>
      <trkpt lat="51.546725" lon="7.311881">
        <ele>75.269216</ele>
        <time>2025-08-12T10:21:47.879Z</time>
      </trkpt>
      <trkpt lat="51.546617" lon="7.311934">
        <ele>75.254531</ele>
        <time>2025-08-12T10:21:48.970Z</time>
      </trkpt>
      <trkpt lat="51.546553" lon="7.312003">
        <ele>75.244510</ele>
        <time>2025-08-12T10:21:49.726Z</time>
      </trkpt>
      <trkpt lat="51.546242" lon="7.312472">
        <ele>75.189061</ele>
        <time>2025-08-12T10:21:54.053Z</time>
      </trkpt>
      <trkpt lat="51.545932" lon="7.312752">
        <ele>75.142821</ele>
        <time>2025-08-12T10:21:57.970Z</time>
      </trkpt>
      <trkpt lat="51.545820" lon="7.312850">
        <ele>75.126238</ele>
        <time>2025-08-12T10:21:59.476Z</time>
      </trkpt>
      <trkpt lat="51.545685" lon="7.312960">
        <ele>75.106556</ele>
        <time>2025-08-12T10:22:01.248Z</time>
      </trkpt>
      <trkpt lat="51.545462" lon="7.313162">
        <ele>75.073270</ele>
        <time>2025-08-12T10:22:04.392Z</time>
      </trkpt>
      <trkpt lat="51.544944" lon="7.313559">
        <ele>76.228882</ele>
        <time>2025-08-12T10:22:13.638Z</time>
      </trkpt>
      <trkpt lat="51.544823" lon="7.313714">
        <ele>76.548345</ele>
        <time>2025-08-12T10:22:16.783Z</time>
      </trkpt>
      <trkpt lat="51.544784" lon="7.313820">
        <ele>76.706513</ele>
        <time>2025-08-12T10:22:18.370Z</time>
      </trkpt>
      <trkpt lat="51.544683" lon="7.313773">
        <ele>76.923638</ele>
        <time>2025-08-12T10:22:20.598Z</time>
      </trkpt>
      <trkpt lat="51.544526" lon="7.313744">
        <ele>77.249977</ele>
        <time>2025-08-12T10:22:23.914Z</time>
      </trkpt>
      <trkpt lat="51.544287" lon="7.313824">
        <ele>77.754096</ele>
        <time>2025-08-12T10:22:29.016Z</time>
      </trkpt>
      <trkpt lat="51.544139" lon="7.313866">
        <ele>78.064441</ele>
        <time>2025-08-12T10:22:32.106Z</time>
      </trkpt>
      <trkpt lat="51.543860" lon="7.313875">
        <ele>78.640696</ele>
        <time>2025-08-12T10:22:37.690Z</time>
      </trkpt>
      <trkpt lat="51.543677" lon="7.313823">
        <ele>79.037219</ele>
        <time>2025-08-12T10:22:41.329Z</time>
      </trkpt>
      <trkpt lat="51.543450" lon="7.313704">
        <ele>79.556639</ele>
        <time>2025-08-12T10:22:45.817Z</time>
      </trkpt>
      <trkpt lat="51.543304" lon="7.313599">
        <ele>79.904585</ele>
        <time>2025-08-12T10:22:48.846Z</time>
      </trkpt>
      <trkpt lat="51.543131" lon="7.313422">
        <ele>80.350676</ele>
        <time>2025-08-12T10:22:52.847Z</time>
      </trkpt>
      <trkpt lat="51.542969" lon="7.313184">
        <ele>80.828064</ele>
        <time>2025-08-12T10:22:56.855Z</time>
      </trkpt>
      <trkpt lat="51.542835" lon="7.312915">
        <ele>81.294376</ele>
        <time>2025-08-12T10:23:00.696Z</time>
      </trkpt>
      <trkpt lat="51.542676" lon="7.312484">
        <ele>81.972394</ele>
        <time>2025-08-12T10:23:06.252Z</time>
      </trkpt>
      <trkpt lat="51.542043" lon="7.312852">
        <ele>83.711352</ele>
        <time>2025-08-12T10:23:18.730Z</time>
      </trkpt>
      <trkpt lat="51.541852" lon="7.312972">
        <ele>84.323464</ele>
        <time>2025-08-12T10:23:22.984Z</time>
      </trkpt>
      <trkpt lat="51.541654" lon="7.313098">
        <ele>84.959097</ele>
        <time>2025-08-12T10:23:27.729Z</time>
      </trkpt>
      <trkpt lat="51.541561" lon="7.313156">
        <ele>85.256852</ele>
        <time>2025-08-12T10:23:30.095Z</time>
      </trkpt>
      <trkpt lat="51.541543" lon="7.313080">
        <ele>85.407830</ele>
        <time>2025-08-12T10:23:31.289Z</time>
      </trkpt>
      <trkpt lat="51.541561" lon="7.313156">
        <ele>85.558809</ele>
        <time>2025-08-12T10:23:32.494Z</time>
      </trkpt>
      <trkpt lat="51.541596" lon="7.313461">
        <ele>86.134599</ele>
        <time>2025-08-12T10:23:37.083Z</time>
      </trkpt>
      <trkpt lat="51.541467" lon="7.314094">
        <ele>87.371242</ele>
        <time>2025-08-12T10:23:46.605Z</time>
      </trkpt>
      <trkpt lat="51.541431" lon="7.314563">
        <ele>88.189541</ele>
        <time>2025-08-12T10:23:52.830Z</time>
      </trkpt>
      <trkpt lat="51.541397" lon="7.315445">
        <ele>89.295091</ele>
        <time>2025-08-12T10:24:04.407Z</time>
      </trkpt>
      <trkpt lat="51.541380" lon="7.315898">
        <ele>89.862851</ele>
        <time>2025-08-12T10:24:09.944Z</time>
      </trkpt>
      <trkpt lat="51.541355" lon="7.316525">
        <ele>90.648876</ele>
        <time>2025-08-12T10:24:16.807Z</time>
      </trkpt>
      <trkpt lat="51.541352" lon="7.316621">
        <ele>90.769129</ele>
        <time>2025-08-12T10:24:17.796Z</time>
      </trkpt>
      <trkpt lat="51.541326" lon="7.317392">
        <ele>91.695115</ele>
        <time>2025-08-12T10:24:24.827Z</time>
      </trkpt>
      <trkpt lat="51.541255" lon="7.318918">
        <ele>92.062921</ele>
        <time>2025-08-12T10:24:38.104Z</time>
      </trkpt>
      <trkpt lat="51.541186" lon="7.319613">
        <ele>92.232083</ele>
        <time>2025-08-12T10:24:44.119Z</time>
      </trkpt>
      <trkpt lat="51.540831" lon="7.321216">
        <ele>92.392851</ele>
        <time>2025-08-12T10:24:55.224Z</time>
      </trkpt>
      <trkpt lat="51.540737" lon="7.321584">
        <ele>92.397316</ele>
        <time>2025-08-12T10:24:57.547Z</time>
      </trkpt>
      <trkpt lat="51.540584" lon="7.321914">
        <ele>92.401935</ele>
        <time>2025-08-12T10:25:00.100Z</time>
      </trkpt>
      <trkpt lat="51.540480" lon="7.322240">
        <ele>92.406047</ele>
        <time>2025-08-12T10:25:02.579Z</time>
      </trkpt>
      <trkpt lat="51.540412" lon="7.322578">
        <ele>92.410033</ele>
        <time>2025-08-12T10:25:05.359Z</time>
      </trkpt>
      <trkpt lat="51.540429" lon="7.322870">
        <ele>92.470990</ele>
        <time>2025-08-12T10:25:08.105Z</time>
      </trkpt>
      <trkpt lat="51.540439" lon="7.322961">
        <ele>92.811152</ele>
        <time>2025-08-12T10:25:09.084Z</time>
      </trkpt>
      <trkpt lat="51.540561" lon="7.324014">
        <ele>96.753949</ele>
        <time>2025-08-12T10:25:24.777Z</time>
      </trkpt>
      <trkpt lat="51.540697" lon="7.324381">
        <ele>98.326491</ele>
        <time>2025-08-12T10:25:33.557Z</time>
      </trkpt>
      <trkpt lat="51.541099" lon="7.325467">
        <ele>102.978487</ele>
        <time>2025-08-12T10:26:04.631Z</time>
      </trkpt>
      <trkpt lat="51.541517" lon="7.326278">
        <ele>107.967444</ele>
        <time>2025-08-12T10:26:31.891Z</time>
      </trkpt>
      <trkpt lat="51.541772" lon="7.326591">
        <ele>110.422087</ele>
        <time>2025-08-12T10:26:44.375Z</time>
      </trkpt>
      <trkpt lat="51.542222" lon="7.327032">
        <ele>114.454320</ele>
        <time>2025-08-12T10:27:02.924Z</time>
      </trkpt>
      <trkpt lat="51.542374" lon="7.327186">
        <ele>115.828951</ele>
        <time>2025-08-12T10:27:08.660Z</time>
      </trkpt>
      <trkpt lat="51.542535" lon="7.327279">
        <ele>116.950942</ele>
        <time>2025-08-12T10:27:13.834Z</time>
      </trkpt>
      <trkpt lat="51.542973" lon="7.327419">
        <ele>118.356724</ele>
        <time>2025-08-12T10:27:25.837Z</time>
      </trkpt>
      <trkpt lat="51.543222" lon="7.327585">
        <ele>119.205267</ele>
        <time>2025-08-12T10:27:32.181Z</time>
      </trkpt>
      <trkpt lat="51.543531" lon="7.327814">
        <ele>120.276331</ele>
        <time>2025-08-12T10:27:39.359Z</time>
      </trkpt>
      <trkpt lat="51.543770" lon="7.327982">
        <ele>121.097443</ele>
        <time>2025-08-12T10:27:44.322Z</time>
      </trkpt>
      <trkpt lat="51.544039" lon="7.328175">
        <ele>122.024716</ele>
        <time>2025-08-12T10:27:49.330Z</time>
      </trkpt>
      <trkpt lat="51.544453" lon="7.328538">
        <ele>122.628053</ele>
        <time>2025-08-12T10:27:55.847Z</time>
      </trkpt>
      <trkpt lat="51.544524" lon="7.328600">
        <ele>122.664156</ele>
        <time>2025-08-12T10:27:56.879Z</time>
      </trkpt>
      <trkpt lat="51.544376" lon="7.328874">
        <ele>122.765008</ele>
        <time>2025-08-12T10:27:59.737Z</time>
      </trkpt>
      <trkpt lat="51.543900" lon="7.329530">
        <ele>123.045139</ele>
        <time>2025-08-12T10:28:07.623Z</time>
      </trkpt>
      <trkpt lat="51.543861" lon="7.329584">
        <ele>123.068137</ele>
        <time>2025-08-12T10:28:08.225Z</time>
      </trkpt>
      <trkpt lat="51.544027" lon="7.329927">
        <ele>123.188916</ele>
        <time>2025-08-12T10:28:11.397Z</time>
      </trkpt>
      <trkpt lat="51.544477" lon="7.331515">
        <ele>123.665953</ele>
        <time>2025-08-12T10:28:26.128Z</time>
      </trkpt>
      <trkpt lat="51.544528" lon="7.331638">
        <ele>123.706197</ele>
        <time>2025-08-12T10:28:27.437Z</time>
      </trkpt>
      <trkpt lat="51.545032" lon="7.333521">
        <ele>123.827708</ele>
        <time>2025-08-12T10:28:44.294Z</time>
      </trkpt>
      <trkpt lat="51.545060" lon="7.333627">
        <ele>123.787379</ele>
        <time>2025-08-12T10:28:45.142Z</time>
      </trkpt>
      <trkpt lat="51.545586" lon="7.332362">
        <ele>123.254513</ele>
        <time>2025-08-12T10:28:54.815Z</time>
      </trkpt>
      <trkpt lat="51.545802" lon="7.331860">
        <ele>123.037406</ele>
        <time>2025-08-12T10:28:58.266Z</time>
      </trkpt>
      <trkpt lat="51.546644" lon="7.331017">
        <ele>122.384479</ele>
        <time>2025-08-12T10:29:07.649Z</time>
      </trkpt>
      <trkpt lat="51.547155" lon="7.330522">
        <ele>121.991778</ele>
        <time>2025-08-12T10:29:16.995Z</time>
      </trkpt>
      <trkpt lat="51.547243" lon="7.330431">
        <ele>121.922905</ele>
        <time>2025-08-12T10:29:18.894Z</time>
      </trkpt>
      <trkpt lat="51.547702" lon="7.329970">
        <ele>121.644283</ele>
        <time>2025-08-12T10:29:28.712Z</time>
      </trkpt>
      <trkpt lat="51.548234" lon="7.329433">
        <ele>121.334378</ele>
        <time>2025-08-12T10:29:38.575Z</time>
      </trkpt>
      <trkpt lat="51.548338" lon="7.329386">
        <ele>121.281079</ele>
        <time>2025-08-12T10:29:40.099Z</time>
      </trkpt>
      <trkpt lat="51.548641" lon="7.329951">
        <ele>121.052171</ele>
        <time>2025-08-12T10:29:44.539Z</time>
      </trkpt>
      <trkpt lat="51.548848" lon="7.330351">
        <ele>120.617404</ele>
        <time>2025-08-12T10:29:47.477Z</time>
      </trkpt>
      <trkpt lat="51.549004" lon="7.330661">
        <ele>120.146601</ele>
        <time>2025-08-12T10:29:49.660Z</time>
      </trkpt>
      <trkpt lat="51.549693" lon="7.332036">
        <ele>118.061878</ele>
        <time>2025-08-12T10:29:59.411Z</time>
      </trkpt>
      <trkpt lat="51.549889" lon="7.332349">
        <ele>117.514095</ele>
        <time>2025-08-12T10:30:01.798Z</time>
      </trkpt>
      <trkpt lat="51.550120" lon="7.332651">
        <ele>116.590972</ele>
        <time>2025-08-12T10:30:04.328Z</time>
      </trkpt>
      <trkpt lat="51.550543" lon="7.333238">
        <ele>114.858497</ele>
        <time>2025-08-12T10:30:08.957Z</time>
      </trkpt>
      <trkpt lat="51.551832" lon="7.335101">
        <ele>108.761884</ele>
        <time>2025-08-12T10:30:22.746Z</time>
      </trkpt>
      <trkpt lat="51.552933" lon="7.336746">
        <ele>102.759804</ele>
        <time>2025-08-12T10:30:34.317Z</time>
      </trkpt>
      <trkpt lat="51.553127" lon="7.337126">
        <ele>101.538104</ele>
        <time>2025-08-12T10:30:36.670Z</time>
      </trkpt>
      <trkpt lat="51.553411" lon="7.337783">
        <ele>99.549886</ele>
        <time>2025-08-12T10:30:40.536Z</time>
      </trkpt>
      <trkpt lat="51.554231" lon="7.339970">
        <ele>94.334069</ele>
        <time>2025-08-12T10:30:53.356Z</time>
      </trkpt>
      <trkpt lat="51.554409" lon="7.340348">
        <ele>93.456799</ele>
        <time>2025-08-12T10:30:55.843Z</time>
      </trkpt>
      <trkpt lat="51.555176" lon="7.341711">
        <ele>90.470605</ele>
        <time>2025-08-12T10:31:05.637Z</time>
      </trkpt>
      <trkpt lat="51.555453" lon="7.342287">
        <ele>89.375152</ele>
        <time>2025-08-12T10:31:09.496Z</time>
      </trkpt>
      <trkpt lat="51.555566" lon="7.342285">
        <ele>89.101729</ele>
        <time>2025-08-12T10:31:10.459Z</time>
      </trkpt>
      <trkpt lat="51.555875" lon="7.342325">
        <ele>88.351680</ele>
        <time>2025-08-12T10:31:13.072Z</time>
      </trkpt>
      <trkpt lat="51.556327" lon="7.342424">
        <ele>87.213184</ele>
        <time>2025-08-12T10:31:16.891Z</time>
      </trkpt>
      <trkpt lat="51.557167" lon="7.342610">
        <ele>85.056104</ele>
        <time>2025-08-12T10:31:24.048Z</time>
      </trkpt>
      <trkpt lat="51.557704" lon="7.342784">
        <ele>83.662554</ele>
        <time>2025-08-12T10:31:28.676Z</time>
      </trkpt>
      <trkpt lat="51.558036" lon="7.342967">
        <ele>82.740666</ele>
        <time>2025-08-12T10:31:31.641Z</time>
      </trkpt>
      <trkpt lat="51.558564" lon="7.343126">
        <ele>81.305469</ele>
        <time>2025-08-12T10:31:36.190Z</time>
      </trkpt>
      <trkpt lat="51.559750" lon="7.343220">
        <ele>78.181813</ele>
        <time>2025-08-12T10:31:46.020Z</time>
      </trkpt>
      <trkpt lat="51.560497" lon="7.343291">
        <ele>76.420891</ele>
        <time>2025-08-12T10:31:52.270Z</time>
      </trkpt>
      <trkpt lat="51.560727" lon="7.343256">
        <ele>75.877234</ele>
        <time>2025-08-12T10:31:54.212Z</time>
      </trkpt>
      <trkpt lat="51.561751" lon="7.342629">
        <ele>73.958934</ele>
        <time>2025-08-12T10:32:03.961Z</time>
      </trkpt>
      <trkpt lat="51.562024" lon="7.342492">
        <ele>73.725116</ele>
        <time>2025-08-12T10:32:06.898Z</time>
      </trkpt>
      <trkpt lat="51.562399" lon="7.342383">
        <ele>73.413547</ele>
        <time>2025-08-12T10:32:10.939Z</time>
      </trkpt>
      <trkpt lat="51.562683" lon="7.342342">
        <ele>73.180413</ele>
        <time>2025-08-12T10:32:14.059Z</time>
      </trkpt>
      <trkpt lat="51.562882" lon="7.342315">
        <ele>73.017131</ele>
        <time>2025-08-12T10:32:16.202Z</time>
      </trkpt>
      <trkpt lat="51.563091" lon="7.342187">
        <ele>72.836824</ele>
        <time>2025-08-12T10:32:18.572Z</time>
      </trkpt>
      <trkpt lat="51.563647" lon="7.341667">
        <ele>72.553539</ele>
        <time>2025-08-12T10:32:25.982Z</time>
      </trkpt>
      <trkpt lat="51.564030" lon="7.341189">
        <ele>72.340020</ele>
        <time>2025-08-12T10:32:31.058Z</time>
      </trkpt>
      <trkpt lat="51.564269" lon="7.340974">
        <ele>72.219405</ele>
        <time>2025-08-12T10:32:33.937Z</time>
      </trkpt>
      <trkpt lat="51.564494" lon="7.340850">
        <ele>72.114644</ele>
        <time>2025-08-12T10:32:36.439Z</time>
      </trkpt>
      <trkpt lat="51.565889" lon="7.340508">
        <ele>71.382361</ele>
        <time>2025-08-12T10:32:51.349Z</time>
      </trkpt>
      <trkpt lat="51.566067" lon="7.340477">
        <ele>71.287749</ele>
        <time>2025-08-12T10:32:53.150Z</time>
      </trkpt>
      <trkpt lat="51.566317" lon="7.340498">
        <ele>71.155459</ele>
        <time>2025-08-12T10:32:55.725Z</time>
      </trkpt>
      <trkpt lat="51.566770" lon="7.340619">
        <ele>70.987220</ele>
        <time>2025-08-12T10:33:00.612Z</time>
      </trkpt>
      <trkpt lat="51.566973" lon="7.340210">
        <ele>70.884734</ele>
        <time>2025-08-12T10:33:04.170Z</time>
      </trkpt>
      <trkpt lat="51.567047" lon="7.340146">
        <ele>70.858268</ele>
        <time>2025-08-12T10:33:05.110Z</time>
      </trkpt>
      <trkpt lat="51.567540" lon="7.339719">
        <ele>70.681889</ele>
        <time>2025-08-12T10:33:11.343Z</time>
      </trkpt>
      <trkpt lat="51.567608" lon="7.339691">
        <ele>70.659777</ele>
        <time>2025-08-12T10:33:12.415Z</time>
      </trkpt>
      <trkpt lat="51.568072" lon="7.340799">
        <ele>70.731562</ele>
        <time>2025-08-12T10:33:21.796Z</time>
      </trkpt>
      <trkpt lat="51.568128" lon="7.340931">
        <ele>70.779131</ele>
        <time>2025-08-12T10:33:23.088Z</time>
      </trkpt>
      <trkpt lat="51.568244" lon="7.341211">
        <ele>70.879287</ele>
        <time>2025-08-12T10:33:25.821Z</time>
      </trkpt>
      <trkpt lat="51.568634" lon="7.342117">
        <ele>71.207307</ele>
        <time>2025-08-12T10:33:35.468Z</time>
      </trkpt>
      <trkpt lat="51.568728" lon="7.342322">
        <ele>71.283131</ele>
        <time>2025-08-12T10:33:37.773Z</time>
      </trkpt>
      <trkpt lat="51.568925" lon="7.342646">
        <ele>71.401827</ele>
        <time>2025-08-12T10:33:42.018Z</time>
      </trkpt>
      <trkpt lat="51.569074" lon="7.343079">
        <ele>71.458286</ele>
        <time>2025-08-12T10:33:46.829Z</time>
      </trkpt>
      <trkpt lat="51.569266" lon="7.343393">
        <ele>71.508532</ele>
        <time>2025-08-12T10:33:51.024Z</time>
      </trkpt>
      <trkpt lat="51.570713" lon="7.340831">
        <ele>70.574743</ele>
        <time>2025-08-12T10:34:14.800Z</time>
      </trkpt>
      <trkpt lat="51.571450" lon="7.339979">
        <ele>69.527404</ele>
        <time>2025-08-12T10:34:22.574Z</time>
      </trkpt>
      <trkpt lat="51.571917" lon="7.339440">
        <ele>68.889895</ele>
        <time>2025-08-12T10:34:27.705Z</time>
      </trkpt>
      <trkpt lat="51.572305" lon="7.339189">
        <ele>68.426030</ele>
        <time>2025-08-12T10:34:31.880Z</time>
      </trkpt>
      <trkpt lat="51.573496" lon="7.338593">
        <ele>66.989015</ele>
        <time>2025-08-12T10:34:45.479Z</time>
      </trkpt>
      <trkpt lat="51.573959" lon="7.338272">
        <ele>66.379816</ele>
        <time>2025-08-12T10:34:50.195Z</time>
      </trkpt>
      <trkpt lat="51.577785" lon="7.335487">
        <ele>59.708938</ele>
        <time>2025-08-12T10:35:27.843Z</time>
      </trkpt>
      <trkpt lat="51.578063" lon="7.335334">
        <ele>59.395907</ele>
        <time>2025-08-12T10:35:32.013Z</time>
      </trkpt>
      <trkpt lat="51.579514" lon="7.334788">
        <ele>58.629716</ele>
        <time>2025-08-12T10:35:54.734Z</time>
      </trkpt>
      <trkpt lat="51.580670" lon="7.334334">
        <ele>58.237218</ele>
        <time>2025-08-12T10:36:07.588Z</time>
      </trkpt>
      <trkpt lat="51.580821" lon="7.334328">
        <ele>58.191955</ele>
        <time>2025-08-12T10:36:09.232Z</time>
      </trkpt>
      <trkpt lat="51.580900" lon="7.334366">
        <ele>58.167246</ele>
        <time>2025-08-12T10:36:10.124Z</time>
      </trkpt>
      <trkpt lat="51.581017" lon="7.334478">
        <ele>58.126451</ele>
        <time>2025-08-12T10:36:11.621Z</time>
      </trkpt>
      <trkpt lat="51.581105" lon="7.334638">
        <ele>58.086663</ele>
        <time>2025-08-12T10:36:13.098Z</time>
      </trkpt>
      <trkpt lat="51.581219" lon="7.335129">
        <ele>58.040743</ele>
        <time>2025-08-12T10:36:16.755Z</time>
      </trkpt>
      <trkpt lat="51.581383" lon="7.335919">
        <ele>58.400358</ele>
        <time>2025-08-12T10:36:22.940Z</time>
      </trkpt>
      <trkpt lat="51.581583" lon="7.336849">
        <ele>58.825253</ele>
        <time>2025-08-12T10:36:31.616Z</time>
      </trkpt>
      <trkpt lat="51.581638" lon="7.336980">
        <ele>58.893512</ele>
        <time>2025-08-12T10:36:33.121Z</time>
      </trkpt>
      <trkpt lat="51.581698" lon="7.337018">
        <ele>58.938312</ele>
        <time>2025-08-12T10:36:34.135Z</time>
      </trkpt>
      <trkpt lat="51.581673" lon="7.337125">
        <ele>58.987667</ele>
        <time>2025-08-12T10:36:35.267Z</time>
      </trkpt>
      <trkpt lat="51.581676" lon="7.337345">
        <ele>59.082675</ele>
        <time>2025-08-12T10:36:37.507Z</time>
      </trkpt>
      <trkpt lat="51.581714" lon="7.337576">
        <ele>59.185845</ele>
        <time>2025-08-12T10:36:39.948Z</time>
      </trkpt>
      <trkpt lat="51.582012" lon="7.338992">
        <ele>59.974435</ele>
        <time>2025-08-12T10:36:55.293Z</time>
      </trkpt>
      <trkpt lat="51.582824" lon="7.342920">
        <ele>61.610207</ele>
        <time>2025-08-12T10:37:40.474Z</time>
      </trkpt>
      <trkpt lat="51.582991" lon="7.343508">
        <ele>61.830178</ele>
        <time>2025-08-12T10:37:47.902Z</time>
      </trkpt>
      <trkpt lat="51.583027" lon="7.343604">
        <ele>61.871679</ele>
        <time>2025-08-12T10:37:49.213Z</time>
      </trkpt>
      <trkpt lat="51.583153" lon="7.343933">
        <ele>62.014723</ele>
        <time>2025-08-12T10:37:53.672Z</time>
      </trkpt>
      <trkpt lat="51.583357" lon="7.344358">
        <ele>62.213496</ele>
        <time>2025-08-12T10:37:59.848Z</time>
      </trkpt>
      <trkpt lat="51.583637" lon="7.344805">
        <ele>62.448421</ele>
        <time>2025-08-12T10:38:07.169Z</time>
      </trkpt>
      <trkpt lat="51.583968" lon="7.345334">
        <ele>62.726287</ele>
        <time>2025-08-12T10:38:15.690Z</time>
      </trkpt>
      <trkpt lat="51.584907" lon="7.343389">
        <ele>62.351939</ele>
        <time>2025-08-12T10:38:33.841Z</time>
      </trkpt>
      <trkpt lat="51.585030" lon="7.343085">
        <ele>62.285381</ele>
        <time>2025-08-12T10:38:36.122Z</time>
      </trkpt>
      <trkpt lat="51.585267" lon="7.343230">
        <ele>61.972497</ele>
        <time>2025-08-12T10:38:38.556Z</time>
      </trkpt>
      <trkpt lat="51.586188" lon="7.343492">
        <ele>59.896991</ele>
        <time>2025-08-12T10:38:46.584Z</time>
      </trkpt>
      <trkpt lat="51.586465" lon="7.343570">
        <ele>59.272953</ele>
        <time>2025-08-12T10:38:48.871Z</time>
      </trkpt>
      <trkpt lat="51.587350" lon="7.343819">
        <ele>57.812887</ele>
        <time>2025-08-12T10:38:56.355Z</time>
      </trkpt>
      <trkpt lat="51.587557" lon="7.343880">
        <ele>57.601133</ele>
        <time>2025-08-12T10:38:58.228Z</time>
      </trkpt>
      <trkpt lat="51.587992" lon="7.344005">
        <ele>57.156499</ele>
        <time>2025-08-12T10:39:02.556Z</time>
      </trkpt>
      <trkpt lat="51.587991" lon="7.344589">
        <ele>56.791388</ele>
        <time>2025-08-12T10:39:06.727Z</time>
      </trkpt>
      <trkpt lat="51.588089" lon="7.344982">
        <ele>56.526640</ele>
        <time>2025-08-12T10:39:10.268Z</time>
      </trkpt>
      <trkpt lat="51.588295" lon="7.345554">
        <ele>56.711138</ele>
        <time>2025-08-12T10:39:16.334Z</time>
      </trkpt>
      <trkpt lat="51.588551" lon="7.346146">
        <ele>57.071102</ele>
        <time>2025-08-12T10:39:23.164Z</time>
      </trkpt>
      <trkpt lat="51.588996" lon="7.346971">
        <ele>57.616344</ele>
        <time>2025-08-12T10:39:33.604Z</time>
      </trkpt>
      <trkpt lat="51.588986" lon="7.347129">
        <ele>57.695604</ele>
        <time>2025-08-12T10:39:35.016Z</time>
      </trkpt>
      <trkpt lat="51.589053" lon="7.347647">
        <ele>57.914133</ele>
        <time>2025-08-12T10:39:39.437Z</time>
      </trkpt>
      <trkpt lat="51.589132" lon="7.348047">
        <ele>57.985672</ele>
        <time>2025-08-12T10:39:42.723Z</time>
      </trkpt>
      <trkpt lat="51.589316" lon="7.348510">
        <ele>58.079350</ele>
        <time>2025-08-12T10:39:46.937Z</time>
      </trkpt>
      <trkpt lat="51.589350" lon="7.348569">
        <ele>58.093066</ele>
        <time>2025-08-12T10:39:47.552Z</time>
      </trkpt>
      <trkpt lat="51.589622" lon="7.349037">
        <ele>58.202294</ele>
        <time>2025-08-12T10:39:52.318Z</time>
      </trkpt>
      <trkpt lat="51.589807" lon="7.349355">
        <ele>58.276546</ele>
        <time>2025-08-12T10:39:55.385Z</time>
      </trkpt>
      <trkpt lat="51.589862" lon="7.349449">
        <ele>58.298554</ele>
        <time>2025-08-12T10:39:56.342Z</time>
      </trkpt>
      <trkpt lat="51.590119" lon="7.349868">
        <ele>58.429528</ele>
        <time>2025-08-12T10:40:01.005Z</time>
      </trkpt>
      <trkpt lat="51.590168" lon="7.349948">
        <ele>58.487873</ele>
        <time>2025-08-12T10:40:01.996Z</time>
      </trkpt>
      <trkpt lat="51.590556" lon="7.350568">
        <ele>58.944914</ele>
        <time>2025-08-12T10:40:10.271Z</time>
      </trkpt>
      <trkpt lat="51.590597" lon="7.350628">
        <ele>58.991236</ele>
        <time>2025-08-12T10:40:11.180Z</time>
      </trkpt>
      <trkpt lat="51.590855" lon="7.350925">
        <ele>59.256392</ele>
        <time>2025-08-12T10:40:16.166Z</time>
      </trkpt>
      <trkpt lat="51.590986" lon="7.351005">
        <ele>59.373518</ele>
        <time>2025-08-12T10:40:18.330Z</time>
      </trkpt>
      <trkpt lat="51.591327" lon="7.351113">
        <ele>59.664042</ele>
        <time>2025-08-12T10:40:23.634Z</time>
      </trkpt>
      <trkpt lat="51.591611" lon="7.351118">
        <ele>59.887577</ele>
        <time>2025-08-12T10:40:28.032Z</time>
      </trkpt>
      <trkpt lat="51.592894" lon="7.350610">
        <ele>59.892035</ele>
        <time>2025-08-12T10:40:43.365Z</time>
      </trkpt>
      <trkpt lat="51.593205" lon="7.349672">
        <ele>59.921593</ele>
        <time>2025-08-12T10:40:50.579Z</time>
      </trkpt>
      <trkpt lat="51.593531" lon="7.348566">
        <ele>60.028179</ele>
        <time>2025-08-12T10:40:59.717Z</time>
      </trkpt>
      <trkpt lat="51.593695" lon="7.348355">
        <ele>60.057604</ele>
        <time>2025-08-12T10:41:02.540Z</time>
      </trkpt>
      <trkpt lat="51.593693" lon="7.348010">
        <ele>60.087643</ele>
        <time>2025-08-12T10:41:05.468Z</time>
      </trkpt>
      <trkpt lat="51.593710" lon="7.347938">
        <ele>60.094349</ele>
        <time>2025-08-12T10:41:06.110Z</time>
      </trkpt>
      <trkpt lat="51.593822" lon="7.347478">
        <ele>60.137366</ele>
        <time>2025-08-12T10:41:10.123Z</time>
      </trkpt>
      <trkpt lat="51.594088" lon="7.346732">
        <ele>60.157815</ele>
        <time>2025-08-12T10:41:16.602Z</time>
      </trkpt>
      <trkpt lat="51.594292" lon="7.346368">
        <ele>60.165599</ele>
        <time>2025-08-12T10:41:20.127Z</time>
      </trkpt>
      <trkpt lat="51.594325" lon="7.346314">
        <ele>60.166802</ele>
        <time>2025-08-12T10:41:20.668Z</time>
      </trkpt>
      <trkpt lat="51.594628" lon="7.345744">
        <ele>60.178714</ele>
        <time>2025-08-12T10:41:26.011Z</time>
      </trkpt>
      <trkpt lat="51.594899" lon="7.345122">
        <ele>60.190777</ele>
        <time>2025-08-12T10:41:31.529Z</time>
      </trkpt>
      <trkpt lat="51.594946" lon="7.345170">
        <ele>60.193756</ele>
        <time>2025-08-12T10:41:32.201Z</time>
      </trkpt>
      <trkpt lat="51.595106" lon="7.345336">
        <ele>60.212264</ele>
        <time>2025-08-12T10:41:34.544Z</time>
      </trkpt>
      <trkpt lat="51.595430" lon="7.345549">
        <ele>60.246293</ele>
        <time>2025-08-12T10:41:38.955Z</time>
      </trkpt>
      <trkpt lat="51.595665" lon="7.345632">
        <ele>60.269686</ele>
        <time>2025-08-12T10:41:42.057Z</time>
      </trkpt>
      <trkpt lat="51.595904" lon="7.345651">
        <ele>60.292953</ele>
        <time>2025-08-12T10:41:45.142Z</time>
      </trkpt>
      <trkpt lat="51.596291" lon="7.345572">
        <ele>60.330883</ele>
        <time>2025-08-12T10:41:50.016Z</time>
      </trkpt>
      <trkpt lat="51.596770" lon="7.345645">
        <ele>60.321378</ele>
        <time>2025-08-12T10:41:55.502Z</time>
      </trkpt>
      <trkpt lat="51.597051" lon="7.345763">
        <ele>60.206870</ele>
        <time>2025-08-12T10:41:58.717Z</time>
      </trkpt>
      <trkpt lat="51.597714" lon="7.346056">
        <ele>59.935774</ele>
        <time>2025-08-12T10:42:06.262Z</time>
      </trkpt>
      <trkpt lat="51.597823" lon="7.346093">
        <ele>59.891850</ele>
        <time>2025-08-12T10:42:07.475Z</time>
      </trkpt>
      <trkpt lat="51.598009" lon="7.346085">
        <ele>59.818483</ele>
        <time>2025-08-12T10:42:09.450Z</time>
      </trkpt>
      <trkpt lat="51.598205" lon="7.346154">
        <ele>59.739373</ele>
        <time>2025-08-12T10:42:11.540Z</time>
      </trkpt>
      <trkpt lat="51.598455" lon="7.346243">
        <ele>59.628535</ele>
        <time>2025-08-12T10:42:14.152Z</time>
      </trkpt>
      <trkpt lat="51.598768" lon="7.346383">
        <ele>59.433485</ele>
        <time>2025-08-12T10:42:17.438Z</time>
      </trkpt>
      <trkpt lat="51.598986" lon="7.346423">
        <ele>59.301747</ele>
        <time>2025-08-12T10:42:19.668Z</time>
      </trkpt>
      <trkpt lat="51.599136" lon="7.346397">
        <ele>59.211164</ele>
        <time>2025-08-12T10:42:21.193Z</time>
      </trkpt>
      <trkpt lat="51.599683" lon="7.346272">
        <ele>58.879443</ele>
        <time>2025-08-12T10:42:26.772Z</time>
      </trkpt>
      <trkpt lat="51.599787" lon="7.346291">
        <ele>58.816599</ele>
        <time>2025-08-12T10:42:27.841Z</time>
      </trkpt>
      <trkpt lat="51.600257" lon="7.346137">
        <ele>58.585409</ele>
        <time>2025-08-12T10:42:32.890Z</time>
      </trkpt>
      <trkpt lat="51.603949" lon="7.347996">
        <ele>59.166186</ele>
        <time>2025-08-12T10:43:21.521Z</time>
      </trkpt>
      <trkpt lat="51.605658" lon="7.348825">
        <ele>59.573294</ele>
        <time>2025-08-12T10:43:43.364Z</time>
      </trkpt>
      <trkpt lat="51.605799" lon="7.348865">
        <ele>59.664000</ele>
        <time>2025-08-12T10:43:45.014Z</time>
      </trkpt>
      <trkpt lat="51.605907" lon="7.348831">
        <ele>59.733719</ele>
        <time>2025-08-12T10:43:46.318Z</time>
      </trkpt>
      <trkpt lat="51.606001" lon="7.348789">
        <ele>59.795522</ele>
        <time>2025-08-12T10:43:47.504Z</time>
      </trkpt>
      <trkpt lat="51.606058" lon="7.348786">
        <ele>59.831654</ele>
        <time>2025-08-12T10:43:48.242Z</time>
      </trkpt>
      <trkpt lat="51.606128" lon="7.348783">
        <ele>59.876018</ele>
        <time>2025-08-12T10:43:49.142Z</time>
      </trkpt>
      <trkpt lat="51.606222" lon="7.348778">
        <ele>59.935604</ele>
        <time>2025-08-12T10:43:50.414Z</time>
      </trkpt>
      <trkpt lat="51.606286" lon="7.348775">
        <ele>59.976168</ele>
        <time>2025-08-12T10:43:51.277Z</time>
      </trkpt>
      <trkpt lat="51.606383" lon="7.348780">
        <ele>60.037654</ele>
        <time>2025-08-12T10:43:52.669Z</time>
      </trkpt>
      <trkpt lat="51.606491" lon="7.348852">
        <ele>60.111710</ele>
        <time>2025-08-12T10:43:54.367Z</time>
      </trkpt>
      <trkpt lat="51.606598" lon="7.348855">
        <ele>60.179509</ele>
        <time>2025-08-12T10:43:55.971Z</time>
      </trkpt>
      <trkpt lat="51.606881" lon="7.348844">
        <ele>60.358855</ele>
        <time>2025-08-12T10:44:00.398Z</time>
      </trkpt>
      <trkpt lat="51.607012" lon="7.348900">
        <ele>60.444725</ele>
        <time>2025-08-12T10:44:02.518Z</time>
      </trkpt>
      <trkpt lat="51.607686" lon="7.349441">
        <ele>61.490437</ele>
        <time>2025-08-12T10:44:14.960Z</time>
      </trkpt>
      <trkpt lat="51.608383" lon="7.349995">
        <ele>62.644059</ele>
        <time>2025-08-12T10:44:28.720Z</time>
      </trkpt>
      <trkpt lat="51.609454" lon="7.350783">
        <ele>63.891119</ele>
        <time>2025-08-12T10:44:46.946Z</time>
      </trkpt>
      <trkpt lat="51.610600" lon="7.351448">
        <ele>64.913432</ele>
        <time>2025-08-12T10:45:03.904Z</time>
      </trkpt>
      <trkpt lat="51.611911" lon="7.351661">
        <ele>65.819978</ele>
        <time>2025-08-12T10:45:21.278Z</time>
      </trkpt>
      <trkpt lat="51.612215" lon="7.351717">
        <ele>66.077832</ele>
        <time>2025-08-12T10:45:26.040Z</time>
      </trkpt>
      <trkpt lat="51.613930" lon="7.352164">
        <ele>68.454289</ele>
        <time>2025-08-12T10:45:56.164Z</time>
      </trkpt>
      <trkpt lat="51.614046" lon="7.352189">
        <ele>68.477413</ele>
        <time>2025-08-12T10:45:57.856Z</time>
      </trkpt>
      <trkpt lat="51.614222" lon="7.349922">
        <ele>68.757713</ele>
        <time>2025-08-12T10:46:14.207Z</time>
      </trkpt>
      <trkpt lat="51.614494" lon="7.345107">
        <ele>68.955310</ele>
        <time>2025-08-12T10:46:49.918Z</time>
      </trkpt>
      <trkpt lat="51.614574" lon="7.343893">
        <ele>69.079449</ele>
        <time>2025-08-12T10:47:00.219Z</time>
      </trkpt>
      <trkpt lat="51.614561" lon="7.343668">
        <ele>69.085741</ele>
        <time>2025-08-12T10:47:02.087Z</time>
      </trkpt>
      <trkpt lat="51.614855" lon="7.338413">
        <ele>68.497791</ele>
        <time>2025-08-12T10:47:38.210Z</time>
      </trkpt>
      <trkpt lat="51.614561" lon="7.343668">
        <ele>68.975226</ele>
        <time>2025-08-12T10:48:20.251Z</time>
      </trkpt>
      <trkpt lat="51.614574" lon="7.343893">
        <ele>68.980230</ele>
        <time>2025-08-12T10:48:21.757Z</time>
      </trkpt>
      <trkpt lat="51.614494" lon="7.345107">
        <ele>68.963147</ele>
        <time>2025-08-12T10:48:29.736Z</time>
      </trkpt>
      <trkpt lat="51.614222" lon="7.349922">
        <ele>68.823261</ele>
        <time>2025-08-12T10:49:05.236Z</time>
      </trkpt>
      <trkpt lat="51.614046" lon="7.352189">
        <ele>68.205437</ele>
        <time>2025-08-12T10:49:22.577Z</time>
      </trkpt>
      <trkpt lat="51.613930" lon="7.352164">
        <ele>68.140879</ele>
        <time>2025-08-12T10:49:23.761Z</time>
      </trkpt>
      <trkpt lat="51.612215" lon="7.351717">
        <ele>66.265483</ele>
        <time>2025-08-12T10:49:39.424Z</time>
      </trkpt>
      <trkpt lat="51.611911" lon="7.351661">
        <ele>65.859671</ele>
        <time>2025-08-12T10:49:42.345Z</time>
      </trkpt>
      <trkpt lat="51.610600" lon="7.351448">
        <ele>64.865524</ele>
        <time>2025-08-12T10:49:56.549Z</time>
      </trkpt>
      <trkpt lat="51.609454" lon="7.350783">
        <ele>63.924267</ele>
        <time>2025-08-12T10:50:09.149Z</time>
      </trkpt>
      <trkpt lat="51.608383" lon="7.349995">
        <ele>62.594853</ele>
        <time>2025-08-12T10:50:20.456Z</time>
      </trkpt>
      <trkpt lat="51.607686" lon="7.349441">
        <ele>61.585165</ele>
        <time>2025-08-12T10:50:27.401Z</time>
      </trkpt>
      <trkpt lat="51.607012" lon="7.348900">
        <ele>60.564677</ele>
        <time>2025-08-12T10:50:34.363Z</time>
      </trkpt>
      <trkpt lat="51.606881" lon="7.348844">
        <ele>60.381016</ele>
        <time>2025-08-12T10:50:35.663Z</time>
      </trkpt>
      <trkpt lat="51.606598" lon="7.348855">
        <ele>59.997426</ele>
        <time>2025-08-12T10:50:38.363Z</time>
      </trkpt>
      <trkpt lat="51.606491" lon="7.348852">
        <ele>59.928117</ele>
        <time>2025-08-12T10:50:39.405Z</time>
      </trkpt>
      <trkpt lat="51.606383" lon="7.348780">
        <ele>59.906721</ele>
        <time>2025-08-12T10:50:40.577Z</time>
      </trkpt>
      <trkpt lat="51.606286" lon="7.348775">
        <ele>59.888956</ele>
        <time>2025-08-12T10:50:41.565Z</time>
      </trkpt>
      <trkpt lat="51.606222" lon="7.348778">
        <ele>59.877236</ele>
        <time>2025-08-12T10:50:42.251Z</time>
      </trkpt>
      <trkpt lat="51.606128" lon="7.348783">
        <ele>59.860021</ele>
        <time>2025-08-12T10:50:43.243Z</time>
      </trkpt>
      <trkpt lat="51.606058" lon="7.348786">
        <ele>59.847203</ele>
        <time>2025-08-12T10:50:44.055Z</time>
      </trkpt>
      <trkpt lat="51.606001" lon="7.348789">
        <ele>59.836764</ele>
        <time>2025-08-12T10:50:44.694Z</time>
      </trkpt>
      <trkpt lat="51.605907" lon="7.348831">
        <ele>59.818907</ele>
        <time>2025-08-12T10:50:45.880Z</time>
      </trkpt>
      <trkpt lat="51.605799" lon="7.348865">
        <ele>59.798764</ele>
        <time>2025-08-12T10:50:47.225Z</time>
      </trkpt>
      <trkpt lat="51.605658" lon="7.348825">
        <ele>59.772557</ele>
        <time>2025-08-12T10:50:49.070Z</time>
      </trkpt>
      <trkpt lat="51.605377" lon="7.348689">
        <ele>59.718848</ele>
        <time>2025-08-12T10:50:52.766Z</time>
      </trkpt>
      <trkpt lat="51.605658" lon="7.348825">
        <ele>59.665139</ele>
        <time>2025-08-12T10:50:56.046Z</time>
      </trkpt>
      <trkpt lat="51.605799" lon="7.348865">
        <ele>59.638932</ele>
        <time>2025-08-12T10:50:57.629Z</time>
      </trkpt>
      <trkpt lat="51.605907" lon="7.348831">
        <ele>59.618789</ele>
        <time>2025-08-12T10:50:58.892Z</time>
      </trkpt>
      <trkpt lat="51.606001" lon="7.348789">
        <ele>59.664671</ele>
        <time>2025-08-12T10:51:00.027Z</time>
      </trkpt>
      <trkpt lat="51.606058" lon="7.348786">
        <ele>59.722300</ele>
        <time>2025-08-12T10:51:00.735Z</time>
      </trkpt>
      <trkpt lat="51.606128" lon="7.348783">
        <ele>59.793060</ele>
        <time>2025-08-12T10:51:01.598Z</time>
      </trkpt>
      <trkpt lat="51.606222" lon="7.348778">
        <ele>59.888100</ele>
        <time>2025-08-12T10:51:02.859Z</time>
      </trkpt>
      <trkpt lat="51.606286" lon="7.348775">
        <ele>59.952799</ele>
        <time>2025-08-12T10:51:03.716Z</time>
      </trkpt>
      <trkpt lat="51.606383" lon="7.348780">
        <ele>60.050868</ele>
        <time>2025-08-12T10:51:05.103Z</time>
      </trkpt>
      <trkpt lat="51.606491" lon="7.348852">
        <ele>60.168988</ele>
        <time>2025-08-12T10:51:06.799Z</time>
      </trkpt>
      <trkpt lat="51.606598" lon="7.348855">
        <ele>60.277128</ele>
        <time>2025-08-12T10:51:08.403Z</time>
      </trkpt>
      <trkpt lat="51.606881" lon="7.348844">
        <ele>60.563184</ele>
        <time>2025-08-12T10:51:12.830Z</time>
      </trkpt>
      <trkpt lat="51.607012" lon="7.348900">
        <ele>60.700146</ele>
        <time>2025-08-12T10:51:14.950Z</time>
      </trkpt>
      <trkpt lat="51.607686" lon="7.349441">
        <ele>61.472814</ele>
        <time>2025-08-12T10:51:27.392Z</time>
      </trkpt>
      <trkpt lat="51.608383" lon="7.349995">
        <ele>62.536407</ele>
        <time>2025-08-12T10:51:41.151Z</time>
      </trkpt>
      <trkpt lat="51.609454" lon="7.350783">
        <ele>64.013248</ele>
        <time>2025-08-12T10:51:59.378Z</time>
      </trkpt>
      <trkpt lat="51.610600" lon="7.351448">
        <ele>64.812727</ele>
        <time>2025-08-12T10:52:16.336Z</time>
      </trkpt>
      <trkpt lat="51.611911" lon="7.351661">
        <ele>65.990016</ele>
        <time>2025-08-12T10:52:33.710Z</time>
      </trkpt>
      <trkpt lat="51.612215" lon="7.351717">
        <ele>66.294109</ele>
        <time>2025-08-12T10:52:38.471Z</time>
      </trkpt>
      <trkpt lat="51.613930" lon="7.352164">
        <ele>68.127187</ele>
        <time>2025-08-12T10:53:08.595Z</time>
      </trkpt>
      <trkpt lat="51.614046" lon="7.352189">
        <ele>68.254145</ele>
        <time>2025-08-12T10:53:10.288Z</time>
      </trkpt>
      <trkpt lat="51.614222" lon="7.349922">
        <ele>68.804240</ele>
        <time>2025-08-12T10:53:26.639Z</time>
      </trkpt>
      <trkpt lat="51.614494" lon="7.345107">
        <ele>68.884155</ele>
        <time>2025-08-12T10:54:02.349Z</time>
      </trkpt>
      <trkpt lat="51.614574" lon="7.343893">
        <ele>68.965771</ele>
        <time>2025-08-12T10:54:12.651Z</time>
      </trkpt>
      <trkpt lat="51.614561" lon="7.343668">
        <ele>68.980878</ele>
        <time>2025-08-12T10:54:14.518Z</time>
      </trkpt>
      <trkpt lat="51.614885" lon="7.337871">
        <ele>67.933129</ele>
        <time>2025-08-12T10:54:53.787Z</time>
      </trkpt>
      <trkpt lat="51.614879" lon="7.337742">
        <ele>67.904181</ele>
        <time>2025-08-12T10:54:54.685Z</time>
      </trkpt>
      <trkpt lat="51.615026" lon="7.335816">
        <ele>67.200941</ele>
        <time>2025-08-12T10:55:07.867Z</time>
      </trkpt>
      <trkpt lat="51.615213" lon="7.334163">
        <ele>66.432114</ele>
        <time>2025-08-12T10:55:18.199Z</time>
      </trkpt>
      <trkpt lat="51.615285" lon="7.333902">
        <ele>66.268364</ele>
        <time>2025-08-12T10:55:19.873Z</time>
      </trkpt>
      <trkpt lat="51.615436" lon="7.332620">
        <ele>65.474912</ele>
        <time>2025-08-12T10:55:27.552Z</time>
      </trkpt>
      <trkpt lat="51.615447" lon="7.332523">
        <ele>65.414953</ele>
        <time>2025-08-12T10:55:28.130Z</time>
      </trkpt>
      <trkpt lat="51.615527" lon="7.331844">
        <ele>64.994705</ele>
        <time>2025-08-12T10:55:32.272Z</time>
      </trkpt>
      <trkpt lat="51.615534" lon="7.331752">
        <ele>64.938344</ele>
        <time>2025-08-12T10:55:32.842Z</time>
      </trkpt>
      <trkpt lat="51.615574" lon="7.331207">
        <ele>64.630417</ele>
        <time>2025-08-12T10:55:36.366Z</time>
      </trkpt>
      <trkpt lat="51.615954" lon="7.327888">
        <ele>64.142257</ele>
        <time>2025-08-12T10:56:00.143Z</time>
      </trkpt>
      <trkpt lat="51.615961" lon="7.327553">
        <ele>64.142257</ele>
        <time>2025-08-12T10:56:02.410Z</time>
      </trkpt>
      <trkpt lat="51.615841" lon="7.327152">
        <ele>64.142257</ele>
        <time>2025-08-12T10:56:05.391Z</time>
      </trkpt>
      <trkpt lat="51.615691" lon="7.326681">
        <ele>64.142257</ele>
        <time>2025-08-12T10:56:08.959Z</time>
      </trkpt>
    </trkseg>
  </trk>
</gpx>